Darstellungsparameter: Aktuell verwendete Einstellungen:
Skalierung der Graphiken ... ?
xyx+y,   Skalierungsfaktor:      Skalierung: Modus: x, Faktor: 1
Darstellungszeitraum ... ?
Vom - - bis: - -   Zeitraum: 23.05.2005 - 22.05.2015
Min/Max/Avg-Anzeige ... ?
Zeige MMA aktuell
Zeige MMA Monat
Zeige MMA alles
Zeige --A aktuell
Zeige --A Monat
Zeige --A alles
Keine MMA-Anzeige
MMA:
Average (ber die Originaldaten)
MMA-Basis: 23.05.2005 - 22.05.2015
Quicknavigation für Darstellung... ?
Tage:      1T, 2T, 3T, 5T -1T -2T -3T -5T +1T +2T +3T +5T
Wochen: 1W, 2W, 3W -1W -2W -3W +1W +2W +3W
Monate: 1M, 3M, 6M -1M -3M -6M +1M +3M +6M
Jahre:    1J, 3J, 5J, 10J -1J -3J -5J -10J +1J +3J +5J +10J
Nutze für die Darstellung ... ?
Originaldaten oder ...
Mittelwerte Minima Maxima auf...
Stundenbasis Tagesbasis Wochenbasis
Monatsbasis Jahresbasis      Datenbasis: Mittelwerte auf Tagesbasis
Darstellen als:
Statistik (Auto) Statistik J:M      Darstellung:
Zur Graphik,    zurück zur Übersicht aller Sensoren.
 
Tabellarische Datenbersicht: ?
 
Sensor: Nr:Datum:Temp:Abs-Feuchte:Windchill:Wind:
Aussen-T/F 1 23-05-2005 00:00:00 15.47 C 8.81 g/m*3 15.47 C 0 km/h
2 24-05-2005 00:00:00 15.2125 C 7.47 g/m*3 15.21 C 0 km/h
3 25-05-2005 00:00:00 20.55083 C 9.07 g/m*3 20.55 C 0 km/h
4 26-05-2005 00:00:00 23.19417 C 10.55 g/m*3 23.19 C 0 km/h
5 27-05-2005 00:00:00 25.4563 C 11.26 g/m*3 25.46 C 0 km/h
6 28-05-2005 00:00:00 25.91333 C 11.84 g/m*3 25.91 C 0 km/h
7 29-05-2005 00:00:00 24.1375 C 9.98 g/m*3 24.14 C 0 km/h
8 30-05-2005 00:00:00 14.91167 C 10.28 g/m*3 14.91 C 0 km/h
9 31-05-2005 00:00:00 14.53333 C 7.22 g/m*3 14.53 C 0 km/h
10 01-06-2005 00:00:00 15.82667 C 7.19 g/m*3 15.83 C 0 km/h
11 02-06-2005 00:00:00 18.09167 C 8.27 g/m*3 18.09 C 0 km/h
12 03-06-2005 00:00:00 20.99667 C 10.8 g/m*3 21 C 0 km/h
13 04-06-2005 00:00:00 16.485 C 8.56 g/m*3 16.49 C 0 km/h
14 05-06-2005 00:00:00 14.8025 C 7.74 g/m*3 14.8 C 0 km/h
15 06-06-2005 00:00:00 15.25917 C 7.79 g/m*3 15.26 C 0 km/h
16 07-06-2005 00:00:00 12.26 C 5.02 g/m*3 12.26 C 0 km/h
17 08-06-2005 00:00:00 13.41429 C 6.24 g/m*3 13.41 C 0 km/h
18 09-06-2005 00:00:00 15.84167 C 6.69 g/m*3 15.84 C 0 km/h
19 10-06-2005 00:00:00 16.15833 C 7.12 g/m*3 16.16 C 0 km/h
20 11-06-2005 00:00:00 14.58 C 6.14 g/m*3 14.58 C 0 km/h
21 12-06-2005 00:00:00 14.0525 C 6.27 g/m*3 14.05 C 0 km/h
22 13-06-2005 00:00:00 17.27833 C 6.58 g/m*3 17.28 C 0 km/h
23 14-06-2005 00:00:00 16.55583 C 8.54 g/m*3 16.56 C 0 km/h
24 15-06-2005 00:00:00 20.05167 C 10.11 g/m*3 20.05 C 0 km/h
25 16-06-2005 00:00:00 21.46833 C 9.08 g/m*3 21.47 C 0 km/h
Sensor: Nr:Datum:Temp:Abs-Feuchte:Windchill:Wind:
Aussen-T/F 26 17-06-2005 00:00:00 21.405 C 12.17 g/m*3 21.41 C 0 km/h
27 18-06-2005 00:00:00 25.12583 C 10.68 g/m*3 25.13 C 0 km/h
28 19-06-2005 00:00:00 24.75417 C 8.2 g/m*3 24.75 C 0 km/h
29 20-06-2005 00:00:00 25.94538 C 10.02 g/m*3 25.95 C 0 km/h
30 21-06-2005 00:00:00 26.24583 C 10.89 g/m*3 26.25 C 0 km/h
31 22-06-2005 00:00:00 24.59333 C 9.45 g/m*3 24.59 C 0 km/h
32 23-06-2005 00:00:00 25.40417 C 9.9 g/m*3 25.4 C 0 km/h
33 24-06-2005 00:00:00 27.67167 C 10.61 g/m*3 27.67 C 0 km/h
34 25-06-2005 00:00:00 24.93083 C 12.35 g/m*3 24.93 C 0 km/h
35 26-06-2005 00:00:00 23.99833 C 11.73 g/m*3 24 C 0 km/h
36 27-06-2005 00:00:00 25.26083 C 10.77 g/m*3 25.26 C 0 km/h
37 28-06-2005 00:00:00 26.35917 C 9.96 g/m*3 26.36 C 0 km/h
38 29-06-2005 00:00:00 23.065 C 12.98 g/m*3 23.07 C 0 km/h
39 30-06-2005 00:00:00 20.43667 C 12.48 g/m*3 20.44 C 0 km/h
40 01-07-2005 00:00:00 18.08083 C 11.11 g/m*3 18.08 C 0 km/h
41 02-07-2005 00:00:00 19.26807 C 12.28 g/m*3 19.27 C 0 km/h
42 03-07-2005 00:00:00 24.03333 C 13.19 g/m*3 24.03 C 0 km/h
43 04-07-2005 00:00:00 21.58833 C 11.39 g/m*3 21.59 C 0 km/h
44 05-07-2005 00:00:00 17.17083 C 7.23 g/m*3 17.17 C 0 km/h
45 06-07-2005 00:00:00 16.24167 C 9.2 g/m*3 16.24 C 0 km/h
46 07-07-2005 00:00:00 14.92 C 9.47 g/m*3 14.92 C 0 km/h
47 08-07-2005 00:00:00 16.17583 C 9.49 g/m*3 16.18 C 0 km/h
48 09-07-2005 00:00:00 19.5375 C 9.84 g/m*3 19.54 C 0 km/h
49 10-07-2005 00:00:00 22.93917 C 10.79 g/m*3 22.94 C 0 km/h
50 11-07-2005 00:00:00 23.77333 C 10.84 g/m*3 23.77 C 0 km/h
Sensor: Nr:Datum:Temp:Abs-Feuchte:Windchill:Wind:
Aussen-T/F 51 12-07-2005 00:00:00 23.70667 C 11.85 g/m*3 23.71 C 0 km/h
52 13-07-2005 00:00:00 25.555 C 11.6 g/m*3 25.56 C 0 km/h
53 14-07-2005 00:00:00 25.76723 C 12.39 g/m*3 25.77 C 0 km/h
54 15-07-2005 00:00:00 25.0575 C 11.9 g/m*3 25.06 C 0 km/h
55 16-07-2005 00:00:00 23.73917 C 11.46 g/m*3 23.74 C 0 km/h
56 17-07-2005 00:00:00 23.48167 C 9.48 g/m*3 23.48 C 0 km/h
57 18-07-2005 00:00:00 22.98917 C 10.39 g/m*3 22.99 C 0 km/h
58 19-07-2005 00:00:00 19.165 C 10.11 g/m*3 19.17 C 0 km/h
59 20-07-2005 00:00:00 17.92333 C 9 g/m*3 17.92 C 0 km/h
60 21-07-2005 00:00:00 16.6875 C 8.29 g/m*3 16.69 C 0 km/h
61 22-07-2005 00:00:00 17.13833 C 8.74 g/m*3 17.14 C 0 km/h
62 23-07-2005 00:00:00 17.69 C 7.64 g/m*3 17.69 C 0 km/h
63 24-07-2005 00:00:00 17.87167 C 11.25 g/m*3 17.87 C 0 km/h
64 25-07-2005 00:00:00 20.895 C 11.75 g/m*3 20.9 C 0 km/h
65 26-07-2005 00:00:00 20.33361 C 10.75 g/m*3 20.33 C 0 km/h
66 27-07-2005 00:00:00 23.76 C 13.16 g/m*3 23.76 C 0 km/h
67 28-07-2005 00:00:00 25.00583 C 14.67 g/m*3 25.01 C 0 km/h
68 29-07-2005 00:00:00 23.18917 C 13.92 g/m*3 23.19 C 0 km/h
69 30-07-2005 00:00:00 20.03083 C 11.38 g/m*3 20.03 C 0 km/h
70 31-07-2005 00:00:00 17.3425 C 10.74 g/m*3 17.34 C 0 km/h
71 01-08-2005 00:00:00 19.36167 C 10.99 g/m*3 19.36 C 0 km/h
72 02-08-2005 00:00:00 19.71 C 9.16 g/m*3 19.71 C 0 km/h
73 03-08-2005 00:00:00 18.86917 C 8.93 g/m*3 18.87 C 0 km/h
74 04-08-2005 00:00:00 17.4025 C 8.67 g/m*3 17.4 C 0 km/h
75 05-08-2005 00:00:00 16.13083 C 9.86 g/m*3 16.13 C 0 km/h
Sensor: Nr:Datum:Temp:Abs-Feuchte:Windchill:Wind:
Aussen-T/F 76 06-08-2005 00:00:00 16.02 C 9 g/m*3 16.02 C 0 km/h
77 07-08-2005 00:00:00 13.69412 C 8.11 g/m*3 13.69 C 0 km/h
78 08-08-2005 00:00:00 14.66667 C 8.88 g/m*3 14.67 C 0 km/h
79 09-08-2005 00:00:00 16.6775 C 8.55 g/m*3 16.68 C 0 km/h
80 10-08-2005 00:00:00 16.66083 C 7.5 g/m*3 16.66 C 0 km/h
81 11-08-2005 00:00:00 17.4125 C 9.48 g/m*3 17.41 C 0 km/h
82 12-08-2005 00:00:00 18.20917 C 11.32 g/m*3 18.21 C 0 km/h
83 13-08-2005 00:00:00 18.01833 C 8.84 g/m*3 18.02 C 0 km/h
84 14-08-2005 00:00:00 15.59833 C 10.51 g/m*3 15.6 C 0 km/h
85 15-08-2005 00:00:00 14.56583 C 11.02 g/m*3 14.57 C 0 km/h
86 16-08-2005 00:00:00 19.1575 C 11.13 g/m*3 19.16 C 0 km/h
87 17-08-2005 00:00:00 20.12333 C 10.72 g/m*3 20.12 C 0 km/h
88 18-08-2005 00:00:00 22.1825 C 11.42 g/m*3 22.18 C 0 km/h
89 19-08-2005 00:00:00 21.06975 C 12.52 g/m*3 21.07 C 0 km/h
90 20-08-2005 00:00:00 19.5825 C 10.72 g/m*3 19.58 C 0 km/h
91 21-08-2005 00:00:00 17.13083 C 11.35 g/m*3 17.13 C 0 km/h
92 22-08-2005 00:00:00 18.24 C 11.79 g/m*3 18.24 C 0 km/h
93 23-08-2005 00:00:00 19.4425 C 11.39 g/m*3 19.44 C 0 km/h
94 24-08-2005 00:00:00 18.79417 C 10.31 g/m*3 18.79 C 0 km/h
95 25-08-2005 00:00:00 16.47333 C 10.06 g/m*3 16.47 C 0 km/h
96 26-08-2005 00:00:00 15.255 C 8.61 g/m*3 15.26 C 0 km/h
97 27-08-2005 00:00:00 16.45083 C 9.03 g/m*3 16.45 C 0 km/h
98 28-08-2005 00:00:00 17.84083 C 9.36 g/m*3 17.84 C 0 km/h
99 29-08-2005 00:00:00 19.6675 C 10.08 g/m*3 19.67 C 0 km/h
100 30-08-2005 00:00:00 21.65667 C 10.92 g/m*3 21.66 C 0 km/h
Sensor: Nr:Datum:Temp:Abs-Feuchte:Windchill:Wind:
Aussen-T/F 101 31-08-2005 00:00:00 23.08403 C 11.54 g/m*3 23.08 C 0 km/h
102 01-09-2005 00:00:00 22.76917 C 12.16 g/m*3 22.77 C 0 km/h
103 02-09-2005 00:00:00 21.29917 C 11.95 g/m*3 21.3 C 0 km/h
104 03-09-2005 00:00:00 22.07899 C 11.2 g/m*3 22.08 C 0 km/h
105 04-09-2005 00:00:00 21.90417 C 10.62 g/m*3 21.9 C 0 km/h
106 05-09-2005 00:00:00 21.3675 C 9.49 g/m*3 21.37 C 0 km/h
107 06-09-2005 00:00:00 20.89417 C 10.71 g/m*3 20.89 C 0 km/h
108 07-09-2005 00:00:00 22.66167 C 11.44 g/m*3 22.66 C 0 km/h
109 08-09-2005 00:00:00 23.19833 C 12.14 g/m*3 23.2 C 0 km/h
110 09-09-2005 00:00:00 21.58833 C 12.69 g/m*3 21.59 C 0 km/h
111 10-09-2005 00:00:00 21.80833 C 12.68 g/m*3 21.81 C 0 km/h
112 11-09-2005 00:00:00 18.13 C 13.92 g/m*3 18.13 C 0 km/h
113 12-09-2005 00:00:00 16.6975 C 13.04 g/m*3 16.7 C 0 km/h
114 13-09-2005 00:00:00 17.45833 C 10.62 g/m*3 17.46 C 0 km/h
115 14-09-2005 00:00:00 16.755 C 10.01 g/m*3 16.76 C 0 km/h
116 15-09-2005 00:00:00 20.13361 C 11.35 g/m*3 20.13 C 0 km/h
117 16-09-2005 00:00:00 15.17311 C 9.68 g/m*3 15.17 C 0 km/h
118 17-09-2005 00:00:00 11.81667 C 6.67 g/m*3 11.82 C 0 km/h
119 18-09-2005 00:00:00 11.7875 C 6.82 g/m*3 11.79 C 0 km/h
120 19-09-2005 00:00:00 12.0719 C 6.68 g/m*3 12.07 C 0 km/h
121 20-09-2005 00:00:00 12.19583 C 7.15 g/m*3 12.2 C 0 km/h
122 21-09-2005 00:00:00 13.40667 C 7.66 g/m*3 13.41 C 0 km/h
123 22-09-2005 00:00:00 13.94833 C 8.1 g/m*3 13.95 C 0 km/h
124 23-09-2005 00:00:00 14.84667 C 8.74 g/m*3 14.85 C 0 km/h
125 24-09-2005 00:00:00 15.92583 C 9.59 g/m*3 15.93 C 0 km/h
Sensor: Nr:Datum:Temp:Abs-Feuchte:Windchill:Wind:
Aussen-T/F 126 25-09-2005 00:00:00 17.7325 C 10.47 g/m*3 17.73 C 0 km/h
127 26-09-2005 00:00:00 16.44083 C 9.46 g/m*3 16.44 C 0 km/h
128 27-09-2005 00:00:00 17.605 C 8.57 g/m*3 17.61 C 0 km/h
129 28-09-2005 00:00:00 15.42917 C 8.89 g/m*3 15.43 C 0 km/h
130 29-09-2005 00:00:00 12.91254 C 7.94 g/m*3 12.91 C 0 km/h
131 30-09-2005 00:00:00 12.29549 C 7.03 g/m*3 12.3 C 0 km/h
132 01-10-2005 00:00:00 12.61701 C 9.71 g/m*3 12.62 C 0 km/h
133 02-10-2005 00:00:00 10.70833 C 8.46 g/m*3 10.71 C 0 km/h
134 03-10-2005 00:00:00 11.3875 C 8.55 g/m*3 11.39 C 0 km/h
135 04-10-2005 00:00:00 14.26864 C 9.15 g/m*3 14.27 C 0 km/h
136 05-10-2005 00:00:00 16.7441 C 10.35 g/m*3 16.74 C 0 km/h
137 06-10-2005 00:00:00 16.68194 C 10.26 g/m*3 16.68 C 0 km/h
138 07-10-2005 00:00:00 14.36563 C 9.48 g/m*3 14.37 C 0 km/h
139 08-10-2005 00:00:00 13.06285 C 9.3 g/m*3 13.06 C 0 km/h
140 09-10-2005 00:00:00 14.51049 C 9.74 g/m*3 14.51 C 0 km/h
141 10-10-2005 00:00:00 15.84132 C 9.84 g/m*3 15.84 C 0 km/h
142 11-10-2005 00:00:00 13.49444 C 9.21 g/m*3 13.49 C 0 km/h
143 12-10-2005 00:00:00 13.54549 C 9.11 g/m*3 13.55 C 0 km/h
144 13-10-2005 00:00:00 12.36181 C 8.52 g/m*3 12.36 C 0 km/h
145 14-10-2005 00:00:00 11.9951 C 8.33 g/m*3 12 C 0 km/h
146 15-10-2005 00:00:00 11.45174 C 8.2 g/m*3 11.45 C 0 km/h
147 16-10-2005 00:00:00 10.83472 C 7.4 g/m*3 10.83 C 0 km/h
148 17-10-2005 00:00:00 8.28194 C 5.72 g/m*3 8.28 C 0 km/h
149 18-10-2005 00:00:00 8.65749 C 5.37 g/m*3 8.66 C 0 km/h
150 19-10-2005 00:00:00 7.00417 C 6.38 g/m*3 7 C 0 km/h
Sensor: Nr:Datum:Temp:Abs-Feuchte:Windchill:Wind:
Aussen-T/F 151 20-10-2005 00:00:00 11.25382 C 9.08 g/m*3 11.25 C 0 km/h
152 21-10-2005 00:00:00 14.43681 C 10.35 g/m*3 14.44 C 0 km/h
153 22-10-2005 00:00:00 15.54896 C 10.18 g/m*3 15.55 C 0 km/h
154 23-10-2005 00:00:00 14.24321 C 9.16 g/m*3 14.24 C 0 km/h
155 24-10-2005 00:00:00 12.10545 C 8.42 g/m*3 12.11 C 0 km/h
156 25-10-2005 00:00:00 15.69143 C 8.79 g/m*3 15.69 C 0 km/h
157 26-10-2005 00:00:00 16.07417 C 9.59 g/m*3 16.07 C 0 km/h
158 27-10-2005 00:00:00 14.98583 C 10.01 g/m*3 14.99 C 0 km/h
159 28-10-2005 00:00:00 16.07721 C 9.93 g/m*3 16.08 C 0 km/h
160 29-10-2005 00:00:00 13.94583 C 9.13 g/m*3 13.95 C 0 km/h
161 30-10-2005 00:00:00 12.71467 C 8.73 g/m*3 12.71 C 0 km/h
162 31-10-2005 00:00:00 13.11667 C 8.12 g/m*3 13.12 C 0 km/h
163 01-11-2005 00:00:00 12.41319 C 8.54 g/m*3 12.41 C 0 km/h
164 02-11-2005 00:00:00 10.43819 C 8.46 g/m*3 10.44 C 0 km/h
165 03-11-2005 00:00:00 14.78403 C 9.99 g/m*3 14.78 C 0 km/h
166 04-11-2005 00:00:00 13.39444 C 9.98 g/m*3 13.39 C 0 km/h
167 05-11-2005 00:00:00 8.99792 C 7.03 g/m*3 9 C 0 km/h
168 06-11-2005 00:00:00 9.96224 C 7.32 g/m*3 9.96 C 0 km/h
169 07-11-2005 00:00:00 8.03611 C 7.17 g/m*3 8.04 C 0 km/h
170 08-11-2005 00:00:00 10.35903 C 7.4 g/m*3 10.36 C 0 km/h
171 09-11-2005 00:00:00 7.83194 C 7.09 g/m*3 7.83 C 0 km/h
172 10-11-2005 00:00:00 9.97639 C 7.21 g/m*3 9.98 C 0 km/h
173 11-11-2005 00:00:00 9.26736 C 7.4 g/m*3 9.27 C 0 km/h
174 12-11-2005 00:00:00 7.83611 C 5.99 g/m*3 7.84 C 0 km/h
175 13-11-2005 00:00:00 9.98542 C 7.43 g/m*3 9.99 C 0 km/h
Sensor: Nr:Datum:Temp:Abs-Feuchte:Windchill:Wind:
Aussen-T/F 176 14-11-2005 00:00:00 7.76458 C 6.52 g/m*3 7.76 C 0 km/h
177 15-11-2005 00:00:00 6.09931 C 5.92 g/m*3 6.1 C 0 km/h
178 16-11-2005 00:00:00 5.71806 C 5.83 g/m*3 5.72 C 0 km/h
179 17-11-2005 00:00:00 4.69231 C 4.87 g/m*3 4.69 C 0 km/h
180 18-11-2005 00:00:00 3.75903 C 4.75 g/m*3 3.76 C 0 km/h
181 19-11-2005 00:00:00 1.67431 C 4.45 g/m*3 1.67 C 0 km/h
182 20-11-2005 00:00:00 1.75625 C 4.65 g/m*3 1.76 C 0 km/h
183 21-11-2005 00:00:00 4.09236 C 5.57 g/m*3 4.09 C 0 km/h
184 22-11-2005 00:00:00 -0.87778 C 3.96 g/m*3 -0.88 C 0 km/h
185 23-11-2005 00:00:00 0.84861 C 4.11 g/m*3 0.85 C 0 km/h
186 24-11-2005 00:00:00 2.37778 C 4.63 g/m*3 2.38 C 0 km/h
187 25-11-2005 00:00:00 1.54167 C 3.59 g/m*3 1.54 C 0 km/h
188 26-11-2005 00:00:00 2.46111 C 3.28 g/m*3 2.46 C 0 km/h
189 27-11-2005 00:00:00 2.30979 C 4.39 g/m*3 2.31 C 0 km/h
190 28-11-2005 00:00:00 1.92847 C 4.78 g/m*3 1.93 C 0 km/h
191 29-11-2005 00:00:00 2.30694 C 4.43 g/m*3 2.31 C 0 km/h
192 30-11-2005 00:00:00 2.00069 C 4.01 g/m*3 2 C 0 km/h
193 01-12-2005 00:00:00 0.41875 C 3.53 g/m*3 0.42 C 0 km/h
194 02-12-2005 00:00:00 0.22153 C 3.38 g/m*3 0.22 C 0 km/h
195 03-12-2005 00:00:00 3.82708 C 5.01 g/m*3 3.83 C 0 km/h
196 04-12-2005 00:00:00 7.05417 C 6.74 g/m*3 7.05 C 0 km/h
197 05-12-2005 00:00:00 6.35208 C 5.78 g/m*3 6.35 C 0 km/h
198 06-12-2005 00:00:00 4.99583 C 5.15 g/m*3 5 C 0 km/h
199 07-12-2005 00:00:00 4.93706 C 5.56 g/m*3 4.94 C 0 km/h
200 08-12-2005 00:00:00 4.74653 C 5.18 g/m*3 4.75 C 0 km/h
Sensor: Nr:Datum:Temp:Abs-Feuchte:Windchill:Wind:
Aussen-T/F 201 09-12-2005 00:00:00 3.66458 C 5.09 g/m*3 3.66 C 0 km/h
202 10-12-2005 00:00:00 -0.92292 C 3.78 g/m*3 -0.92 C 0 km/h
203 11-12-2005 00:00:00 -2.30069 C 3.46 g/m*3 -2.3 C 0 km/h
204 12-12-2005 00:00:00 1.72847 C 4.76 g/m*3 1.73 C 0 km/h
205 13-12-2005 00:00:00 1.28472 C 4.91 g/m*3 1.28 C 0 km/h
206 14-12-2005 00:00:00 3.84028 C 5.78 g/m*3 3.84 C 0 km/h
207 15-12-2005 00:00:00 5.59167 C 5.53 g/m*3 5.59 C 0 km/h
208 16-12-2005 00:00:00 6.09861 C 5.31 g/m*3 6.1 C 0 km/h
209 17-12-2005 00:00:00 1.45035 C 3.8 g/m*3 1.45 C 0 km/h
210 18-12-2005 00:00:00 1.59861 C 3.96 g/m*3 1.6 C 0 km/h
211 19-12-2005 00:00:00 1.45417 C 4.2 g/m*3 1.45 C 0 km/h
212 20-12-2005 00:00:00 2.75347 C 4.64 g/m*3 2.75 C 0 km/h
213 21-12-2005 00:00:00 2.23194 C 4.34 g/m*3 2.23 C 0 km/h
214 22-12-2005 00:00:00 2.96875 C 5.07 g/m*3 2.97 C 0 km/h
215 23-12-2005 00:00:00 4.89653 C 5.59 g/m*3 4.9 C 0 km/h
216 24-12-2005 00:00:00 5.93264 C 5.56 g/m*3 5.93 C 0 km/h
217 25-12-2005 00:00:00 4.13958 C 5.2 g/m*3 4.14 C 0 km/h
218 26-12-2005 00:00:00 1.48403 C 4.21 g/m*3 1.48 C 0 km/h
219 27-12-2005 00:00:00 -1.47413 C 3.38 g/m*3 -1.47 C 0 km/h
220 28-12-2005 00:00:00 -1.48681 C 3.38 g/m*3 -1.49 C 0 km/h
221 29-12-2005 00:00:00 -2.85486 C 2.99 g/m*3 -2.85 C 0 km/h
222 30-12-2005 00:00:00 -3.14514 C 2.78 g/m*3 -3.15 C 0 km/h
223 31-12-2005 00:00:00 2.82361 C 4.93 g/m*3 2.82 C 0 km/h
224 01-01-2006 00:00:00 3.86319 C 5.09 g/m*3 3.86 C 0 km/h
225 02-01-2006 00:00:00 3.13125 C 4.93 g/m*3 3.13 C 0 km/h
Sensor: Nr:Datum:Temp:Abs-Feuchte:Windchill:Wind:
Aussen-T/F 226 03-01-2006 00:00:00 2.31597 C 4.43 g/m*3 2.32 C 0 km/h
227 04-01-2006 00:00:00 0.29583 C 3.73 g/m*3 0.3 C 0 km/h
228 05-01-2006 00:00:00 1.24306 C 3.66 g/m*3 1.24 C 0 km/h
229 06-01-2006 00:00:00 -0.25035 C 4 g/m*3 -0.25 C 0 km/h
230 07-01-2006 00:00:00 2.66181 C 4.44 g/m*3 2.66 C 0 km/h
231 08-01-2006 00:00:00 2.09653 C 3.9 g/m*3 2.1 C 0 km/h
232 09-01-2006 00:00:00 -2.41736 C 3.27 g/m*3 -2.42 C 0 km/h
233 10-01-2006 00:00:00 -1.51736 C 3.25 g/m*3 -1.52 C 0 km/h
234 11-01-2006 00:00:00 -1.95903 C 3.55 g/m*3 -1.96 C 0 km/h
235 12-01-2006 00:00:00 1.79583 C 5.01 g/m*3 1.8 C 0 km/h
236 13-01-2006 00:00:00 0.35972 C 3.83 g/m*3 0.36 C 0 km/h
237 14-01-2006 00:00:00 -3.27639 C 3.12 g/m*3 -3.28 C 0 km/h
238 15-01-2006 00:00:00 -4.27153 C 2.57 g/m*3 -4.27 C 0 km/h
239 16-01-2006 00:00:00 -4.78951 C 2.59 g/m*3 -4.79 C 0 km/h
240 17-01-2006 00:00:00 1.90278 C 4.54 g/m*3 1.9 C 0 km/h
241 18-01-2006 00:00:00 3.8125 C 5.08 g/m*3 3.81 C 0 km/h
242 19-01-2006 00:00:00 1.43403 C 4.72 g/m*3 1.43 C 0 km/h
243 20-01-2006 00:00:00 6.2375 C 6 g/m*3 6.24 C 0 km/h
244 21-01-2006 00:00:00 4.58889 C 5.24 g/m*3 4.59 C 0 km/h
245 22-01-2006 00:00:00 1.08125 C 3.94 g/m*3 1.08 C 0 km/h
246 23-01-2006 00:00:00 -5.20417 C 1.94 g/m*3 -5.2 C 0 km/h
247 24-01-2006 00:00:00 -5.83542 C 1.92 g/m*3 -5.84 C 0 km/h
248 25-01-2006 00:00:00 -3.80833 C 2.61 g/m*3 -3.81 C 0 km/h
249 26-01-2006 00:00:00 -2.11818 C 3.16 g/m*3 -2.12 C 0 km/h
250 27-01-2006 00:00:00 -5.44236 C 2.23 g/m*3 -5.44 C 0 km/h
Sensor: Nr:Datum:Temp:Abs-Feuchte:Windchill:Wind:
Aussen-T/F 251 28-01-2006 00:00:00 -6.67986 C 2.22 g/m*3 -6.68 C 0 km/h
252 29-01-2006 00:00:00 -6.29792 C 2.35 g/m*3 -6.3 C 0 km/h
253 30-01-2006 00:00:00 -5.95139 C 2.43 g/m*3 -5.95 C 0 km/h
254 31-01-2006 00:00:00 -3.30486 C 3.12 g/m*3 -3.3 C 0 km/h
255 01-02-2006 00:00:00 -5.48333 C 2.52 g/m*3 -5.48 C 0 km/h
256 02-02-2006 00:00:00 -6.16667 C 2.42 g/m*3 -6.17 C 0 km/h
257 03-02-2006 00:00:00 -3.79931 C 2.72 g/m*3 -3.8 C 0 km/h
258 04-02-2006 00:00:00 -0.85208 C 3.61 g/m*3 -0.85 C 0 km/h
259 05-02-2006 00:00:00 -0.32867 C 3.81 g/m*3 -0.33 C 0 km/h
260 06-02-2006 00:00:00 1.50903 C 4.7 g/m*3 1.51 C 0 km/h
261 07-02-2006 00:00:00 3.74861 C 4.89 g/m*3 3.75 C 0 km/h
262 08-02-2006 00:00:00 3.70208 C 4.95 g/m*3 3.7 C 0 km/h
263 09-02-2006 00:00:00 2.29722 C 4.03 g/m*3 2.3 C 0 km/h
264 10-02-2006 00:00:00 2.10979 C 4.24 g/m*3 2.11 C 0 km/h
265 11-02-2006 00:00:00 1.21458 C 4.02 g/m*3 1.21 C 0 km/h
266 12-02-2006 00:00:00 1.60694 C 3.21 g/m*3 1.61 C 0 km/h
267 13-02-2006 00:00:00 2.60764 C 2.97 g/m*3 2.61 C 0 km/h
268 14-02-2006 00:00:00 4.21597 C 4.26 g/m*3 4.22 C 0 km/h
269 15-02-2006 00:00:00 6.17832 C 5.78 g/m*3 6.18 C 0 km/h
270 16-02-2006 00:00:00 7.31736 C 6.23 g/m*3 7.32 C 0 km/h
271 17-02-2006 00:00:00 6.0625 C 5.09 g/m*3 6.06 C 0 km/h
272 18-02-2006 00:00:00 5.81389 C 5.1 g/m*3 5.81 C 0 km/h
273 19-02-2006 00:00:00 7.08472 C 4.96 g/m*3 7.08 C 0 km/h
274 20-02-2006 00:00:00 4.17917 C 5.28 g/m*3 4.18 C 0 km/h
275 21-02-2006 00:00:00 3.04444 C 5.09 g/m*3 3.04 C 0 km/h
Sensor: Nr:Datum:Temp:Abs-Feuchte:Windchill:Wind:
Aussen-T/F 276 22-02-2006 00:00:00 2.47639 C 3.64 g/m*3 2.48 C 0 km/h
277 23-02-2006 00:00:00 1.36736 C 2.72 g/m*3 1.37 C 0 km/h
278 24-02-2006 00:00:00 2.05972 C 2.88 g/m*3 2.06 C 0 km/h
279 25-02-2006 00:00:00 0.46364 C 2.5 g/m*3 0.46 C 0 km/h
280 26-02-2006 00:00:00 -1.08472 C 2.46 g/m*3 -1.08 C 0 km/h
281 27-02-2006 00:00:00 -1.57569 C 3.19 g/m*3 -1.58 C 0 km/h
282 28-02-2006 00:00:00 1.56806 C 4.03 g/m*3 1.57 C 0 km/h
283 01-03-2006 00:00:00 0.10556 C 3.05 g/m*3 0.11 C 0 km/h
284 02-03-2006 00:00:00 -0.25347 C 2.76 g/m*3 -0.25 C 0 km/h
285 03-03-2006 00:00:00 -0.44722 C 3.59 g/m*3 -0.45 C 0 km/h
286 04-03-2006 00:00:00 -0.87361 C 3.51 g/m*3 -0.87 C 0 km/h
287 05-03-2006 00:00:00 -1.41944 C 3.13 g/m*3 -1.42 C 0 km/h
288 06-03-2006 00:00:00 1.2125 C 3.34 g/m*3 1.21 C 0 km/h
289 07-03-2006 00:00:00 2.11748 C 3.25 g/m*3 2.12 C 0 km/h
290 08-03-2006 00:00:00 0.99722 C 3.99 g/m*3 1 C 0 km/h
291 09-03-2006 00:00:00 8.02431 C 6.63 g/m*3 8.02 C 0 km/h
292 10-03-2006 00:00:00 5.79931 C 4.67 g/m*3 5.8 C 0 km/h
293 11-03-2006 00:00:00 1.7 C 4.29 g/m*3 1.7 C 0 km/h
294 12-03-2006 00:00:00 -2.45556 C 1.99 g/m*3 -2.46 C 0 km/h
295 13-03-2006 00:00:00 -1.82553 C 2.07 g/m*3 -1.83 C 0 km/h
296 14-03-2006 00:00:00 -0.25972 C 2.33 g/m*3 -0.26 C 0 km/h
297 15-03-2006 00:00:00 1.33333 C 2.81 g/m*3 1.33 C 0 km/h
298 16-03-2006 00:00:00 2.07292 C 2.65 g/m*3 2.07 C 0 km/h
299 17-03-2006 00:00:00 2.75175 C 3.25 g/m*3 2.75 C 0 km/h
300 18-03-2006 00:00:00 3.75069 C 3.43 g/m*3 3.75 C 0 km/h
Sensor: Nr:Datum:Temp:Abs-Feuchte:Windchill:Wind:
Aussen-T/F 301 19-03-2006 00:00:00 4.88056 C 3.93 g/m*3 4.88 C 0 km/h
302 20-03-2006 00:00:00 4.13542 C 4.32 g/m*3 4.14 C 0 km/h
303 21-03-2006 00:00:00 3.42222 C 5.01 g/m*3 3.42 C 0 km/h
304 22-03-2006 00:00:00 4.52708 C 3.53 g/m*3 4.53 C 0 km/h
305 23-03-2006 00:00:00 4.85694 C 2.84 g/m*3 4.86 C 0 km/h
306 24-03-2006 00:00:00 5.28125 C 5.03 g/m*3 5.28 C 0 km/h
307 25-03-2006 00:00:00 12.04861 C 7.85 g/m*3 12.05 C 0 km/h
308 26-03-2006 00:00:00 15.02826 C 9.07 g/m*3 15.03 C 0 km/h
309 27-03-2006 00:00:00 14.96319 C 8.44 g/m*3 14.96 C 0 km/h
310 28-03-2006 00:00:00 11.67273 C 6.09 g/m*3 11.67 C 0 km/h
311 29-03-2006 00:00:00 9.22222 C 5.78 g/m*3 9.22 C 0 km/h
312 30-03-2006 00:00:00 11.31181 C 7.59 g/m*3 11.31 C 0 km/h
313 31-03-2006 00:00:00 12.225 C 7.78 g/m*3 12.23 C 0 km/h
314 01-04-2006 00:00:00 10.95 C 7.33 g/m*3 10.95 C 0 km/h
315 02-04-2006 00:00:00 10.30347 C 6.71 g/m*3 10.3 C 0 km/h
316 03-04-2006 00:00:00 9.04444 C 5.27 g/m*3 9.04 C 0 km/h
317 04-04-2006 00:00:00 7.89306 C 4.31 g/m*3 7.89 C 0 km/h
318 05-04-2006 00:00:00 5.38542 C 3.69 g/m*3 5.39 C 0 km/h
319 06-04-2006 00:00:00 5.62847 C 3.78 g/m*3 5.63 C 0 km/h
320 07-04-2006 00:00:00 7.78112 C 3.69 g/m*3 7.78 C 0 km/h
321 08-04-2006 00:00:00 8.88681 C 3.81 g/m*3 8.89 C 0 km/h
322 09-04-2006 00:00:00 9.54931 C 4.04 g/m*3 9.55 C 0 km/h
323 10-04-2006 00:00:00 7.99444 C 3.73 g/m*3 7.99 C 0 km/h
324 11-04-2006 00:00:00 6.56528 C 3.66 g/m*3 6.57 C 0 km/h
325 12-04-2006 00:00:00 7.39167 C 5.46 g/m*3 7.39 C 0 km/h
Sensor: Nr:Datum:Temp:Abs-Feuchte:Windchill:Wind:
Aussen-T/F 326 13-04-2006 00:00:00 7.97014 C 5.79 g/m*3 7.97 C 0 km/h
327 14-04-2006 00:00:00 11.28681 C 7.12 g/m*3 11.29 C 0 km/h
328 15-04-2006 00:00:00 12.20486 C 7.42 g/m*3 12.2 C 0 km/h
329 16-04-2006 00:00:00 12.37986 C 7.33 g/m*3 12.38 C 0 km/h
330 17-04-2006 00:00:00 11.4 C 7.54 g/m*3 11.4 C 0 km/h
331 18-04-2006 00:00:00 10.37986 C 6.23 g/m*3 10.38 C 0 km/h
332 19-04-2006 00:00:00 11.18264 C 5.43 g/m*3 11.18 C 0 km/h
333 20-04-2006 00:00:00 12.16528 C 5.8 g/m*3 12.17 C 0 km/h
334 21-04-2006 00:00:00 14.47622 C 6.36 g/m*3 14.48 C 0 km/h
335 22-04-2006 00:00:00 13.62014 C 7.04 g/m*3 13.62 C 0 km/h
336 23-04-2006 00:00:00 10.87639 C 6.01 g/m*3 10.88 C 0 km/h
337 24-04-2006 00:00:00 15.40833 C 6.53 g/m*3 15.41 C 0 km/h
338 25-04-2006 00:00:00 17.60972 C 7.26 g/m*3 17.61 C 0 km/h
339 26-04-2006 00:00:00 15.22778 C 10.04 g/m*3 15.23 C 0 km/h
340 27-04-2006 00:00:00 12.53611 C 8.58 g/m*3 12.54 C 0 km/h
341 28-04-2006 00:00:00 10.85 C 5.75 g/m*3 10.85 C 0 km/h
342 29-04-2006 00:00:00 7.53194 C 4.57 g/m*3 7.53 C 0 km/h
343 30-04-2006 00:00:00 6.51389 C 5.5 g/m*3 6.51 C 0 km/h
344 01-05-2006 00:00:00 8.32727 C 6.64 g/m*3 8.33 C 0 km/h
345 02-05-2006 00:00:00 15.08819 C 7.52 g/m*3 15.09 C 0 km/h
346 03-05-2006 00:00:00 18.44931 C 8.16 g/m*3 18.45 C 0 km/h
347 04-05-2006 00:00:00 19.40278 C 8.14 g/m*3 19.4 C 0 km/h
348 05-05-2006 00:00:00 20.21389 C 7.05 g/m*3 20.21 C 0 km/h
349 06-05-2006 00:00:00 18.90069 C 6.51 g/m*3 18.9 C 0 km/h
350 07-05-2006 00:00:00 19.45486 C 5.48 g/m*3 19.45 C 0 km/h
Sensor: Nr:Datum:Temp:Abs-Feuchte:Windchill:Wind:
Aussen-T/F 351 08-05-2006 00:00:00 18.61667 C 6.18 g/m*3 18.62 C 0 km/h
352 09-05-2006 00:00:00 18.27431 C 6.73 g/m*3 18.27 C 0 km/h
353 10-05-2006 00:00:00 18.83194 C 8.46 g/m*3 18.83 C 0 km/h
354 11-05-2006 00:00:00 19.10629 C 6.83 g/m*3 19.11 C 0 km/h
355 12-05-2006 00:00:00 18.74583 C 6.68 g/m*3 18.75 C 0 km/h
356 13-05-2006 00:00:00 16.36944 C 9.54 g/m*3 16.37 C 0 km/h
357 14-05-2006 00:00:00 15.00278 C 8.64 g/m*3 15 C 0 km/h
358 15-05-2006 00:00:00 16.62986 C 8.78 g/m*3 16.63 C 0 km/h
359 16-05-2006 00:00:00 19.50347 C 9.69 g/m*3 19.5 C 0 km/h
360 17-05-2006 00:00:00 17.91736 C 9.73 g/m*3 17.92 C 0 km/h
361 18-05-2006 00:00:00 18.00347 C 10.26 g/m*3 18 C 0 km/h
362 19-05-2006 00:00:00 14.40347 C 8.4 g/m*3 14.4 C 0 km/h
363 20-05-2006 00:00:00 12.56853 C 7.83 g/m*3 12.57 C 0 km/h
364 21-05-2006 00:00:00 15.07431 C 7.61 g/m*3 15.07 C 0 km/h
365 22-05-2006 00:00:00 15.73472 C 8.94 g/m*3 15.73 C 0 km/h
366 23-05-2006 00:00:00 12.35556 C 6.68 g/m*3 12.36 C 0 km/h
367 24-05-2006 00:00:00 10.91667 C 6.68 g/m*3 10.92 C 0 km/h
368 25-05-2006 00:00:00 11.81736 C 8.3 g/m*3 11.82 C 0 km/h
369 26-05-2006 00:00:00 13.58681 C 10.19 g/m*3 13.59 C 0 km/h
370 27-05-2006 00:00:00 16.75972 C 10.96 g/m*3 16.76 C 0 km/h
371 28-05-2006 00:00:00 16.35 C 8.5 g/m*3 16.35 C 0 km/h
372 29-05-2006 00:00:00 12.47431 C 7.16 g/m*3 12.47 C 0 km/h
373 30-05-2006 00:00:00 9.24792 C 6.53 g/m*3 9.25 C 0 km/h
374 31-05-2006 00:00:00 9.13776 C 6.51 g/m*3 9.14 C 0 km/h
375 01-06-2006 00:00:00 9.43819 C 6.58 g/m*3 9.44 C 0 km/h
Sensor: Nr:Datum:Temp:Abs-Feuchte:Windchill:Wind:
Aussen-T/F 376 02-06-2006 00:00:00 13.68056 C 6.85 g/m*3 13.68 C 0 km/h
377 03-06-2006 00:00:00 13.95278 C 7.53 g/m*3 13.95 C 0 km/h
378 04-06-2006 00:00:00 14.34514 C 6.93 g/m*3 14.35 C 0 km/h
379 05-06-2006 00:00:00 14.45764 C 6.07 g/m*3 14.46 C 0 km/h
380 06-06-2006 00:00:00 14.33472 C 6.42 g/m*3 14.33 C 0 km/h
381 07-06-2006 00:00:00 16.37431 C 7.03 g/m*3 16.37 C 0 km/h
382 08-06-2006 00:00:00 19.21736 C 7.78 g/m*3 19.22 C 0 km/h
383 09-06-2006 00:00:00 21.24306 C 8.18 g/m*3 21.24 C 0 km/h
384 10-06-2006 00:00:00 22.62098 C 8.87 g/m*3 22.62 C 0 km/h
385 11-06-2006 00:00:00 23.39653 C 8.75 g/m*3 23.4 C 0 km/h
386 12-06-2006 00:00:00 23.62431 C 8.32 g/m*3 23.62 C 0 km/h
387 13-06-2006 00:00:00 25.05625 C 9.6 g/m*3 25.06 C 0 km/h
388 14-06-2006 00:00:00 25.71667 C 10.84 g/m*3 25.72 C 0 km/h
389 15-06-2006 00:00:00 22.39653 C 13.02 g/m*3 22.4 C 0 km/h
390 16-06-2006 00:00:00 19.19792 C 9.2 g/m*3 19.2 C 0 km/h
391 17-06-2006 00:00:00 19.55139 C 8.62 g/m*3 19.55 C 0 km/h
392 18-06-2006 00:00:00 22.94931 C 11.05 g/m*3 22.95 C 0 km/h
393 19-06-2006 00:00:00 22.18819 C 13.64 g/m*3 22.19 C 0 km/h
394 20-06-2006 00:00:00 22.95524 C 12.6 g/m*3 22.96 C 0 km/h
395 21-06-2006 00:00:00 22.61597 C 10.2 g/m*3 22.62 C 0 km/h
396 22-06-2006 00:00:00 18.87222 C 7.76 g/m*3 18.87 C 0 km/h
397 23-06-2006 00:00:00 18.88681 C 7.57 g/m*3 18.89 C 0 km/h
398 24-06-2006 00:00:00 22.39792 C 8.91 g/m*3 22.4 C 0 km/h
399 25-06-2006 00:00:00 23.4375 C 12.58 g/m*3 23.44 C 0 km/h
400 26-06-2006 00:00:00 21.99097 C 12.21 g/m*3 21.99 C 0 km/h
Sensor: Nr:Datum:Temp:Abs-Feuchte:Windchill:Wind:
Aussen-T/F 401 27-06-2006 00:00:00 19.64028 C 11.66 g/m*3 19.64 C 0 km/h
402 28-06-2006 00:00:00 21.16111 C 10.45 g/m*3 21.16 C 0 km/h
403 29-06-2006 00:00:00 21.06319 C 11.36 g/m*3 21.06 C 0 km/h
404 30-06-2006 00:00:00 23.44545 C 11.46 g/m*3 23.45 C 0 km/h
405 01-07-2006 00:00:00 24.6875 C 10.22 g/m*3 24.69 C 0 km/h
406 02-07-2006 00:00:00 25.27986 C 9.46 g/m*3 25.28 C 0 km/h
407 03-07-2006 00:00:00 25.22083 C 8.68 g/m*3 25.22 C 0 km/h
408 04-07-2006 00:00:00 26.70278 C 10.21 g/m*3 26.7 C 0 km/h
409 05-07-2006 00:00:00 26.28681 C 12.37 g/m*3 26.29 C 0 km/h
410 06-07-2006 00:00:00 24.85278 C 12.2 g/m*3 24.85 C 0 km/h
411 07-07-2006 00:00:00 22.81528 C 12.32 g/m*3 22.82 C 0 km/h
412 08-07-2006 00:00:00 22.68958 C 13.01 g/m*3 22.69 C 0 km/h
413 09-07-2006 00:00:00 23.57778 C 11.52 g/m*3 23.58 C 0 km/h
414 10-07-2006 00:00:00 25.03147 C 10.68 g/m*3 25.03 C 0 km/h
415 11-07-2006 00:00:00 23.91181 C 13.08 g/m*3 23.91 C 0 km/h
416 12-07-2006 00:00:00 25.55625 C 13.47 g/m*3 25.56 C 0 km/h
417 13-07-2006 00:00:00 26.02986 C 13.12 g/m*3 26.03 C 0 km/h
418 14-07-2006 00:00:00 24.71389 C 8.97 g/m*3 24.71 C 0 km/h
419 15-07-2006 00:00:00 23.42431 C 7.65 g/m*3 23.42 C 0 km/h
420 16-07-2006 00:00:00 24.37639 C 8.1 g/m*3 24.38 C 0 km/h
421 17-07-2006 00:00:00 25.54792 C 7.82 g/m*3 25.55 C 0 km/h
422 18-07-2006 00:00:00 26.24722 C 8.99 g/m*3 26.25 C 0 km/h
423 19-07-2006 00:00:00 27.43125 C 9.1 g/m*3 27.43 C 0 km/h
424 20-07-2006 00:00:00 28.02797 C 9.35 g/m*3 28.03 C 0 km/h
425 21-07-2006 00:00:00 28.09306 C 11.49 g/m*3 28.09 C 0 km/h
Sensor: Nr:Datum:Temp:Abs-Feuchte:Windchill:Wind:
Aussen-T/F 426 22-07-2006 00:00:00 24.58125 C 12.7 g/m*3 24.58 C 0 km/h
427 23-07-2006 00:00:00 26.09375 C 13.17 g/m*3 26.09 C 0 km/h
428 24-07-2006 00:00:00 27.19236 C 11.15 g/m*3 27.19 C 0 km/h
429 25-07-2006 00:00:00 28.08194 C 10.78 g/m*3 28.08 C 0 km/h
430 26-07-2006 00:00:00 28.25208 C 11.87 g/m*3 28.25 C 0 km/h
431 27-07-2006 00:00:00 25.83403 C 14.1 g/m*3 25.83 C 0 km/h
432 28-07-2006 00:00:00 22.68264 C 14.34 g/m*3 22.68 C 0 km/h
433 29-07-2006 00:00:00 24.07431 C 13.52 g/m*3 24.07 C 0 km/h
434 30-07-2006 00:00:00 24.48392 C 12.14 g/m*3 24.48 C 0 km/h
435 31-07-2006 00:00:00 23.2375 C 10.23 g/m*3 23.24 C 0 km/h
436 01-08-2006 00:00:00 20.05625 C 10.27 g/m*3 20.06 C 0 km/h
437 02-08-2006 00:00:00 16.51667 C 9.93 g/m*3 16.52 C 0 km/h
438 03-08-2006 00:00:00 15.56111 C 9.83 g/m*3 15.56 C 0 km/h
439 04-08-2006 00:00:00 19.03056 C 10.44 g/m*3 19.03 C 0 km/h
440 05-08-2006 00:00:00 20.59514 C 10.71 g/m*3 20.6 C 0 km/h
441 06-08-2006 00:00:00 21.40694 C 10.86 g/m*3 21.41 C 0 km/h
442 07-08-2006 00:00:00 21.93056 C 10.07 g/m*3 21.93 C 0 km/h
443 08-08-2006 00:00:00 19.79583 C 9.89 g/m*3 19.8 C 0 km/h
444 09-08-2006 00:00:00 19.08322 C 9.32 g/m*3 19.08 C 0 km/h
445 10-08-2006 00:00:00 15.04792 C 9.68 g/m*3 15.05 C 0 km/h
446 11-08-2006 00:00:00 14.23611 C 9.74 g/m*3 14.24 C 0 km/h
447 12-08-2006 00:00:00 15.08958 C 8.69 g/m*3 15.09 C 0 km/h
448 13-08-2006 00:00:00 14.64514 C 9.18 g/m*3 14.65 C 0 km/h
449 14-08-2006 00:00:00 14.16319 C 9.66 g/m*3 14.16 C 0 km/h
450 15-08-2006 00:00:00 17.63333 C 10.27 g/m*3 17.63 C 0 km/h
Sensor: Nr:Datum:Temp:Abs-Feuchte:Windchill:Wind:
Aussen-T/F 451 16-08-2006 00:00:00 17.65 C 10.87 g/m*3 17.65 C 0 km/h
452 17-08-2006 00:00:00 20.9 C 11.79 g/m*3 20.9 C 0 km/h
453 18-08-2006 00:00:00 19.10208 C 11.74 g/m*3 19.1 C 0 km/h
454 19-08-2006 00:00:00 18.77343 C 11.44 g/m*3 18.77 C 0 km/h
455 20-08-2006 00:00:00 18.10972 C 10.83 g/m*3 18.11 C 0 km/h
456 21-08-2006 00:00:00 16.97292 C 10.27 g/m*3 16.97 C 0 km/h
457 22-08-2006 00:00:00 16.96389 C 10.28 g/m*3 16.96 C 0 km/h
458 23-08-2006 00:00:00 17.71319 C 10.25 g/m*3 17.71 C 0 km/h
459 24-08-2006 00:00:00 16.95139 C 10.55 g/m*3 16.95 C 0 km/h
460 25-08-2006 00:00:00 16.57778 C 11 g/m*3 16.58 C 0 km/h
461 26-08-2006 00:00:00 16.86528 C 10.55 g/m*3 16.87 C 0 km/h
462 27-08-2006 00:00:00 15.83681 C 10.94 g/m*3 15.84 C 0 km/h
463 28-08-2006 00:00:00 13.83264 C 9.97 g/m*3 13.83 C 0 km/h
464 29-08-2006 00:00:00 12.56713 C 8.65 g/m*3 12.57 C 0 km/h
465 30-08-2006 00:00:00 13.16111 C 9.07 g/m*3 13.16 C 0 km/h
466 31-08-2006 00:00:00 15.10417 C 8.8 g/m*3 15.1 C 0 km/h
467 01-09-2006 00:00:00 20.10139 C 9.87 g/m*3 20.1 C 0 km/h
468 02-09-2006 00:00:00 20.75 C 11 g/m*3 20.75 C 0 km/h
469 03-09-2006 00:00:00 21.75069 C 12.12 g/m*3 21.75 C 0 km/h
470 04-09-2006 00:00:00 22.06389 C 10.38 g/m*3 22.06 C 0 km/h
471 05-09-2006 00:00:00 19.96458 C 11.3 g/m*3 19.96 C 0 km/h
472 06-09-2006 00:00:00 21.68819 C 12.31 g/m*3 21.69 C 0 km/h
473 07-09-2006 00:00:00 19.05694 C 11.44 g/m*3 19.06 C 0 km/h
474 08-09-2006 00:00:00 16.55874 C 8.04 g/m*3 16.56 C 0 km/h
475 09-09-2006 00:00:00 16.56458 C 8.18 g/m*3 16.56 C 0 km/h
Sensor: Nr:Datum:Temp:Abs-Feuchte:Windchill:Wind:
Aussen-T/F 476 10-09-2006 00:00:00 18.675 C 9.16 g/m*3 18.68 C 0 km/h
477 11-09-2006 00:00:00 20.64722 C 11.18 g/m*3 20.65 C 0 km/h
478 12-09-2006 00:00:00 22.28889 C 12.16 g/m*3 22.29 C 0 km/h
479 13-09-2006 00:00:00 22.18819 C 11.95 g/m*3 22.19 C 0 km/h
480 14-09-2006 00:00:00 21.21806 C 11.23 g/m*3 21.22 C 0 km/h
481 15-09-2006 00:00:00 21.27273 C 10.28 g/m*3 21.27 C 0 km/h
482 16-09-2006 00:00:00 21.06759 C 11.67 g/m*3 21.07 C 0 km/h
483 17-09-2006 00:00:00 18.62986 C 12.65 g/m*3 18.63 C 0 km/h
484 18-09-2006 00:00:00 17.15903 C 12.29 g/m*3 17.16 C 0 km/h
485 19-09-2006 00:00:00 16.75278 C 10.65 g/m*3 16.75 C 0 km/h
486 20-09-2006 00:00:00 16.65139 C 9.61 g/m*3 16.65 C 0 km/h
487 21-09-2006 00:00:00 18.26806 C 10.43 g/m*3 18.27 C 0 km/h
488 22-09-2006 00:00:00 20.87413 C 10.57 g/m*3 20.87 C 0 km/h
489 23-09-2006 00:00:00 20.17361 C 11.42 g/m*3 20.17 C 0 km/h
490 24-09-2006 00:00:00 21.00903 C 11.38 g/m*3 21.01 C 0 km/h
491 25-09-2006 00:00:00 18.50486 C 11.18 g/m*3 18.5 C 0 km/h
492 26-09-2006 00:00:00 17.03056 C 11.32 g/m*3 17.03 C 0 km/h
493 27-09-2006 00:00:00 17.04444 C 10.2 g/m*3 17.04 C 0 km/h
494 28-09-2006 00:00:00 16.01042 C 9.81 g/m*3 16.01 C 0 km/h
495 29-09-2006 00:00:00 17.325 C 10.7 g/m*3 17.33 C 0 km/h
496 30-09-2006 00:00:00 17.09583 C 10.68 g/m*3 17.1 C 0 km/h
497 01-10-2006 00:00:00 17.24406 C 11.46 g/m*3 17.24 C 0 km/h
498 02-10-2006 00:00:00 15.91042 C 9.59 g/m*3 15.91 C 0 km/h
499 03-10-2006 00:00:00 13.2126 C 10.47 g/m*3 13.21 C 0 km/h
500 04-10-2006 00:00:00 13.01961 C 8.62 g/m*3 13.02 C 0 km/h
Sensor: Nr:Datum:Temp:Abs-Feuchte:Windchill:Wind:
Aussen-T/F 501 05-10-2006 00:00:00 12.97647 C 7.92 g/m*3 12.98 C 0 km/h
502 06-10-2006 00:00:00 15.82353 C 9.57 g/m*3 15.82 C 0 km/h
503 07-10-2006 00:00:00 14.25769 C 8.26 g/m*3 14.26 C 0 km/h
504 08-10-2006 00:00:00 11.08235 C 7.49 g/m*3 11.08 C 0 km/h
505 09-10-2006 00:00:00 12.00192 C 8.16 g/m*3 12 C 0 km/h
506 10-10-2006 00:00:00 15.38824 C 9.83 g/m*3 15.39 C 0 km/h
507 11-10-2006 00:00:00 14.37885 C 9.66 g/m*3 14.38 C 0 km/h
508 12-10-2006 00:00:00 15.54118 C 10.53 g/m*3 15.54 C 0 km/h
509 13-10-2006 00:00:00 16.11765 C 11.21 g/m*3 16.12 C 0 km/h
510 14-10-2006 00:00:00 14.12115 C 9.1 g/m*3 14.12 C 0 km/h
511 15-10-2006 00:00:00 12.41569 C 8.17 g/m*3 12.42 C 0 km/h
512 16-10-2006 00:00:00 9.56154 C 7.1 g/m*3 9.56 C 0 km/h
513 17-10-2006 00:00:00 9.22745 C 7.11 g/m*3 9.23 C 0 km/h
514 18-10-2006 00:00:00 11.90769 C 8.05 g/m*3 11.91 C 0 km/h
515 19-10-2006 00:00:00 13.41961 C 9.54 g/m*3 13.42 C 0 km/h
516 20-10-2006 00:00:00 15.83725 C 9.91 g/m*3 15.84 C 0 km/h
517 21-10-2006 00:00:00 14.08553 C 10.16 g/m*3 14.09 C 0 km/h
518 22-10-2006 00:00:00 15.405 C 9.54 g/m*3 15.41 C 0 km/h
519 23-10-2006 00:00:00 17.22 C 11.01 g/m*3 17.22 C 0 km/h
520 24-10-2006 00:00:00 14.19167 C 9.57 g/m*3 14.19 C 0 km/h
521 25-10-2006 00:00:00 12.59167 C 8.45 g/m*3 12.59 C 0 km/h
522 26-10-2006 00:00:00 16.50583 C 9.43 g/m*3 16.51 C 0 km/h
523 27-10-2006 00:00:00 17.075 C 10.44 g/m*3 17.08 C 0 km/h
524 28-10-2006 00:00:00 15.02083 C 10.11 g/m*3 15.02 C 0 km/h
525 29-10-2006 00:00:00 15.9896 C 8.79 g/m*3 15.99 C 0 km/h
Sensor: Nr:Datum:Temp:Abs-Feuchte:Windchill:Wind:
Aussen-T/F 526 30-10-2006 00:00:00 12.1575 C 7.78 g/m*3 12.16 C 0 km/h
527 31-10-2006 00:00:00 10.23529 C 7.15 g/m*3 10.24 C 0 km/h
528 01-11-2006 00:00:00 7.77167 C 4.9 g/m*3 7.77 C 0 km/h
529 02-11-2006 00:00:00 3.03 C 5.06 g/m*3 3.03 C 0 km/h
530 03-11-2006 00:00:00 5.84333 C 5.93 g/m*3 5.84 C 0 km/h
531 04-11-2006 00:00:00 8.15833 C 6.41 g/m*3 8.16 C 0 km/h
532 05-11-2006 00:00:00 9.14833 C 6.17 g/m*3 9.15 C 0 km/h
533 06-11-2006 00:00:00 9.06833 C 6.39 g/m*3 9.07 C 0 km/h
534 07-11-2006 00:00:00 7.04083 C 6.11 g/m*3 7.04 C 0 km/h
535 08-11-2006 00:00:00 7.96417 C 6.49 g/m*3 7.96 C 0 km/h
536 09-11-2006 00:00:00 9.81917 C 6.62 g/m*3 9.82 C 0 km/h
537 10-11-2006 00:00:00 5.04917 C 5.59 g/m*3 5.05 C 0 km/h
538 11-11-2006 00:00:00 6.26667 C 6.03 g/m*3 6.27 C 0 km/h
539 12-11-2006 00:00:00 7.62353 C 5.75 g/m*3 7.62 C 0 km/h
540 13-11-2006 00:00:00 8.9025 C 7.09 g/m*3 8.9 C 0 km/h
541 14-11-2006 00:00:00 12.84083 C 9.06 g/m*3 12.84 C 0 km/h
542 15-11-2006 00:00:00 12.90167 C 8.11 g/m*3 12.9 C 0 km/h
543 16-11-2006 00:00:00 13.12 C 7.88 g/m*3 13.12 C 0 km/h
544 17-11-2006 00:00:00 12.54333 C 8.13 g/m*3 12.54 C 0 km/h
545 18-11-2006 00:00:00 9.73917 C 6.92 g/m*3 9.74 C 0 km/h
546 19-11-2006 00:00:00 7.74083 C 7.39 g/m*3 7.74 C 0 km/h
547 20-11-2006 00:00:00 6.5725 C 5.52 g/m*3 6.57 C 0 km/h
548 21-11-2006 00:00:00 8.63583 C 6.49 g/m*3 8.64 C 0 km/h
549 22-11-2006 00:00:00 6.01833 C 5.31 g/m*3 6.02 C 0 km/h
550 23-11-2006 00:00:00 9.36083 C 7.72 g/m*3 9.36 C 0 km/h
Sensor: Nr:Datum:Temp:Abs-Feuchte:Windchill:Wind:
Aussen-T/F 551 24-11-2006 00:00:00 10.1775 C 8.17 g/m*3 10.18 C 0 km/h
552 25-11-2006 00:00:00 14.79583 C 7.59 g/m*3 14.8 C 0 km/h
553 26-11-2006 00:00:00 10.72917 C 7.46 g/m*3 10.73 C 0 km/h
554 27-11-2006 00:00:00 8.08083 C 7.39 g/m*3 8.08 C 0 km/h
555 28-11-2006 00:00:00 7.2775 C 6.92 g/m*3 7.28 C 0 km/h
556 29-11-2006 00:00:00 7.40583 C 7.46 g/m*3 7.41 C 0 km/h
557 30-11-2006 00:00:00 6.29167 C 6.41 g/m*3 6.29 C 0 km/h
558 01-12-2006 00:00:00 5.935 C 6.4 g/m*3 5.94 C 0 km/h
559 02-12-2006 00:00:00 4.37083 C 6.16 g/m*3 4.37 C 0 km/h
560 03-12-2006 00:00:00 10.00583 C 6.96 g/m*3 10.01 C 0 km/h
561 04-12-2006 00:00:00 10.05042 C 6.32 g/m*3 10.05 C 0 km/h
562 05-12-2006 00:00:00 14.25917 C 7.5 g/m*3 14.26 C 0 km/h
563 06-12-2006 00:00:00 10.42667 C 6.11 g/m*3 10.43 C 0 km/h
564 07-12-2006 00:00:00 8.7025 C 5.3 g/m*3 8.7 C 0 km/h
565 08-12-2006 00:00:00 10.0975 C 6.14 g/m*3 10.1 C 0 km/h
566 09-12-2006 00:00:00 7.6075 C 4.91 g/m*3 7.61 C 0 km/h
567 10-12-2006 00:00:00 5.27833 C 4.83 g/m*3 5.28 C 0 km/h
568 11-12-2006 00:00:00 5.05583 C 4.74 g/m*3 5.06 C 0 km/h
569 12-12-2006 00:00:00 6.37333 C 5.29 g/m*3 6.37 C 0 km/h
570 13-12-2006 00:00:00 6.9775 C 5.44 g/m*3 6.98 C 0 km/h
571 14-12-2006 00:00:00 7.83083 C 5.4 g/m*3 7.83 C 0 km/h
572 15-12-2006 00:00:00 3.2075 C 4.68 g/m*3 3.21 C 0 km/h
573 16-12-2006 00:00:00 4.14333 C 5.23 g/m*3 4.14 C 0 km/h
574 17-12-2006 00:00:00 3.69333 C 5.01 g/m*3 3.69 C 0 km/h
575 18-12-2006 00:00:00 3.37917 C 5.38 g/m*3 3.38 C 0 km/h
Sensor: Nr:Datum:Temp:Abs-Feuchte:Windchill:Wind:
Aussen-T/F 576 19-12-2006 00:00:00 3.70083 C 4.15 g/m*3 3.7 C 0 km/h
577 20-12-2006 00:00:00 2.3425 C 4.1 g/m*3 2.34 C 0 km/h
578 21-12-2006 00:00:00 4.7375 C 5.27 g/m*3 4.74 C 0 km/h
579 22-12-2006 00:00:00 1.65 C 4.63 g/m*3 1.65 C 0 km/h
580 23-12-2006 00:00:00 3.19244 C 4.47 g/m*3 3.19 C 0 km/h
581 24-12-2006 00:00:00 0.1725 C 4.3 g/m*3 0.17 C 0 km/h
582 25-12-2006 00:00:00 0.51583 C 4.15 g/m*3 0.52 C 0 km/h
583 26-12-2006 00:00:00 0.8425 C 3.93 g/m*3 0.84 C 0 km/h
584 27-12-2006 00:00:00 -1.28667 C 3.48 g/m*3 -1.29 C 0 km/h
585 28-12-2006 00:00:00 0.405 C 3.88 g/m*3 0.41 C 0 km/h
586 29-12-2006 00:00:00 1.22333 C 4.59 g/m*3 1.22 C 0 km/h
587 30-12-2006 00:00:00 3.5575 C 5.12 g/m*3 3.56 C 0 km/h
588 31-12-2006 00:00:00 10.37107 C 5.17 g/m*3 10.37 C 0 km/h
589 01-01-2007 00:00:00 7.99664 C 5.44 g/m*3 8 C 0 km/h
590 02-01-2007 00:00:00 4.33083 C 4.79 g/m*3 4.33 C 0 km/h
591 03-01-2007 00:00:00 5.63417 C 5.28 g/m*3 5.63 C 0 km/h
592 04-01-2007 00:00:00 7.7525 C 5.33 g/m*3 7.75 C 0 km/h
593 05-01-2007 00:00:00 8.08667 C 5.69 g/m*3 8.09 C 0 km/h
594 06-01-2007 00:00:00 10.50333 C 7.18 g/m*3 10.5 C 0 km/h
595 07-01-2007 00:00:00 8.5725 C 5.21 g/m*3 8.57 C 0 km/h
596 08-01-2007 00:00:00 9.32667 C 5.75 g/m*3 9.33 C 0 km/h
597 09-01-2007 00:00:00 13.04333 C 7.07 g/m*3 13.04 C 0 km/h
598 10-01-2007 00:00:00 11.54333 C 5.64 g/m*3 11.54 C 0 km/h
599 11-01-2007 00:00:00 7.61933 C 4.64 g/m*3 7.62 C 0 km/h
600 12-01-2007 00:00:00 9.0325 C 4.92 g/m*3 9.03 C 0 km/h
Sensor: Nr:Datum:Temp:Abs-Feuchte:Windchill:Wind:
Aussen-T/F 601 13-01-2007 00:00:00 11.8175 C 6.14 g/m*3 11.82 C 0 km/h
602 14-01-2007 00:00:00 7.55833 C 4.65 g/m*3 7.56 C 0 km/h
603 15-01-2007 00:00:00 0.8725 C 4.34 g/m*3 0.87 C 0 km/h
604 16-01-2007 00:00:00 5.06583 C 4.9 g/m*3 5.07 C 0 km/h
605 17-01-2007 00:00:00 10.18333 C 6.05 g/m*3 10.18 C 0 km/h
606 18-01-2007 00:00:00 12.41833 C 7.26 g/m*3 12.42 C 0 km/h
607 19-01-2007 00:00:00 10.36667 C 6.21 g/m*3 10.37 C 0 km/h
608 20-01-2007 00:00:00 11.68917 C 6.43 g/m*3 11.69 C 0 km/h
609 21-01-2007 00:00:00 6.88167 C 3.9 g/m*3 6.88 C 0 km/h
610 22-01-2007 00:00:00 4.26167 C 3.78 g/m*3 4.26 C 0 km/h
611 23-01-2007 00:00:00 -1.075 C 1.21 g/m*3 -1.08 C 0 km/h
612 24-01-2007 00:00:00 -2.97 C 1.85 g/m*3 -2.97 C 0 km/h
613 25-01-2007 00:00:00 -3.4825 C 2.25 g/m*3 -3.48 C 0 km/h
614 26-01-2007 00:00:00 -3.23083 C 2.24 g/m*3 -3.23 C 0 km/h
615 27-01-2007 00:00:00 2.77 C 3.92 g/m*3 2.77 C 0 km/h
616 28-01-2007 00:00:00 4.49917 C 4.21 g/m*3 4.5 C 0 km/h
617 29-01-2007 00:00:00 7.0175 C 5.25 g/m*3 7.02 C 0 km/h
618 30-01-2007 00:00:00 6.84917 C 5.2 g/m*3 6.85 C 0 km/h
619 31-01-2007 00:00:00 6.82583 C 4.18 g/m*3 6.83 C 0 km/h
620 01-02-2007 00:00:00 7.76667 C 5.68 g/m*3 7.77 C 0 km/h
621 02-02-2007 00:00:00 8.26583 C 6.84 g/m*3 8.27 C 0 km/h
622 03-02-2007 00:00:00 6.285 C 4.67 g/m*3 6.29 C 0 km/h
623 04-02-2007 00:00:00 5.90667 C 4.74 g/m*3 5.91 C 0 km/h
624 05-02-2007 00:00:00 2.19664 C 4.27 g/m*3 2.2 C 0 km/h
625 06-02-2007 00:00:00 3.33417 C 4.06 g/m*3 3.33 C 0 km/h
Sensor: Nr:Datum:Temp:Abs-Feuchte:Windchill:Wind:
Aussen-T/F 626 07-02-2007 00:00:00 1.63417 C 4.12 g/m*3 1.63 C 0 km/h
627 08-02-2007 00:00:00 2.62167 C 4.23 g/m*3 2.62 C 0 km/h
628 09-02-2007 00:00:00 5.79167 C 3.84 g/m*3 5.79 C 0 km/h
629 10-02-2007 00:00:00 5.48667 C 5.34 g/m*3 5.49 C 0 km/h
630 11-02-2007 00:00:00 7.70667 C 5.71 g/m*3 7.71 C 0 km/h
631 12-02-2007 00:00:00 8.33083 C 5.62 g/m*3 8.33 C 0 km/h
632 13-02-2007 00:00:00 7.8175 C 4.79 g/m*3 7.82 C 0 km/h
633 14-02-2007 00:00:00 5.82083 C 5.14 g/m*3 5.82 C 0 km/h
634 15-02-2007 00:00:00 7.37917 C 4.4 g/m*3 7.38 C 0 km/h
635 16-02-2007 00:00:00 4.61583 C 4.23 g/m*3 4.62 C 0 km/h
636 17-02-2007 00:00:00 4.92083 C 3.9 g/m*3 4.92 C 0 km/h
637 18-02-2007 00:00:00 3.4775 C 4.32 g/m*3 3.48 C 0 km/h
638 19-02-2007 00:00:00 5.4675 C 4.34 g/m*3 5.47 C 0 km/h
639 20-02-2007 00:00:00 7.09583 C 4.63 g/m*3 7.1 C 0 km/h
640 21-02-2007 00:00:00 5.63083 C 4.98 g/m*3 5.63 C 0 km/h
641 22-02-2007 00:00:00 7.10583 C 5.19 g/m*3 7.11 C 0 km/h
642 23-02-2007 00:00:00 9.02333 C 5.53 g/m*3 9.02 C 0 km/h
643 24-02-2007 00:00:00 8.47917 C 6.6 g/m*3 8.48 C 0 km/h
644 25-02-2007 00:00:00 7.975 C 5.55 g/m*3 7.98 C 0 km/h
645 26-02-2007 00:00:00 6.53667 C 5.43 g/m*3 6.54 C 0 km/h
646 27-02-2007 00:00:00 6.38333 C 4.96 g/m*3 6.38 C 0 km/h
647 28-02-2007 00:00:00 10.44667 C 5.35 g/m*3 10.45 C 0 km/h
648 01-03-2007 00:00:00 9.04667 C 5.11 g/m*3 9.05 C 0 km/h
649 02-03-2007 00:00:00 6.77917 C 3.71 g/m*3 6.78 C 0 km/h
650 03-03-2007 00:00:00 6.66639 C 4.88 g/m*3 6.67 C 0 km/h
Sensor: Nr:Datum:Temp:Abs-Feuchte:Windchill:Wind:
Aussen-T/F 651 04-03-2007 00:00:00 7.69833 C 4.83 g/m*3 7.7 C 0 km/h
652 05-03-2007 00:00:00 10.24667 C 4.19 g/m*3 10.25 C 0 km/h
653 06-03-2007 00:00:00 9.76083 C 4.14 g/m*3 9.76 C 0 km/h
654 07-03-2007 00:00:00 9.16417 C 4.96 g/m*3 9.16 C 0 km/h
655 08-03-2007 00:00:00 7.035 C 4.54 g/m*3 7.04 C 0 km/h
656 09-03-2007 00:00:00 6.3175 C 4.84 g/m*3 6.32 C 0 km/h
657 10-03-2007 00:00:00 7.155 C 4.37 g/m*3 7.16 C 0 km/h
658 11-03-2007 00:00:00 7.3175 C 4.45 g/m*3 7.32 C 0 km/h
659 12-03-2007 00:00:00 8.52833 C 4.75 g/m*3 8.53 C 0 km/h
660 13-03-2007 00:00:00 9.0475 C 5.4 g/m*3 9.05 C 0 km/h
661 14-03-2007 00:00:00 10.57395 C 5.78 g/m*3 10.57 C 0 km/h
662 15-03-2007 00:00:00 8.44333 C 5.18 g/m*3 8.44 C 0 km/h
663 16-03-2007 00:00:00 7.8175 C 5.18 g/m*3 7.82 C 0 km/h
664 17-03-2007 00:00:00 8.70833 C 6.38 g/m*3 8.71 C 0 km/h
665 18-03-2007 00:00:00 7.715 C 5.51 g/m*3 7.72 C 0 km/h
666 19-03-2007 00:00:00 4.56333 C 4 g/m*3 4.56 C 0 km/h
667 20-03-2007 00:00:00 4.1325 C 4.47 g/m*3 4.13 C 0 km/h
668 21-03-2007 00:00:00 4.47417 C 4.53 g/m*3 4.47 C 0 km/h
669 22-03-2007 00:00:00 2.25667 C 5.17 g/m*3 2.26 C 0 km/h
670 23-03-2007 00:00:00 3.37333 C 5.31 g/m*3 3.37 C 0 km/h
671 24-03-2007 00:00:00 5.37333 C 6.27 g/m*3 5.37 C 0 km/h
672 25-03-2007 00:00:00 8.58101 C 5.72 g/m*3 8.58 C 0 km/h
673 26-03-2007 00:00:00 14.9957 C 4.93 g/m*3 15 C 0 km/h
674 27-03-2007 00:00:00 11.65 C 4.69 g/m*3 11.65 C 0 km/h
675 28-03-2007 00:00:00 11.65313 C 4.21 g/m*3 11.65 C 0 km/h
Sensor: Nr:Datum:Temp:Abs-Feuchte:Windchill:Wind:
Aussen-T/F 676 29-03-2007 00:00:00 9.75 C 5.52 g/m*3 9.75 C 0 km/h
677 30-03-2007 00:00:00 10.73785 C 6.65 g/m*3 10.74 C 0 km/h
678 31-03-2007 00:00:00 10.49618 C 6.1 g/m*3 10.5 C 0 km/h
679 01-04-2007 00:00:00 13.71707 C 4.51 g/m*3 13.72 C 0 km/h
680 02-04-2007 00:00:00 13.59583 C 4.59 g/m*3 13.6 C 0 km/h
681 03-04-2007 00:00:00 8.94861 C 4.81 g/m*3 8.95 C 0 km/h
682 04-04-2007 00:00:00 9.66076 C 3.85 g/m*3 9.66 C 0 km/h
683 05-04-2007 00:00:00 8.81528 C 4.24 g/m*3 8.82 C 0 km/h
684 06-04-2007 00:00:00 12.12431 C 6.2 g/m*3 12.12 C 0 km/h
685 07-04-2007 00:00:00 9.61533 C 5.4 g/m*3 9.62 C 0 km/h
686 08-04-2007 00:00:00 9.79306 C 5.37 g/m*3 9.79 C 0 km/h
687 09-04-2007 00:00:00 11.52465 C 5.47 g/m*3 11.52 C 0 km/h
688 10-04-2007 00:00:00 11.94688 C 6.26 g/m*3 11.95 C 0 km/h
689 11-04-2007 00:00:00 10.93697 C 6.87 g/m*3 10.94 C 0 km/h
690 12-04-2007 00:00:00 16.75 C 7.24 g/m*3 16.75 C 0 km/h
691 13-04-2007 00:00:00 19.17708 C 8 g/m*3 19.18 C 0 km/h
692 14-04-2007 00:00:00 21.16042 C 7.77 g/m*3 21.16 C 0 km/h
693 15-04-2007 00:00:00 20.80833 C 7.27 g/m*3 20.81 C 0 km/h
694 16-04-2007 00:00:00 19.4375 C 6.62 g/m*3 19.44 C 0 km/h
695 17-04-2007 00:00:00 14.74271 C 6.57 g/m*3 14.74 C 0 km/h
696 18-04-2007 00:00:00 11.07188 C 4.76 g/m*3 11.07 C 0 km/h
697 19-04-2007 00:00:00 11.67188 C 5.25 g/m*3 11.67 C 0 km/h
698 20-04-2007 00:00:00 12.26458 C 4.91 g/m*3 12.26 C 0 km/h
699 21-04-2007 00:00:00 11.89271 C 4.5 g/m*3 11.89 C 0 km/h
700 22-04-2007 00:00:00 15.65729 C 5.54 g/m*3 15.66 C 0 km/h
Sensor: Nr:Datum:Temp:Abs-Feuchte:Windchill:Wind:
Aussen-T/F 701 23-04-2007 00:00:00 17.48021 C 6.48 g/m*3 17.48 C 0 km/h
702 24-04-2007 00:00:00 20.85102 C 8.12 g/m*3 20.85 C 0 km/h
703 25-04-2007 00:00:00 22.135 C 8.68 g/m*3 22.14 C 0 km/h
704 26-04-2007 00:00:00 21.16 C 7.81 g/m*3 21.16 C 0 km/h
705 27-04-2007 00:00:00 20.46303 C 7.42 g/m*3 20.46 C 0 km/h
706 28-04-2007 00:00:00 20.92083 C 7.71 g/m*3 20.92 C 0 km/h
707 29-04-2007 00:00:00 19.75583 C 7.1 g/m*3 19.76 C 0 km/h
708 30-04-2007 00:00:00 16.78917 C 4.21 g/m*3 16.79 C 0 km/h
709 01-05-2007 00:00:00 16.47083 C 4.66 g/m*3 16.47 C 0 km/h
710 02-05-2007 00:00:00 16.09167 C 3.81 g/m*3 16.09 C 0 km/h
711 03-05-2007 00:00:00 17.355 C 5.15 g/m*3 17.36 C 0 km/h
712 04-05-2007 00:00:00 18.835 C 5.97 g/m*3 18.84 C 0 km/h
713 05-05-2007 00:00:00 17.5975 C 6.18 g/m*3 17.6 C 0 km/h
714 06-05-2007 00:00:00 16.51167 C 7.41 g/m*3 16.51 C 0 km/h
715 07-05-2007 00:00:00 15.5625 C 8.64 g/m*3 15.56 C 0 km/h
716 08-05-2007 00:00:00 14.1825 C 7.73 g/m*3 14.18 C 0 km/h
717 09-05-2007 00:00:00 12.76917 C 8.87 g/m*3 12.77 C 0 km/h
718 10-05-2007 00:00:00 17.70667 C 8.53 g/m*3 17.71 C 0 km/h
719 11-05-2007 00:00:00 15.535 C 6.56 g/m*3 15.54 C 0 km/h
720 12-05-2007 00:00:00 15.02689 C 7.96 g/m*3 15.03 C 0 km/h
721 13-05-2007 00:00:00 17.04333 C 8.98 g/m*3 17.04 C 0 km/h
722 14-05-2007 00:00:00 15.98917 C 7.81 g/m*3 15.99 C 0 km/h
723 15-05-2007 00:00:00 13.36917 C 7.46 g/m*3 13.37 C 0 km/h
724 16-05-2007 00:00:00 12.17917 C 7.6 g/m*3 12.18 C 0 km/h
725 17-05-2007 00:00:00 10.8525 C 7.97 g/m*3 10.85 C 0 km/h
Sensor: Nr:Datum:Temp:Abs-Feuchte:Windchill:Wind:
Aussen-T/F 726 18-05-2007 00:00:00 14.6325 C 8.23 g/m*3 14.63 C 0 km/h
727 19-05-2007 00:00:00 18.53583 C 10.39 g/m*3 18.54 C 0 km/h
728 20-05-2007 00:00:00 21.92667 C 9.73 g/m*3 21.93 C 0 km/h
729 21-05-2007 00:00:00 22.61667 C 11.44 g/m*3 22.62 C 0 km/h
730 22-05-2007 00:00:00 22.86667 C 11.78 g/m*3 22.87 C 0 km/h
731 23-05-2007 00:00:00 20.8675 C 11.32 g/m*3 20.87 C 0 km/h
732 24-05-2007 00:00:00 23.91417 C 11.42 g/m*3 23.91 C 0 km/h
733 25-05-2007 00:00:00 24.57059 C 11.78 g/m*3 24.57 C 0 km/h
734 26-05-2007 00:00:00 21.745 C 12.71 g/m*3 21.75 C 0 km/h
735 27-05-2007 00:00:00 17.5125 C 9.85 g/m*3 17.51 C 0 km/h
736 28-05-2007 00:00:00 12.24917 C 8.51 g/m*3 12.25 C 0 km/h
737 29-05-2007 00:00:00 11.033 C 7.93 g/m*3 11.03 C 0 km/h
738 30-05-2007 00:00:00 13.67465 C 6.29 g/m*3 13.67 C 0 km/h
739 31-05-2007 00:00:00 16.05139 C 8.28 g/m*3 16.05 C 0 km/h
740 01-06-2007 00:00:00 15.42361 C 9.57 g/m*3 15.42 C 0 km/h
741 02-06-2007 00:00:00 18.53611 C 9.82 g/m*3 18.54 C 0 km/h
742 03-06-2007 00:00:00 20.87083 C 10.1 g/m*3 20.87 C 0 km/h
743 04-06-2007 00:00:00 22.02361 C 10.59 g/m*3 22.02 C 0 km/h
744 05-06-2007 00:00:00 21.66389 C 10.23 g/m*3 21.66 C 0 km/h
745 06-06-2007 00:00:00 22.53889 C 10.59 g/m*3 22.54 C 0 km/h
746 07-06-2007 00:00:00 25.42222 C 11.36 g/m*3 25.42 C 0 km/h
747 08-06-2007 00:00:00 26.47639 C 11.42 g/m*3 26.48 C 0 km/h
748 09-06-2007 00:00:00 23.12917 C 12.28 g/m*3 23.13 C 0 km/h
749 10-06-2007 00:00:00 21.28889 C 12.55 g/m*3 21.29 C 0 km/h
750 11-06-2007 00:00:00 21.88068 C 11.9 g/m*3 21.88 C 0 km/h
Sensor: Nr:Datum:Temp:Abs-Feuchte:Windchill:Wind:
Aussen-T/F 751 12-06-2007 00:00:00 20.17167 C 11.8 g/m*3 20.17 C 0 km/h
752 13-06-2007 00:00:00 21.51176 C 10.38 g/m*3 21.51 C 0 km/h
753 14-06-2007 00:00:00 22.15833 C 12.13 g/m*3 22.16 C 0 km/h
754 15-06-2007 00:00:00 19.84667 C 11.6 g/m*3 19.85 C 0 km/h
755 16-06-2007 00:00:00 18.0125 C 9.3 g/m*3 18.01 C 0 km/h
756 17-06-2007 00:00:00 20.0125 C 9.63 g/m*3 20.01 C 0 km/h
757 18-06-2007 00:00:00 20.92583 C 11.23 g/m*3 20.93 C 0 km/h
758 19-06-2007 00:00:00 23.70833 C 11.18 g/m*3 23.71 C 0 km/h
759 20-06-2007 00:00:00 23.68667 C 12.04 g/m*3 23.69 C 0 km/h
760 21-06-2007 00:00:00 18.30167 C 12.42 g/m*3 18.3 C 0 km/h
761 22-06-2007 00:00:00 16.06417 C 10.95 g/m*3 16.06 C 0 km/h
762 23-06-2007 00:00:00 16.04167 C 10.56 g/m*3 16.04 C 0 km/h
763 24-06-2007 00:00:00 19.31667 C 10.02 g/m*3 19.32 C 0 km/h
764 25-06-2007 00:00:00 18.13667 C 10.86 g/m*3 18.14 C 0 km/h
765 26-06-2007 00:00:00 13.90667 C 8.35 g/m*3 13.91 C 0 km/h
766 27-06-2007 00:00:00 14.2225 C 6.63 g/m*3 14.22 C 0 km/h
767 28-06-2007 00:00:00 15.82833 C 7.44 g/m*3 15.83 C 0 km/h
768 29-06-2007 00:00:00 16.88417 C 8.32 g/m*3 16.88 C 0 km/h
769 30-06-2007 00:00:00 18.675 C 9.69 g/m*3 18.68 C 0 km/h
770 01-07-2007 00:00:00 20.8525 C 10.65 g/m*3 20.85 C 0 km/h
771 02-07-2007 00:00:00 19.54917 C 10.43 g/m*3 19.55 C 0 km/h
772 03-07-2007 00:00:00 15.42583 C 9.84 g/m*3 15.43 C 0 km/h
773 04-07-2007 00:00:00 15.17417 C 8.93 g/m*3 15.17 C 0 km/h
774 05-07-2007 00:00:00 15.1325 C 9.55 g/m*3 15.13 C 0 km/h
775 06-07-2007 00:00:00 17.63613 C 8.26 g/m*3 17.64 C 0 km/h
Sensor: Nr:Datum:Temp:Abs-Feuchte:Windchill:Wind:
Aussen-T/F 776 07-07-2007 00:00:00 18.55167 C 7.14 g/m*3 18.55 C 0 km/h
777 08-07-2007 00:00:00 19.8175 C 8.32 g/m*3 19.82 C 0 km/h
778 09-07-2007 00:00:00 17.15583 C 9.38 g/m*3 17.16 C 0 km/h
779 10-07-2007 00:00:00 14.66583 C 9.37 g/m*3 14.67 C 0 km/h
780 11-07-2007 00:00:00 14.37833 C 9.44 g/m*3 14.38 C 0 km/h
781 12-07-2007 00:00:00 17.7 C 9.66 g/m*3 17.7 C 0 km/h
782 13-07-2007 00:00:00 22.43167 C 11.88 g/m*3 22.43 C 0 km/h
783 14-07-2007 00:00:00 25.05 C 11.69 g/m*3 25.05 C 0 km/h
784 15-07-2007 00:00:00 27.2075 C 11.44 g/m*3 27.21 C 0 km/h
785 16-07-2007 00:00:00 26.8025 C 8.93 g/m*3 26.8 C 0 km/h
786 17-07-2007 00:00:00 25.11167 C 8.56 g/m*3 25.11 C 0 km/h
787 18-07-2007 00:00:00 22.78 C 9.2 g/m*3 22.78 C 0 km/h
788 19-07-2007 00:00:00 20.29333 C 11.02 g/m*3 20.29 C 0 km/h
789 20-07-2007 00:00:00 22.04917 C 12.14 g/m*3 22.05 C 0 km/h
790 21-07-2007 00:00:00 19.74917 C 9.69 g/m*3 19.75 C 0 km/h
791 22-07-2007 00:00:00 19.89917 C 8.33 g/m*3 19.9 C 0 km/h
792 23-07-2007 00:00:00 16.33333 C 10.14 g/m*3 16.33 C 0 km/h
793 24-07-2007 00:00:00 16.72667 C 9.48 g/m*3 16.73 C 0 km/h
794 25-07-2007 00:00:00 19.68571 C 8.82 g/m*3 19.69 C 0 km/h
795 26-07-2007 00:00:00 21.75583 C 9.38 g/m*3 21.76 C 0 km/h
796 27-07-2007 00:00:00 22.4675 C 8.25 g/m*3 22.47 C 0 km/h
797 28-07-2007 00:00:00 21.095 C 10.2 g/m*3 21.1 C 0 km/h
798 29-07-2007 00:00:00 17.3075 C 9.52 g/m*3 17.31 C 0 km/h
799 30-07-2007 00:00:00 14.66167 C 6.94 g/m*3 14.66 C 0 km/h
800 31-07-2007 00:00:00 15.68167 C 6.71 g/m*3 15.68 C 0 km/h
Sensor: Nr:Datum:Temp:Abs-Feuchte:Windchill:Wind:
Aussen-T/F 801 01-08-2007 00:00:00 18.53833 C 7.48 g/m*3 18.54 C 0 km/h
802 02-08-2007 00:00:00 18.3275 C 9.54 g/m*3 18.33 C 0 km/h
803 03-08-2007 00:00:00 19.78083 C 8.92 g/m*3 19.78 C 0 km/h
804 04-08-2007 00:00:00 21.05 C 8.85 g/m*3 21.05 C 0 km/h
805 05-08-2007 00:00:00 23.69833 C 9.12 g/m*3 23.7 C 0 km/h
806 06-08-2007 00:00:00 24.23417 C 9.32 g/m*3 24.23 C 0 km/h
807 07-08-2007 00:00:00 18.36167 C 12.63 g/m*3 18.36 C 0 km/h
808 08-08-2007 00:00:00 16.0175 C 11.01 g/m*3 16.02 C 0 km/h
809 09-08-2007 00:00:00 14.26667 C 11.55 g/m*3 14.27 C 0 km/h
810 10-08-2007 00:00:00 17.82833 C 13.5 g/m*3 17.83 C 0 km/h
811 11-08-2007 00:00:00 19.64083 C 11.07 g/m*3 19.64 C 0 km/h
812 12-08-2007 00:00:00 20.07417 C 10.09 g/m*3 20.07 C 0 km/h
813 13-08-2007 00:00:00 20.9175 C 10.13 g/m*3 20.92 C 0 km/h
814 14-08-2007 00:00:00 20.9275 C 9.64 g/m*3 20.93 C 0 km/h
815 15-08-2007 00:00:00 23.49917 C 12.92 g/m*3 23.5 C 0 km/h
816 16-08-2007 00:00:00 18.74667 C 10.51 g/m*3 18.75 C 0 km/h
817 17-08-2007 00:00:00 17.27833 C 8.08 g/m*3 17.28 C 0 km/h
818 18-08-2007 00:00:00 17.40917 C 8.03 g/m*3 17.41 C 0 km/h
819 19-08-2007 00:00:00 17.24583 C 9.91 g/m*3 17.25 C 0 km/h
820 20-08-2007 00:00:00 17.315 C 9.7 g/m*3 17.32 C 0 km/h
821 21-08-2007 00:00:00 15.4225 C 10.31 g/m*3 15.42 C 0 km/h
822 22-08-2007 00:00:00 15.95593 C 11.84 g/m*3 15.96 C 0 km/h
823 23-08-2007 00:00:00 17.7575 C 11.98 g/m*3 17.76 C 0 km/h
824 24-08-2007 00:00:00 19.43833 C 11.56 g/m*3 19.44 C 0 km/h
825 25-08-2007 00:00:00 21.42 C 11.91 g/m*3 21.42 C 0 km/h
Sensor: Nr:Datum:Temp:Abs-Feuchte:Windchill:Wind:
Aussen-T/F 826 26-08-2007 00:00:00 21.99167 C 12.1 g/m*3 21.99 C 0 km/h
827 27-08-2007 00:00:00 19.53583 C 8.84 g/m*3 19.54 C 0 km/h
828 28-08-2007 00:00:00 16.42167 C 8.1 g/m*3 16.42 C 0 km/h
829 29-08-2007 00:00:00 17.285 C 6.71 g/m*3 17.29 C 0 km/h
830 30-08-2007 00:00:00 15.3675 C 7.01 g/m*3 15.37 C 0 km/h
831 31-08-2007 00:00:00 17.5825 C 9.89 g/m*3 17.58 C 0 km/h
832 01-09-2007 00:00:00 17.1975 C 10.01 g/m*3 17.2 C 0 km/h
833 02-09-2007 00:00:00 17.35583 C 9 g/m*3 17.36 C 0 km/h
834 03-09-2007 00:00:00 15.74917 C 9.08 g/m*3 15.75 C 0 km/h
835 04-09-2007 00:00:00 12.88417 C 7.04 g/m*3 12.88 C 0 km/h
836 05-09-2007 00:00:00 12.6395 C 6.92 g/m*3 12.64 C 0 km/h
837 06-09-2007 00:00:00 15.00917 C 9.43 g/m*3 15.01 C 0 km/h
838 07-09-2007 00:00:00 15.9325 C 9.22 g/m*3 15.93 C 0 km/h
839 08-09-2007 00:00:00 15.13667 C 10.05 g/m*3 15.14 C 0 km/h
840 09-09-2007 00:00:00 15.125 C 9.17 g/m*3 15.13 C 0 km/h
841 10-09-2007 00:00:00 12.4075 C 8.68 g/m*3 12.41 C 0 km/h
842 11-09-2007 00:00:00 14.36833 C 8.61 g/m*3 14.37 C 0 km/h
843 12-09-2007 00:00:00 14.94417 C 8.54 g/m*3 14.94 C 0 km/h
844 13-09-2007 00:00:00 14.5175 C 8.49 g/m*3 14.52 C 0 km/h
845 14-09-2007 00:00:00 15.68417 C 8.62 g/m*3 15.68 C 0 km/h
846 15-09-2007 00:00:00 16.86917 C 8.24 g/m*3 16.87 C 0 km/h
847 16-09-2007 00:00:00 15.27 C 8.22 g/m*3 15.27 C 0 km/h
848 17-09-2007 00:00:00 16.68833 C 10.1 g/m*3 16.69 C 0 km/h
849 18-09-2007 00:00:00 11.46833 C 8.27 g/m*3 11.47 C 0 km/h
850 19-09-2007 00:00:00 10.3275 C 6.41 g/m*3 10.33 C 0 km/h
Sensor: Nr:Datum:Temp:Abs-Feuchte:Windchill:Wind:
Aussen-T/F 851 20-09-2007 00:00:00 13.68083 C 7.03 g/m*3 13.68 C 0 km/h
852 21-09-2007 00:00:00 14.35833 C 7.71 g/m*3 14.36 C 0 km/h
853 22-09-2007 00:00:00 15.97583 C 8.74 g/m*3 15.98 C 0 km/h
854 23-09-2007 00:00:00 17.80333 C 9.5 g/m*3 17.8 C 0 km/h
855 24-09-2007 00:00:00 16.95833 C 9.49 g/m*3 16.96 C 0 km/h
856 25-09-2007 00:00:00 12.91917 C 7.71 g/m*3 12.92 C 0 km/h
857 26-09-2007 00:00:00 12.2675 C 7.86 g/m*3 12.27 C 0 km/h
858 27-09-2007 00:00:00 10.19083 C 8.85 g/m*3 10.19 C 0 km/h
859 28-09-2007 00:00:00 12.50168 C 8.71 g/m*3 12.5 C 0 km/h
860 29-09-2007 00:00:00 13.54444 C 8.6 g/m*3 13.54 C 0 km/h
861 30-09-2007 00:00:00 14.59687 C 9.12 g/m*3 14.6 C 0 km/h
862 01-10-2007 00:00:00 14.70313 C 9.71 g/m*3 14.7 C 0 km/h
863 02-10-2007 00:00:00 17.235 C 11.49 g/m*3 17.24 C 0 km/h
864 03-10-2007 00:00:00 17.39188 C 11.47 g/m*3 17.39 C 0 km/h
865 04-10-2007 00:00:00 17.33653 C 11.53 g/m*3 17.34 C 0 km/h
866 05-10-2007 00:00:00 15.50646 C 8.72 g/m*3 15.51 C 0 km/h
867 06-10-2007 00:00:00 12.34042 C 7.59 g/m*3 12.34 C 0 km/h
868 07-10-2007 00:00:00 11.60813 C 7.69 g/m*3 11.61 C 0 km/h
869 08-10-2007 00:00:00 10.74021 C 7.53 g/m*3 10.74 C 0 km/h
870 09-10-2007 00:00:00 12.05052 C 8.1 g/m*3 12.05 C 0 km/h
871 10-10-2007 00:00:00 14.53875 C 8.04 g/m*3 14.54 C 0 km/h
872 11-10-2007 00:00:00 11.52958 C 7.34 g/m*3 11.53 C 0 km/h
873 12-10-2007 00:00:00 12.23271 C 8.24 g/m*3 12.23 C 0 km/h
874 13-10-2007 00:00:00 13.96146 C 7.82 g/m*3 13.96 C 0 km/h
875 14-10-2007 00:00:00 9.94958 C 6.47 g/m*3 9.95 C 0 km/h
Sensor: Nr:Datum:Temp:Abs-Feuchte:Windchill:Wind:
Aussen-T/F 876 15-10-2007 00:00:00 10.725 C 7.35 g/m*3 10.73 C 0 km/h
877 16-10-2007 00:00:00 13.70417 C 8.35 g/m*3 13.7 C 0 km/h
878 17-10-2007 00:00:00 11.78601 C 8.39 g/m*3 11.79 C 0 km/h
879 18-10-2007 00:00:00 9.70042 C 6.45 g/m*3 9.7 C 0 km/h
880 19-10-2007 00:00:00 7.65667 C 6.17 g/m*3 7.66 C 0 km/h
881 20-10-2007 00:00:00 3.38583 C 5.54 g/m*3 3.39 C 0 km/h
882 24-10-2007 00:00:00 7.63803 C 5.69 g/m*3 7.64 C 0 km/h
883 25-10-2007 00:00:00 8.51042 C 6.26 g/m*3 8.51 C 0 km/h
884 26-10-2007 00:00:00 8.8712 C 6.03 g/m*3 8.87 C 0 km/h
885 27-10-2007 00:00:00 8.5725 C 5.85 g/m*3 8.57 C 0 km/h
886 28-10-2007 00:00:00 9.1632 C 5.9 g/m*3 9.16 C 0 km/h
887 29-10-2007 00:00:00 8.77833 C 7.07 g/m*3 8.78 C 0 km/h
888 30-10-2007 00:00:00 8.70333 C 7.3 g/m*3 8.7 C 0 km/h
889 31-10-2007 00:00:00 6.43333 C 6.44 g/m*3 6.43 C 0 km/h
890 01-11-2007 00:00:00 5.77833 C 6.04 g/m*3 5.78 C 0 km/h
891 02-11-2007 00:00:00 10.20333 C 8.52 g/m*3 10.2 C 0 km/h
892 03-11-2007 00:00:00 11.76723 C 9.64 g/m*3 11.77 C 0 km/h
893 04-11-2007 00:00:00 10.35 C 6.84 g/m*3 10.35 C 0 km/h
894 05-11-2007 00:00:00 8.61333 C 5.38 g/m*3 8.61 C 0 km/h
895 06-11-2007 00:00:00 8.1225 C 5.88 g/m*3 8.12 C 0 km/h
896 07-11-2007 00:00:00 8.495 C 6.13 g/m*3 8.49 C 0 km/h
897 08-11-2007 00:00:00 9.85667 C 7.21 g/m*3 9.86 C 0 km/h
898 09-11-2007 00:00:00 5.16167 C 5.11 g/m*3 5.16 C 0 km/h
899 10-11-2007 00:00:00 6.29083 C 5.92 g/m*3 6.29 C 0 km/h
900 11-11-2007 00:00:00 7.75917 C 6.67 g/m*3 7.76 C 0 km/h
Sensor: Nr:Datum:Temp:Abs-Feuchte:Windchill:Wind:
Aussen-T/F 901 12-11-2007 00:00:00 5.1475 C 4.79 g/m*3 5.15 C 0 km/h
902 13-11-2007 00:00:00 3.98167 C 5.14 g/m*3 3.98 C 0 km/h
903 14-11-2007 00:00:00 2.72417 C 4.37 g/m*3 2.72 C 0 km/h
904 15-11-2007 00:00:00 1.3425 C 3.82 g/m*3 1.34 C 0 km/h
905 16-11-2007 00:00:00 -0.59167 C 3.84 g/m*3 -0.59 C 0 km/h
906 17-11-2007 00:00:00 3.35714 C 4.68 g/m*3 3.36 C 0 km/h
907 18-11-2007 00:00:00 3.3825 C 4.91 g/m*3 3.38 C 0 km/h
908 19-11-2007 00:00:00 2.57333 C 4.34 g/m*3 2.57 C 0 km/h
909 20-11-2007 00:00:00 5.33 C 4.59 g/m*3 5.33 C 0 km/h
910 21-11-2007 00:00:00 6.755 C 5.66 g/m*3 6.76 C 0 km/h
911 22-11-2007 00:00:00 7.93917 C 6.65 g/m*3 7.94 C 0 km/h
912 23-11-2007 00:00:00 6.7275 C 6.81 g/m*3 6.73 C 0 km/h
913 24-11-2007 00:00:00 2.76833 C 4.82 g/m*3 2.77 C 0 km/h
914 25-11-2007 00:00:00 4.25167 C 5.29 g/m*3 4.25 C 0 km/h
915 26-11-2007 00:00:00 3.9725 C 4.66 g/m*3 3.97 C 0 km/h
916 27-11-2007 00:00:00 4.23833 C 4.68 g/m*3 4.24 C 0 km/h
917 28-11-2007 00:00:00 0.0625 C 4.32 g/m*3 0.06 C 0 km/h
918 29-11-2007 00:00:00 1.3325 C 4.59 g/m*3 1.33 C 0 km/h
919 30-11-2007 00:00:00 5.76 C 5.7 g/m*3 5.76 C 0 km/h
920 01-12-2007 00:00:00 8.51345 C 5.82 g/m*3 8.51 C 0 km/h
921 02-12-2007 00:00:00 9.13667 C 6.27 g/m*3 9.14 C 0 km/h
922 03-12-2007 00:00:00 7.21167 C 4.97 g/m*3 7.21 C 0 km/h
923 04-12-2007 00:00:00 5.77583 C 5.61 g/m*3 5.78 C 0 km/h
924 05-12-2007 00:00:00 10.11667 C 7.2 g/m*3 10.12 C 0 km/h
925 06-12-2007 00:00:00 9.85667 C 6.67 g/m*3 9.86 C 0 km/h
Sensor: Nr:Datum:Temp:Abs-Feuchte:Windchill:Wind:
Aussen-T/F 926 07-12-2007 00:00:00 10.3625 C 6.09 g/m*3 10.36 C 0 km/h
927 08-12-2007 00:00:00 5.77917 C 4.69 g/m*3 5.78 C 0 km/h
928 09-12-2007 00:00:00 7.00333 C 5.75 g/m*3 7 C 0 km/h
929 10-12-2007 00:00:00 6.24167 C 6.16 g/m*3 6.24 C 0 km/h
930 11-12-2007 00:00:00 5.6775 C 5.39 g/m*3 5.68 C 0 km/h
931 12-12-2007 00:00:00 4.92417 C 5 g/m*3 4.92 C 0 km/h
932 13-12-2007 00:00:00 5.2125 C 4.36 g/m*3 5.21 C 0 km/h
933 14-12-2007 00:00:00 2.35798 C 2.96 g/m*3 2.36 C 0 km/h
934 15-12-2007 00:00:00 0.0325 C 2.86 g/m*3 0.03 C 0 km/h
935 16-12-2007 00:00:00 -2.92417 C 2.98 g/m*3 -2.92 C 0 km/h
936 17-12-2007 00:00:00 -1.06 C 2.85 g/m*3 -1.06 C 0 km/h
937 18-12-2007 00:00:00 -2.50833 C 3.14 g/m*3 -2.51 C 0 km/h
938 19-12-2007 00:00:00 -3.8675 C 3.09 g/m*3 -3.87 C 0 km/h
939 20-12-2007 00:00:00 -5.26417 C 2.9 g/m*3 -5.26 C 0 km/h
940 21-12-2007 00:00:00 -5.9625 C 2.72 g/m*3 -5.96 C 0 km/h
941 22-12-2007 00:00:00 -7.21833 C 2.43 g/m*3 -7.22 C 0 km/h
942 23-12-2007 00:00:00 -5.47333 C 2.81 g/m*3 -5.47 C 0 km/h
943 24-12-2007 00:00:00 -1.28333 C 4.01 g/m*3 -1.28 C 0 km/h
944 25-12-2007 00:00:00 -3.13917 C 3.2 g/m*3 -3.14 C 0 km/h
945 26-12-2007 00:00:00 -1.31513 C 3.83 g/m*3 -1.32 C 0 km/h
946 27-12-2007 00:00:00 2.63917 C 4.81 g/m*3 2.64 C 0 km/h
947 28-12-2007 00:00:00 4.575 C 5.27 g/m*3 4.58 C 0 km/h
948 29-12-2007 00:00:00 3.32667 C 4.84 g/m*3 3.33 C 0 km/h
949 30-12-2007 00:00:00 4.99167 C 5.24 g/m*3 4.99 C 0 km/h
950 31-12-2007 00:00:00 3.21667 C 5.19 g/m*3 3.22 C 0 km/h
Sensor: Nr:Datum:Temp:Abs-Feuchte:Windchill:Wind:
Aussen-T/F 951 01-01-2008 00:00:00 1.85083 C 4.52 g/m*3 1.85 C 0 km/h
952 02-01-2008 00:00:00 -1.72 C 3.21 g/m*3 -1.72 C 0 km/h
953 03-01-2008 00:00:00 -0.05667 C 2.87 g/m*3 -0.06 C 0 km/h
954 04-01-2008 00:00:00 0.27167 C 3.34 g/m*3 0.27 C 0 km/h
955 05-01-2008 00:00:00 5.0775 C 5.63 g/m*3 5.08 C 0 km/h
956 06-01-2008 00:00:00 3.95167 C 5.23 g/m*3 3.95 C 0 km/h
957 07-01-2008 00:00:00 5.63583 C 5.3 g/m*3 5.64 C 0 km/h
958 08-01-2008 00:00:00 4.45546 C 5.42 g/m*3 4.46 C 0 km/h
959 09-01-2008 00:00:00 4.03167 C 5.39 g/m*3 4.03 C 0 km/h
960 10-01-2008 00:00:00 6.32083 C 5.48 g/m*3 6.32 C 0 km/h
961 11-01-2008 00:00:00 9.6175 C 5.87 g/m*3 9.62 C 0 km/h
962 12-01-2008 00:00:00 6.39 C 5.01 g/m*3 6.39 C 0 km/h
963 13-01-2008 00:00:00 0.58167 C 4.26 g/m*3 0.58 C 0 km/h
964 14-01-2008 00:00:00 3.80833 C 4.9 g/m*3 3.81 C 0 km/h
965 15-01-2008 00:00:00 8.28833 C 5.12 g/m*3 8.29 C 0 km/h
966 16-01-2008 00:00:00 8.28667 C 5.35 g/m*3 8.29 C 0 km/h
967 17-01-2008 00:00:00 7.21833 C 5.52 g/m*3 7.22 C 0 km/h
968 18-01-2008 00:00:00 9.17667 C 6.31 g/m*3 9.18 C 0 km/h
969 19-01-2008 00:00:00 12.72353 C 7.44 g/m*3 12.72 C 0 km/h
970 20-01-2008 00:00:00 12.27333 C 6.9 g/m*3 12.27 C 0 km/h
971 21-01-2008 00:00:00 10.17403 C 5.8 g/m*3 10.17 C 0 km/h
972 22-01-2008 00:00:00 4.58605 C 4.01 g/m*3 4.59 C 0 km/h
973 23-01-2008 00:00:00 2.9125 C 3.92 g/m*3 2.91 C 0 km/h
974 24-01-2008 00:00:00 6.355 C 4.65 g/m*3 6.36 C 0 km/h
975 25-01-2008 00:00:00 3.72583 C 4.34 g/m*3 3.73 C 0 km/h
Sensor: Nr:Datum:Temp:Abs-Feuchte:Windchill:Wind:
Aussen-T/F 976 26-01-2008 00:00:00 5.43583 C 4.26 g/m*3 5.44 C 0 km/h
977 27-01-2008 00:00:00 5.64333 C 4.29 g/m*3 5.64 C 0 km/h
978 28-01-2008 00:00:00 7.44 C 5.19 g/m*3 7.44 C 0 km/h
979 29-01-2008 00:00:00 5.72167 C 4.29 g/m*3 5.72 C 0 km/h
980 30-01-2008 00:00:00 2.05833 C 4.71 g/m*3 2.06 C 0 km/h
981 31-01-2008 00:00:00 2.0958 C 3.82 g/m*3 2.1 C 0 km/h
982 01-02-2008 00:00:00 4.10167 C 4.83 g/m*3 4.1 C 0 km/h
983 02-02-2008 00:00:00 2.155 C 3.64 g/m*3 2.15 C 0 km/h
984 03-02-2008 00:00:00 0.64917 C 3.2 g/m*3 0.65 C 0 km/h
985 04-02-2008 00:00:00 4.5125 C 4.25 g/m*3 4.51 C 0 km/h
986 05-02-2008 00:00:00 6.43917 C 5.11 g/m*3 6.44 C 0 km/h
987 06-02-2008 00:00:00 8.675 C 5.72 g/m*3 8.68 C 0 km/h
988 07-02-2008 00:00:00 3.96333 C 4.24 g/m*3 3.96 C 0 km/h
989 08-02-2008 00:00:00 2.41167 C 3.87 g/m*3 2.41 C 0 km/h
990 09-02-2008 00:00:00 2.61833 C 3.61 g/m*3 2.62 C 0 km/h
991 10-02-2008 00:00:00 2.41333 C 3.74 g/m*3 2.41 C 0 km/h
992 11-02-2008 00:00:00 3.10083 C 4.4 g/m*3 3.1 C 0 km/h
993 12-02-2008 00:00:00 2.92667 C 4.49 g/m*3 2.93 C 0 km/h
994 13-02-2008 00:00:00 2.03193 C 4.33 g/m*3 2.03 C 0 km/h
995 14-02-2008 00:00:00 0.96667 C 4.4 g/m*3 0.97 C 0 km/h
996 15-02-2008 00:00:00 2.4125 C 3.13 g/m*3 2.41 C 0 km/h
997 16-02-2008 00:00:00 -0.75333 C 2.03 g/m*3 -0.75 C 0 km/h
998 17-02-2008 00:00:00 -1.21667 C 2.05 g/m*3 -1.22 C 0 km/h
999 18-02-2008 00:00:00 -0.28333 C 2.13 g/m*3 -0.28 C 0 km/h
1000 19-02-2008 00:00:00 0.85417 C 2.54 g/m*3 0.85 C 0 km/h
Sensor: Nr:Datum:Temp:Abs-Feuchte:Windchill:Wind:
Aussen-T/F 1001 20-02-2008 00:00:00 1.65 C 4.49 g/m*3 1.65 C 0 km/h
1002 21-02-2008 00:00:00 6.5725 C 5.76 g/m*3 6.57 C 0 km/h
1003 22-02-2008 00:00:00 9.70667 C 5.88 g/m*3 9.71 C 0 km/h
1004 23-02-2008 00:00:00 9.48833 C 5.6 g/m*3 9.49 C 0 km/h
1005 24-02-2008 00:00:00 6.65583 C 5.66 g/m*3 6.66 C 0 km/h
1006 25-02-2008 00:00:00 9.93833 C 6.06 g/m*3 9.94 C 0 km/h
1007 26-02-2008 00:00:00 11.1075 C 6.49 g/m*3 11.11 C 0 km/h
1008 27-02-2008 00:00:00 7.70168 C 4.44 g/m*3 7.7 C 0 km/h
1009 28-02-2008 00:00:00 7.6125 C 4.89 g/m*3 7.61 C 0 km/h
1010 29-02-2008 00:00:00 8.7625 C 7.16 g/m*3 8.76 C 0 km/h
1011 01-03-2008 00:00:00 9.4675 C 4.85 g/m*3 9.47 C 0 km/h
1012 02-03-2008 00:00:00 11.1725 C 5.33 g/m*3 11.17 C 0 km/h
1013 03-03-2008 00:00:00 7.56583 C 4.08 g/m*3 7.57 C 0 km/h
1014 04-03-2008 00:00:00 2.7525 C 4.06 g/m*3 2.75 C 0 km/h
1015 05-03-2008 00:00:00 1.71 C 3.03 g/m*3 1.71 C 0 km/h
1016 06-03-2008 00:00:00 2.81917 C 2.99 g/m*3 2.82 C 0 km/h
1017 07-03-2008 00:00:00 6.93833 C 4.72 g/m*3 6.94 C 0 km/h
1018 08-03-2008 00:00:00 6.94667 C 4.5 g/m*3 6.95 C 0 km/h
1019 09-03-2008 00:00:00 8.06667 C 4.11 g/m*3 8.07 C 0 km/h
1020 10-03-2008 00:00:00 8.22941 C 4.32 g/m*3 8.23 C 0 km/h
1021 11-03-2008 00:00:00 8.355 C 5.31 g/m*3 8.36 C 0 km/h
1022 12-03-2008 00:00:00 9.11833 C 4.2 g/m*3 9.12 C 0 km/h
1023 13-03-2008 00:00:00 7.62667 C 4.06 g/m*3 7.63 C 0 km/h
1024 14-03-2008 00:00:00 9.14417 C 5.77 g/m*3 9.14 C 0 km/h
1025 15-03-2008 00:00:00 9.33 C 5.42 g/m*3 9.33 C 0 km/h
Sensor: Nr:Datum:Temp:Abs-Feuchte:Windchill:Wind:
Aussen-T/F 1026 16-03-2008 00:00:00 9.8675 C 6.68 g/m*3 9.87 C 0 km/h
1027 17-03-2008 00:00:00 5.94583 C 3.99 g/m*3 5.95 C 0 km/h
1028 18-03-2008 00:00:00 4.26083 C 3.07 g/m*3 4.26 C 0 km/h
1029 19-03-2008 00:00:00 3.37083 C 3.9 g/m*3 3.37 C 0 km/h
1030 20-03-2008 00:00:00 3.89083 C 4.07 g/m*3 3.89 C 0 km/h
1031 21-03-2008 00:00:00 3.9975 C 4.22 g/m*3 4 C 0 km/h
1032 22-03-2008 00:00:00 2.82917 C 4.71 g/m*3 2.83 C 0 km/h
1033 23-03-2008 00:00:00 1.56639 C 2.31 g/m*3 1.57 C 0 km/h
1034 24-03-2008 00:00:00 -0.00917 C 3.2 g/m*3 -0.01 C 0 km/h
1035 25-03-2008 00:00:00 1.51333 C 3.09 g/m*3 1.51 C 0 km/h
1036 26-03-2008 00:00:00 2.39667 C 4.29 g/m*3 2.4 C 0 km/h
1037 27-03-2008 00:00:00 5.29417 C 5.44 g/m*3 5.29 C 0 km/h
1038 28-03-2008 00:00:00 8.15333 C 4.14 g/m*3 8.15 C 0 km/h
1039 29-03-2008 00:00:00 9.55083 C 3.95 g/m*3 9.55 C 0 km/h
1040 30-03-2008 00:00:00 13.03217 C 4.01 g/m*3 13.03 C 0 km/h
1041 31-03-2008 00:00:00 11.98333 C 5.6 g/m*3 11.98 C 0 km/h
1042 01-04-2008 00:00:00 10.06833 C 5.37 g/m*3 10.07 C 0 km/h
1043 02-04-2008 00:00:00 9.77417 C 5.52 g/m*3 9.77 C 0 km/h
1044 03-04-2008 00:00:00 7.48 C 5.75 g/m*3 7.48 C 0 km/h
1045 04-04-2008 00:00:00 9.15583 C 5.79 g/m*3 9.16 C 0 km/h
1046 05-04-2008 00:00:00 7.49076 C 6.73 g/m*3 7.49 C 0 km/h
1047 06-04-2008 00:00:00 3.825 C 5.64 g/m*3 3.83 C 0 km/h
1048 07-04-2008 00:00:00 1.36917 C 4.88 g/m*3 1.37 C 0 km/h
1049 08-04-2008 00:00:00 3.57833 C 4.72 g/m*3 3.58 C 0 km/h
1050 09-04-2008 00:00:00 5.82833 C 5.5 g/m*3 5.83 C 0 km/h
Sensor: Nr:Datum:Temp:Abs-Feuchte:Windchill:Wind:
Aussen-T/F 1051 10-04-2008 00:00:00 8.76917 C 5.74 g/m*3 8.77 C 0 km/h
1052 11-04-2008 00:00:00 8.235 C 6.34 g/m*3 8.24 C 0 km/h
1053 12-04-2008 00:00:00 8.02 C 5.41 g/m*3 8.02 C 0 km/h
1054 13-04-2008 00:00:00 9.70833 C 6.56 g/m*3 9.71 C 0 km/h
1055 14-04-2008 00:00:00 7.63083 C 6.9 g/m*3 7.63 C 0 km/h
1056 15-04-2008 00:00:00 6.56083 C 5.99 g/m*3 6.56 C 0 km/h
1057 16-04-2008 00:00:00 6.30083 C 4.78 g/m*3 6.3 C 0 km/h
1058 17-04-2008 00:00:00 6.47227 C 4.04 g/m*3 6.47 C 0 km/h
1059 18-04-2008 00:00:00 9.94 C 4.58 g/m*3 9.94 C 0 km/h
1060 19-04-2008 00:00:00 8.41667 C 6.18 g/m*3 8.42 C 0 km/h
1061 20-04-2008 00:00:00 12.42417 C 7.14 g/m*3 12.42 C 0 km/h
1062 21-04-2008 00:00:00 12.98833 C 6.29 g/m*3 12.99 C 0 km/h
1063 22-04-2008 00:00:00 12.95917 C 5.98 g/m*3 12.96 C 0 km/h
1064 23-04-2008 00:00:00 13.95083 C 6.27 g/m*3 13.95 C 0 km/h
1065 24-04-2008 00:00:00 15.095 C 7.14 g/m*3 15.1 C 0 km/h
1066 25-04-2008 00:00:00 12.67583 C 6.12 g/m*3 12.68 C 0 km/h
1067 26-04-2008 00:00:00 14.51833 C 6.16 g/m*3 14.52 C 0 km/h
1068 27-04-2008 00:00:00 15.87667 C 5.79 g/m*3 15.88 C 0 km/h
1069 28-04-2008 00:00:00 13.4125 C 8.14 g/m*3 13.41 C 0 km/h
1070 29-04-2008 00:00:00 13.07667 C 6.39 g/m*3 13.08 C 0 km/h
1071 30-04-2008 00:00:00 13.76639 C 5.33 g/m*3 13.77 C 0 km/h
1072 01-05-2008 00:00:00 11.62583 C 5.8 g/m*3 11.63 C 0 km/h
1073 02-05-2008 00:00:00 12.97583 C 6.28 g/m*3 12.98 C 0 km/h
1074 03-05-2008 00:00:00 14.47667 C 6.5 g/m*3 14.48 C 0 km/h
1075 04-05-2008 00:00:00 17.15667 C 5.91 g/m*3 17.16 C 0 km/h
Sensor: Nr:Datum:Temp:Abs-Feuchte:Windchill:Wind:
Aussen-T/F 1076 05-05-2008 00:00:00 16.51 C 5.51 g/m*3 16.51 C 0 km/h
1077 06-05-2008 00:00:00 18.36833 C 7.67 g/m*3 18.37 C 0 km/h
1078 07-05-2008 00:00:00 19.48083 C 7 g/m*3 19.48 C 0 km/h
1079 08-05-2008 00:00:00 19.40583 C 6.98 g/m*3 19.41 C 0 km/h
1080 09-05-2008 00:00:00 20.20083 C 7.05 g/m*3 20.2 C 0 km/h
1081 10-05-2008 00:00:00 21.22917 C 7.16 g/m*3 21.23 C 0 km/h
1082 11-05-2008 00:00:00 21.15714 C 6.43 g/m*3 21.16 C 0 km/h
1083 12-05-2008 00:00:00 21.02017 C 6.74 g/m*3 21.02 C 0 km/h
1084 13-05-2008 00:00:00 21.3175 C 7.09 g/m*3 21.32 C 0 km/h
1085 14-05-2008 00:00:00 21.27167 C 7.79 g/m*3 21.27 C 0 km/h
1086 15-05-2008 00:00:00 18.93333 C 8.92 g/m*3 18.93 C 0 km/h
1087 16-05-2008 00:00:00 18.3725 C 9.69 g/m*3 18.37 C 0 km/h
1088 17-05-2008 00:00:00 17.11167 C 10.03 g/m*3 17.11 C 0 km/h
1089 18-05-2008 00:00:00 14.09583 C 8.38 g/m*3 14.1 C 0 km/h
1090 19-05-2008 00:00:00 14.61833 C 5.61 g/m*3 14.62 C 0 km/h
1091 20-05-2008 00:00:00 15.59417 C 4.92 g/m*3 15.59 C 0 km/h
1092 21-05-2008 00:00:00 16.93833 C 4.74 g/m*3 16.94 C 0 km/h
1093 22-05-2008 00:00:00 18.32417 C 5.49 g/m*3 18.32 C 0 km/h
1094 23-05-2008 00:00:00 19.045 C 6.46 g/m*3 19.05 C 0 km/h
1095 24-05-2008 00:00:00 18.23 C 7.82 g/m*3 18.23 C 0 km/h
1096 25-05-2008 00:00:00 21.65462 C 9.39 g/m*3 21.65 C 0 km/h
1097 26-05-2008 00:00:00 21.2775 C 11.27 g/m*3 21.28 C 0 km/h
1098 27-05-2008 00:00:00 22.17167 C 12.27 g/m*3 22.17 C 0 km/h
1099 28-05-2008 00:00:00 23.79417 C 10.23 g/m*3 23.79 C 0 km/h
1100 29-05-2008 00:00:00 23.08917 C 11.47 g/m*3 23.09 C 0 km/h
Sensor: Nr:Datum:Temp:Abs-Feuchte:Windchill:Wind:
Aussen-T/F 1101 30-05-2008 00:00:00 20.37 C 13.32 g/m*3 20.37 C 0 km/h
1102 31-05-2008 00:00:00 17.68917 C 12.05 g/m*3 17.69 C 0 km/h
1103 01-06-2008 00:00:00 21.38917 C 11.64 g/m*3 21.39 C 0 km/h
1104 02-06-2008 00:00:00 23.66833 C 12.72 g/m*3 23.67 C 0 km/h
1105 03-06-2008 00:00:00 21.2825 C 11.09 g/m*3 21.28 C 0 km/h
1106 04-06-2008 00:00:00 19.19833 C 11.48 g/m*3 19.2 C 0 km/h
1107 05-06-2008 00:00:00 20.67731 C 12.57 g/m*3 20.68 C 0 km/h
1108 06-06-2008 00:00:00 21.07333 C 10.91 g/m*3 21.07 C 0 km/h
1109 07-06-2008 00:00:00 19.84417 C 10.51 g/m*3 19.84 C 0 km/h
1110 08-06-2008 00:00:00 20.63167 C 10.52 g/m*3 20.63 C 0 km/h
1111 09-06-2008 00:00:00 22.875 C 10.01 g/m*3 22.88 C 0 km/h
1112 10-06-2008 00:00:00 23.51583 C 9.23 g/m*3 23.52 C 0 km/h
1113 11-06-2008 00:00:00 18.4725 C 7.23 g/m*3 18.47 C 0 km/h
1114 12-06-2008 00:00:00 12.7425 C 7.69 g/m*3 12.74 C 0 km/h
1115 13-06-2008 00:00:00 13.67167 C 7.09 g/m*3 13.67 C 0 km/h
1116 14-06-2008 00:00:00 13.75917 C 7.2 g/m*3 13.76 C 0 km/h
1117 15-06-2008 00:00:00 13.75333 C 8.27 g/m*3 13.75 C 0 km/h
1118 16-06-2008 00:00:00 16.2275 C 7.7 g/m*3 16.23 C 0 km/h
1119 17-06-2008 00:00:00 17.34333 C 7.29 g/m*3 17.34 C 0 km/h
1120 18-06-2008 00:00:00 20.30583 C 7.89 g/m*3 20.31 C 0 km/h
1121 19-06-2008 00:00:00 20.67417 C 8.05 g/m*3 20.67 C 0 km/h
1122 20-06-2008 00:00:00 18.32 C 8.63 g/m*3 18.32 C 0 km/h
1123 21-06-2008 00:00:00 23.24706 C 9.11 g/m*3 23.25 C 0 km/h
1124 22-06-2008 00:00:00 24.30833 C 11.76 g/m*3 24.31 C 0 km/h
1125 23-06-2008 00:00:00 22.40417 C 8.41 g/m*3 22.4 C 0 km/h
Sensor: Nr:Datum:Temp:Abs-Feuchte:Windchill:Wind:
Aussen-T/F 1126 24-06-2008 00:00:00 23.6325 C 8.33 g/m*3 23.63 C 0 km/h
1127 25-06-2008 00:00:00 22.66833 C 12.11 g/m*3 22.67 C 0 km/h
1128 26-06-2008 00:00:00 20.39833 C 8.44 g/m*3 20.4 C 0 km/h
1129 27-06-2008 00:00:00 18.72167 C 8.67 g/m*3 18.72 C 0 km/h
1130 28-06-2008 00:00:00 21.21 C 9.93 g/m*3 21.21 C 0 km/h
1131 29-06-2008 00:00:00 22.68667 C 9.85 g/m*3 22.69 C 0 km/h
1132 30-06-2008 00:00:00 22.95083 C 8.73 g/m*3 22.95 C 0 km/h
1133 01-07-2008 00:00:00 24.35583 C 9.2 g/m*3 24.36 C 0 km/h
1134 02-07-2008 00:00:00 26.47583 C 10.39 g/m*3 26.48 C 0 km/h
1135 03-07-2008 00:00:00 20.18992 C 12.77 g/m*3 20.19 C 0 km/h
1136 04-07-2008 00:00:00 19.38083 C 9.22 g/m*3 19.38 C 0 km/h
1137 05-07-2008 00:00:00 21.0575 C 8.87 g/m*3 21.06 C 0 km/h
1138 06-07-2008 00:00:00 21.2225 C 8.99 g/m*3 21.22 C 0 km/h
1139 07-07-2008 00:00:00 18.24917 C 8.13 g/m*3 18.25 C 0 km/h
1140 08-07-2008 00:00:00 17.2125 C 8.69 g/m*3 17.21 C 0 km/h
1141 09-07-2008 00:00:00 17.0525 C 8.83 g/m*3 17.05 C 0 km/h
1142 10-07-2008 00:00:00 22.32833 C 10.77 g/m*3 22.33 C 0 km/h
1143 11-07-2008 00:00:00 20.48167 C 11.17 g/m*3 20.48 C 0 km/h
1144 12-07-2008 00:00:00 17.645 C 9.92 g/m*3 17.65 C 0 km/h
1145 13-07-2008 00:00:00 17.8375 C 8.02 g/m*3 17.84 C 0 km/h
1146 14-07-2008 00:00:00 18.38 C 7.76 g/m*3 18.38 C 0 km/h
1147 15-07-2008 00:00:00 19.61978 C 8.34 g/m*3 19.62 C 0 km/h
1148 16-07-2008 00:00:00 20.38298 C 10.82 g/m*3 20.38 C 0 km/h
1149 17-07-2008 00:00:00 17.22917 C 8.94 g/m*3 17.23 C 0 km/h
1150 18-07-2008 00:00:00 16.58125 C 9.74 g/m*3 16.58 C 0 km/h
Sensor: Nr:Datum:Temp:Abs-Feuchte:Windchill:Wind:
Aussen-T/F 1151 19-07-2008 00:00:00 19.61667 C 9.94 g/m*3 19.62 C 0 km/h
1152 20-07-2008 00:00:00 15.48542 C 9.13 g/m*3 15.49 C 0 km/h
1153 21-07-2008 00:00:00 12.62917 C 8.41 g/m*3 12.63 C 0 km/h
1154 22-07-2008 00:00:00 14.56042 C 9.4 g/m*3 14.56 C 0 km/h
1155 23-07-2008 00:00:00 18.94375 C 9.57 g/m*3 18.94 C 0 km/h
1156 24-07-2008 00:00:00 22.13958 C 9.31 g/m*3 22.14 C 0 km/h
1157 25-07-2008 00:00:00 24.55625 C 9.56 g/m*3 24.56 C 0 km/h
1158 26-07-2008 00:00:00 23.54792 C 12.42 g/m*3 23.55 C 0 km/h
1159 27-07-2008 00:00:00 23.20625 C 13.92 g/m*3 23.21 C 0 km/h
1160 28-07-2008 00:00:00 25.10833 C 12.45 g/m*3 25.11 C 0 km/h
1161 29-07-2008 00:00:00 24.49792 C 12.1 g/m*3 24.5 C 0 km/h
1162 30-07-2008 00:00:00 23.67292 C 12.74 g/m*3 23.67 C 0 km/h
1163 31-07-2008 00:00:00 24.69792 C 13.38 g/m*3 24.7 C 0 km/h
1164 01-08-2008 00:00:00 24.97917 C 10.83 g/m*3 24.98 C 0 km/h
1165 02-08-2008 00:00:00 21.29792 C 9.43 g/m*3 21.3 C 0 km/h
1166 03-08-2008 00:00:00 23.42561 C 10.97 g/m*3 23.43 C 0 km/h
1167 04-08-2008 00:00:00 21.85083 C 10.01 g/m*3 21.85 C 0 km/h
1168 05-08-2008 00:00:00 20.3125 C 8.72 g/m*3 20.31 C 0 km/h
1169 06-08-2008 00:00:00 24.05417 C 10.21 g/m*3 24.05 C 0 km/h
1170 07-08-2008 00:00:00 24.29583 C 11.12 g/m*3 24.3 C 0 km/h
1171 08-08-2008 00:00:00 18.50948 C 11.78 g/m*3 18.51 C 0 km/h
1172 09-08-2008 00:00:00 19.32 C 9.06 g/m*3 19.32 C 0 km/h
1173 10-08-2008 00:00:00 20.1 C 9.41 g/m*3 20.1 C 0 km/h
1174 11-08-2008 00:00:00 20.59748 C 9.44 g/m*3 20.6 C 0 km/h
1175 12-08-2008 00:00:00 18.91833 C 12.54 g/m*3 18.92 C 0 km/h
Sensor: Nr:Datum:Temp:Abs-Feuchte:Windchill:Wind:
Aussen-T/F 1176 13-08-2008 00:00:00 18.3525 C 8.74 g/m*3 18.35 C 0 km/h
1177 14-08-2008 00:00:00 19.14917 C 7.79 g/m*3 19.15 C 0 km/h
1178 15-08-2008 00:00:00 18.3625 C 8.19 g/m*3 18.36 C 0 km/h
1179 16-08-2008 00:00:00 18.89 C 8.44 g/m*3 18.89 C 0 km/h
1180 17-08-2008 00:00:00 19.10252 C 8.4 g/m*3 19.1 C 0 km/h
1181 18-08-2008 00:00:00 21.21 C 10.7 g/m*3 21.21 C 0 km/h
1182 19-08-2008 00:00:00 20.7925 C 9.67 g/m*3 20.79 C 0 km/h
1183 20-08-2008 00:00:00 18.82 C 9.37 g/m*3 18.82 C 0 km/h
1184 21-08-2008 00:00:00 19.6375 C 8.99 g/m*3 19.64 C 0 km/h
1185 22-08-2008 00:00:00 18.45333 C 11.1 g/m*3 18.45 C 0 km/h
1186 23-08-2008 00:00:00 14.95083 C 9.15 g/m*3 14.95 C 0 km/h
1187 24-08-2008 00:00:00 16.59333 C 8.67 g/m*3 16.59 C 0 km/h
1188 25-08-2008 00:00:00 17.43583 C 10.93 g/m*3 17.44 C 0 km/h
1189 26-08-2008 00:00:00 19.2725 C 10.13 g/m*3 19.27 C 0 km/h
1190 27-08-2008 00:00:00 19.89833 C 10.62 g/m*3 19.9 C 0 km/h
1191 28-08-2008 00:00:00 20.35417 C 9.37 g/m*3 20.35 C 0 km/h
1192 29-08-2008 00:00:00 20.84454 C 9.74 g/m*3 20.84 C 0 km/h
1193 30-08-2008 00:00:00 21.35167 C 10.94 g/m*3 21.35 C 0 km/h
1194 31-08-2008 00:00:00 22.25917 C 10.49 g/m*3 22.26 C 0 km/h
1195 01-09-2008 00:00:00 20.93917 C 10.36 g/m*3 20.94 C 0 km/h
1196 02-09-2008 00:00:00 19.11333 C 9.31 g/m*3 19.11 C 0 km/h
1197 03-09-2008 00:00:00 15.21083 C 10.42 g/m*3 15.21 C 0 km/h
1198 04-09-2008 00:00:00 13.7025 C 7.94 g/m*3 13.7 C 0 km/h
1199 05-09-2008 00:00:00 16.9775 C 10.5 g/m*3 16.98 C 0 km/h
1200 06-09-2008 00:00:00 17.5625 C 11.38 g/m*3 17.56 C 0 km/h
Sensor: Nr:Datum:Temp:Abs-Feuchte:Windchill:Wind:
Aussen-T/F 1201 07-09-2008 00:00:00 16.83583 C 9.34 g/m*3 16.84 C 0 km/h
1202 08-09-2008 00:00:00 17.9741 C 8.43 g/m*3 17.97 C 0 km/h
1203 09-09-2008 00:00:00 18.12014 C 9.04 g/m*3 18.12 C 0 km/h
1204 10-09-2008 00:00:00 21.10243 C 10.72 g/m*3 21.1 C 0 km/h
1205 11-09-2008 00:00:00 19.94479 C 12.52 g/m*3 19.94 C 0 km/h
1206 12-09-2008 00:00:00 16.69236 C 12.91 g/m*3 16.69 C 0 km/h
1207 13-09-2008 00:00:00 12.63937 C 10.07 g/m*3 12.64 C 0 km/h
1208 14-09-2008 00:00:00 11.66215 C 6.19 g/m*3 11.66 C 0 km/h
1209 15-09-2008 00:00:00 10.27153 C 7.08 g/m*3 10.27 C 0 km/h
1210 16-09-2008 00:00:00 11.32014 C 7.11 g/m*3 11.32 C 0 km/h
1211 17-09-2008 00:00:00 11.34948 C 5.77 g/m*3 11.35 C 0 km/h
1212 18-09-2008 00:00:00 10.63264 C 5.3 g/m*3 10.63 C 0 km/h
1213 19-09-2008 00:00:00 10.48333 C 6.14 g/m*3 10.48 C 0 km/h
1214 20-09-2008 00:00:00 11.00556 C 6.26 g/m*3 11.01 C 0 km/h
1215 21-09-2008 00:00:00 11.67222 C 6.89 g/m*3 11.67 C 0 km/h
1216 22-09-2008 00:00:00 12.57108 C 7.54 g/m*3 12.57 C 0 km/h
1217 23-09-2008 00:00:00 12.21111 C 8.35 g/m*3 12.21 C 0 km/h
1218 24-09-2008 00:00:00 13.30799 C 9.32 g/m*3 13.31 C 0 km/h
1219 25-09-2008 00:00:00 12.56736 C 7.77 g/m*3 12.57 C 0 km/h
1220 26-09-2008 00:00:00 12.00521 C 7.09 g/m*3 12.01 C 0 km/h
1221 27-09-2008 00:00:00 11.93693 C 7.15 g/m*3 11.94 C 0 km/h
1222 28-09-2008 00:00:00 11.96493 C 7.21 g/m*3 11.96 C 0 km/h
1223 29-09-2008 00:00:00 11.47396 C 7.33 g/m*3 11.47 C 0 km/h
1224 30-09-2008 00:00:00 10.38611 C 7.67 g/m*3 10.39 C 0 km/h
1225 01-10-2008 00:00:00 13.07222 C 8.43 g/m*3 13.07 C 0 km/h
Sensor: Nr:Datum:Temp:Abs-Feuchte:Windchill:Wind:
Aussen-T/F 1226 02-10-2008 00:00:00 10.70244 C 6.41 g/m*3 10.7 C 0 km/h
1227 03-10-2008 00:00:00 8.94063 C 6.04 g/m*3 8.94 C 0 km/h
1228 04-10-2008 00:00:00 9.76632 C 5.66 g/m*3 9.77 C 0 km/h
1229 05-10-2008 00:00:00 11.69062 C 6.1 g/m*3 11.69 C 0 km/h
1230 06-10-2008 00:00:00 14.79306 C 10.16 g/m*3 14.79 C 0 km/h
1231 07-10-2008 00:00:00 15.17875 C 10.24 g/m*3 15.18 C 0 km/h
1232 08-10-2008 00:00:00 13.26389 C 10.6 g/m*3 13.26 C 0 km/h
1233 09-10-2008 00:00:00 13.20937 C 8.82 g/m*3 13.21 C 0 km/h
1234 10-10-2008 00:00:00 13.01806 C 8.66 g/m*3 13.02 C 0 km/h
1235 11-10-2008 00:00:00 13.2125 C 9 g/m*3 13.21 C 0 km/h
1236 12-10-2008 00:00:00 15.40729 C 9.68 g/m*3 15.41 C 0 km/h
1237 13-10-2008 00:00:00 14.40976 C 9.47 g/m*3 14.41 C 0 km/h
1238 14-10-2008 00:00:00 15.63438 C 9.35 g/m*3 15.63 C 0 km/h
1239 15-10-2008 00:00:00 13.57361 C 8.88 g/m*3 13.57 C 0 km/h
1240 16-10-2008 00:00:00 11.59444 C 8.43 g/m*3 11.59 C 0 km/h
1241 17-10-2008 00:00:00 8.00313 C 6.15 g/m*3 8 C 0 km/h
1242 18-10-2008 00:00:00 7.10488 C 5.92 g/m*3 7.1 C 0 km/h
1243 19-10-2008 00:00:00 8.10521 C 6.25 g/m*3 8.11 C 0 km/h
1244 20-10-2008 00:00:00 9.83646 C 7.21 g/m*3 9.84 C 0 km/h
1245 21-10-2008 00:00:00 13.12986 C 9.32 g/m*3 13.13 C 0 km/h
1246 22-10-2008 00:00:00 9.36528 C 7.49 g/m*3 9.37 C 0 km/h
1247 23-10-2008 00:00:00 9.2115 C 6.5 g/m*3 9.21 C 0 km/h
1248 24-10-2008 00:00:00 7.4434 C 6.07 g/m*3 7.44 C 0 km/h
1249 25-10-2008 00:00:00 10.48151 C 7.39 g/m*3 10.48 C 0 km/h
1250 26-10-2008 00:00:00 10.725 C 6.55 g/m*3 10.73 C 0 km/h
Sensor: Nr:Datum:Temp:Abs-Feuchte:Windchill:Wind:
Aussen-T/F 1251 27-10-2008 00:00:00 10.21724 C 7.98 g/m*3 10.22 C 0 km/h
1252 28-10-2008 00:00:00 6.92456 C 6.29 g/m*3 6.92 C 0 km/h
1253 29-10-2008 00:00:00 5.45 C 5.63 g/m*3 5.45 C 0 km/h
1254 30-10-2008 00:00:00 4.78947 C 6 g/m*3 4.79 C 0 km/h
1255 31-10-2008 00:00:00 5.97414 C 6.34 g/m*3 5.97 C 0 km/h
1256 01-11-2008 00:00:00 7.97414 C 7.15 g/m*3 7.97 C 0 km/h
1257 02-11-2008 00:00:00 9.98772 C 7.86 g/m*3 9.99 C 0 km/h
1258 03-11-2008 00:00:00 9.82241 C 7.83 g/m*3 9.82 C 0 km/h
1259 04-11-2008 00:00:00 9.00351 C 7.82 g/m*3 9 C 0 km/h
1260 05-11-2008 00:00:00 9.79828 C 7.68 g/m*3 9.8 C 0 km/h
1261 06-11-2008 00:00:00 10.54483 C 7.37 g/m*3 10.54 C 0 km/h
1262 07-11-2008 00:00:00 10.79123 C 7.22 g/m*3 10.79 C 0 km/h
1263 08-11-2008 00:00:00 8.24828 C 6.77 g/m*3 8.25 C 0 km/h
1264 09-11-2008 00:00:00 8.89583 C 7.31 g/m*3 8.9 C 0 km/h
1265 10-11-2008 00:00:00 13.98833 C 7.91 g/m*3 13.99 C 0 km/h
1266 11-11-2008 00:00:00 12.73917 C 6.46 g/m*3 12.74 C 0 km/h
1267 12-11-2008 00:00:00 8.5175 C 6.56 g/m*3 8.52 C 0 km/h
1268 13-11-2008 00:00:00 6.40667 C 6.06 g/m*3 6.41 C 0 km/h
1269 14-11-2008 00:00:00 5.60833 C 5.47 g/m*3 5.61 C 0 km/h
1270 15-11-2008 00:00:00 9.82083 C 7.04 g/m*3 9.82 C 0 km/h
1271 16-11-2008 00:00:00 9.9375 C 7.83 g/m*3 9.94 C 0 km/h
1272 17-11-2008 00:00:00 4.03167 C 5.46 g/m*3 4.03 C 0 km/h
1273 18-11-2008 00:00:00 4.76417 C 5.59 g/m*3 4.76 C 0 km/h
1274 19-11-2008 00:00:00 7.7775 C 6.09 g/m*3 7.78 C 0 km/h
1275 20-11-2008 00:00:00 9.54 C 6.58 g/m*3 9.54 C 0 km/h
Sensor: Nr:Datum:Temp:Abs-Feuchte:Windchill:Wind:
Aussen-T/F 1276 21-11-2008 00:00:00 5.21083 C 5.22 g/m*3 5.21 C 0 km/h
1277 22-11-2008 00:00:00 1.08571 C 3.81 g/m*3 1.09 C 0 km/h
1278 23-11-2008 00:00:00 0.81333 C 4.11 g/m*3 0.81 C 0 km/h
1279 24-11-2008 00:00:00 1.92667 C 4.67 g/m*3 1.93 C 0 km/h
1280 25-11-2008 00:00:00 0.79667 C 4.51 g/m*3 0.8 C 0 km/h
1281 26-11-2008 00:00:00 2.38333 C 4.91 g/m*3 2.38 C 0 km/h
1282 27-11-2008 00:00:00 3.435 C 4.58 g/m*3 3.44 C 0 km/h
1283 28-11-2008 00:00:00 0.47667 C 3.78 g/m*3 0.48 C 0 km/h
1284 29-11-2008 00:00:00 0.98 C 4.13 g/m*3 0.98 C 0 km/h
1285 30-11-2008 00:00:00 1.12 C 4.72 g/m*3 1.12 C 0 km/h
1286 01-12-2008 00:00:00 0.30417 C 4.54 g/m*3 0.3 C 0 km/h
1287 02-12-2008 00:00:00 2.80917 C 4.97 g/m*3 2.81 C 0 km/h
1288 03-12-2008 00:00:00 1.785 C 4.91 g/m*3 1.79 C 0 km/h
1289 04-12-2008 00:00:00 1.92353 C 5.05 g/m*3 1.92 C 0 km/h
1290 05-12-2008 00:00:00 5.36 C 6.01 g/m*3 5.36 C 0 km/h
1291 06-12-2008 00:00:00 4.73 C 5.89 g/m*3 4.73 C 0 km/h
1292 07-12-2008 00:00:00 3.85333 C 5.78 g/m*3 3.85 C 0 km/h
1293 08-12-2008 00:00:00 0.26917 C 4.58 g/m*3 0.27 C 0 km/h
1294 09-12-2008 00:00:00 0.56667 C 4.36 g/m*3 0.57 C 0 km/h
1295 10-12-2008 00:00:00 1.97667 C 5.17 g/m*3 1.98 C 0 km/h
1296 11-12-2008 00:00:00 1.4775 C 4.54 g/m*3 1.48 C 0 km/h
1297 12-12-2008 00:00:00 -0.23583 C 3.8 g/m*3 -0.24 C 0 km/h
1298 13-12-2008 00:00:00 -0.26167 C 3.56 g/m*3 -0.26 C 0 km/h
1299 14-12-2008 00:00:00 0.28083 C 4.24 g/m*3 0.28 C 0 km/h
1300 15-12-2008 00:00:00 -0.1075 C 4.53 g/m*3 -0.11 C 0 km/h
Sensor: Nr:Datum:Temp:Abs-Feuchte:Windchill:Wind:
Aussen-T/F 1301 16-12-2008 00:00:00 0.42521 C 4.59 g/m*3 0.43 C 0 km/h
1302 17-12-2008 00:00:00 -0.0375 C 4.31 g/m*3 -0.04 C 0 km/h
1303 18-12-2008 00:00:00 2.15083 C 5.01 g/m*3 2.15 C 0 km/h
1304 19-12-2008 00:00:00 4.22333 C 5.23 g/m*3 4.22 C 0 km/h
1305 20-12-2008 00:00:00 6.45667 C 6.48 g/m*3 6.46 C 0 km/h
1306 21-12-2008 00:00:00 7.94917 C 6.81 g/m*3 7.95 C 0 km/h
1307 22-12-2008 00:00:00 8.47167 C 6.7 g/m*3 8.47 C 0 km/h
1308 23-12-2008 00:00:00 6.21417 C 5.86 g/m*3 6.21 C 0 km/h
1309 24-12-2008 00:00:00 4.55833 C 5.62 g/m*3 4.56 C 0 km/h
1310 25-12-2008 00:00:00 4.40252 C 4.56 g/m*3 4.4 C 0 km/h
1311 26-12-2008 00:00:00 -1.1875 C 2.6 g/m*3 -1.19 C 0 km/h
1312 27-12-2008 00:00:00 -1.85667 C 2.56 g/m*3 -1.86 C 0 km/h
1313 28-12-2008 00:00:00 -3.02917 C 2.53 g/m*3 -3.03 C 0 km/h
1314 29-12-2008 00:00:00 -5.49833 C 2.6 g/m*3 -5.5 C 0 km/h
1315 30-12-2008 00:00:00 -6.21833 C 2.53 g/m*3 -6.22 C 0 km/h
1316 31-12-2008 00:00:00 -4.32583 C 2.92 g/m*3 -4.33 C 0 km/h
1317 01-01-2009 00:00:00 -3.46417 C 2.96 g/m*3 -3.46 C 0 km/h
1318 02-01-2009 00:00:00 -2.03917 C 3.39 g/m*3 -2.04 C 0 km/h
1319 03-01-2009 00:00:00 -3.57 C 2.96 g/m*3 -3.57 C 0 km/h
1320 04-01-2009 00:00:00 -1.06833 C 2.96 g/m*3 -1.07 C 0 km/h
1321 05-01-2009 00:00:00 -1.23866 C 3.28 g/m*3 -1.24 C 0 km/h
1322 06-01-2009 00:00:00 -6.97 C 1.26 g/m*3 -6.97 C 0 km/h
1323 07-01-2009 00:00:00 -10.99167 C 1.39 g/m*3 -10.99 C 0 km/h
1324 08-01-2009 00:00:00 -6.02083 C 2.27 g/m*3 -6.02 C 0 km/h
1325 09-01-2009 00:00:00 -11.165 C 1.54 g/m*3 -11.17 C 0 km/h
Sensor: Nr:Datum:Temp:Abs-Feuchte:Windchill:Wind:
Aussen-T/F 1326 10-01-2009 00:00:00 -11.3175 C 1.53 g/m*3 -11.32 C 0 km/h
1327 11-01-2009 00:00:00 -8.9975 C 1.92 g/m*3 -9 C 0 km/h
1328 12-01-2009 00:00:00 -7.30417 C 2.15 g/m*3 -7.3 C 0 km/h
1329 13-01-2009 00:00:00 -0.17833 C 3.29 g/m*3 -0.18 C 0 km/h
1330 14-01-2009 00:00:00 -0.15917 C 4.05 g/m*3 -0.16 C 0 km/h
1331 15-01-2009 00:00:00 0.77417 C 4.28 g/m*3 0.77 C 0 km/h
1332 16-01-2009 00:00:00 0.69833 C 3.9 g/m*3 0.7 C 0 km/h
1333 17-01-2009 00:00:00 2.97833 C 4.9 g/m*3 2.98 C 0 km/h
1334 18-01-2009 00:00:00 4.50924 C 5.1 g/m*3 4.51 C 0 km/h
1335 19-01-2009 00:00:00 5.4575 C 5.21 g/m*3 5.46 C 0 km/h
1336 20-01-2009 00:00:00 3.6475 C 4.19 g/m*3 3.65 C 0 km/h
1337 21-01-2009 00:00:00 0.32 C 4.11 g/m*3 0.32 C 0 km/h
1338 22-01-2009 00:00:00 2.825 C 4.02 g/m*3 2.83 C 0 km/h
1339 23-01-2009 00:00:00 4.345 C 5.29 g/m*3 4.35 C 0 km/h
1340 24-01-2009 00:00:00 3.13 C 4.29 g/m*3 3.13 C 0 km/h
1341 25-01-2009 00:00:00 0.15167 C 4.08 g/m*3 0.15 C 0 km/h
1342 26-01-2009 00:00:00 -2.16917 C 3.69 g/m*3 -2.17 C 0 km/h
1343 27-01-2009 00:00:00 -0.93167 C 3.93 g/m*3 -0.93 C 0 km/h
1344 28-01-2009 00:00:00 0.50833 C 4.02 g/m*3 0.51 C 0 km/h
1345 29-01-2009 00:00:00 1.15667 C 3.12 g/m*3 1.16 C 0 km/h
1346 30-01-2009 00:00:00 -1.50917 C 3.06 g/m*3 -1.51 C 0 km/h
1347 31-01-2009 00:00:00 0.06303 C 2.59 g/m*3 0.06 C 0 km/h
1348 01-02-2009 00:00:00 -0.11167 C 2.24 g/m*3 -0.11 C 0 km/h
1349 02-02-2009 00:00:00 1.085 C 2.84 g/m*3 1.09 C 0 km/h
1350 03-02-2009 00:00:00 0.63833 C 3.81 g/m*3 0.64 C 0 km/h
Sensor: Nr:Datum:Temp:Abs-Feuchte:Windchill:Wind:
Aussen-T/F 1351 04-02-2009 00:00:00 3.0025 C 4.61 g/m*3 3 C 0 km/h
1352 05-02-2009 00:00:00 3.2325 C 4.69 g/m*3 3.23 C 0 km/h
1353 06-02-2009 00:00:00 4.3 C 5.03 g/m*3 4.3 C 0 km/h
1354 07-02-2009 00:00:00 4.03417 C 5.27 g/m*3 4.03 C 0 km/h
1355 08-02-2009 00:00:00 2.6525 C 3.3 g/m*3 2.65 C 0 km/h
1356 09-02-2009 00:00:00 2.3775 C 3.79 g/m*3 2.38 C 0 km/h
1357 10-02-2009 00:00:00 4.155 C 5.17 g/m*3 4.16 C 0 km/h
1358 11-02-2009 00:00:00 2.90333 C 3.62 g/m*3 2.9 C 0 km/h
1359 12-02-2009 00:00:00 0.68908 C 3.9 g/m*3 0.69 C 0 km/h
1360 13-02-2009 00:00:00 0.51333 C 4.05 g/m*3 0.51 C 0 km/h
1361 14-02-2009 00:00:00 0.46083 C 3.41 g/m*3 0.46 C 0 km/h
1362 15-02-2009 00:00:00 -1.63583 C 2.82 g/m*3 -1.64 C 0 km/h
1363 16-02-2009 00:00:00 1.96417 C 4.68 g/m*3 1.96 C 0 km/h
1364 17-02-2009 00:00:00 3.77167 C 5.13 g/m*3 3.77 C 0 km/h
1365 18-02-2009 00:00:00 -1.62667 C 2.39 g/m*3 -1.63 C 0 km/h
1366 19-02-2009 00:00:00 1.01417 C 2.7 g/m*3 1.01 C 0 km/h
1367 20-02-2009 00:00:00 3.41917 C 5.01 g/m*3 3.42 C 0 km/h
1368 21-02-2009 00:00:00 4.72083 C 4.87 g/m*3 4.72 C 0 km/h
1369 22-02-2009 00:00:00 5.24667 C 5.76 g/m*3 5.25 C 0 km/h
1370 23-02-2009 00:00:00 5.50083 C 4.72 g/m*3 5.5 C 0 km/h
1371 24-02-2009 00:00:00 4.8325 C 4.1 g/m*3 4.83 C 0 km/h
1372 25-02-2009 00:00:00 3.34286 C 4 g/m*3 3.34 C 0 km/h
1373 26-02-2009 00:00:00 6.7377 C 4.3 g/m*3 6.74 C 0 km/h
1374 27-02-2009 00:00:00 7.10417 C 5.5 g/m*3 7.1 C 0 km/h
1375 28-02-2009 00:00:00 10.0375 C 5.89 g/m*3 10.04 C 0 km/h
Sensor: Nr:Datum:Temp:Abs-Feuchte:Windchill:Wind:
Aussen-T/F 1376 01-03-2009 00:00:00 9.95 C 5.76 g/m*3 9.95 C 0 km/h
1377 02-03-2009 00:00:00 7.98 C 5.85 g/m*3 7.98 C 0 km/h
1378 03-03-2009 00:00:00 5.05583 C 3.94 g/m*3 5.06 C 0 km/h
1379 04-03-2009 00:00:00 7.27917 C 3.96 g/m*3 7.28 C 0 km/h
1380 05-03-2009 00:00:00 4.42917 C 5.35 g/m*3 4.43 C 0 km/h
1381 06-03-2009 00:00:00 3.82417 C 5.35 g/m*3 3.82 C 0 km/h
1382 07-03-2009 00:00:00 5.72167 C 3.85 g/m*3 5.72 C 0 km/h
1383 08-03-2009 00:00:00 7.50833 C 5.49 g/m*3 7.51 C 0 km/h
1384 09-03-2009 00:00:00 5.1521 C 4.17 g/m*3 5.15 C 0 km/h
1385 10-03-2009 00:00:00 5.4275 C 4.82 g/m*3 5.43 C 0 km/h
1386 11-03-2009 00:00:00 5.60417 C 4.35 g/m*3 5.6 C 0 km/h
1387 12-03-2009 00:00:00 5.67083 C 5.13 g/m*3 5.67 C 0 km/h
1388 13-03-2009 00:00:00 8.68167 C 5.63 g/m*3 8.68 C 0 km/h
1389 14-03-2009 00:00:00 8.925 C 5.68 g/m*3 8.93 C 0 km/h
1390 15-03-2009 00:00:00 9.41667 C 4.91 g/m*3 9.42 C 0 km/h
1391 16-03-2009 00:00:00 8.23417 C 5.83 g/m*3 8.23 C 0 km/h
1392 17-03-2009 00:00:00 7.73833 C 5.15 g/m*3 7.74 C 0 km/h
1393 18-03-2009 00:00:00 5.82417 C 3.93 g/m*3 5.82 C 0 km/h
1394 19-03-2009 00:00:00 5.41917 C 3.04 g/m*3 5.42 C 0 km/h
1395 20-03-2009 00:00:00 4.59917 C 2.69 g/m*3 4.6 C 0 km/h
1396 21-03-2009 00:00:00 5.07 C 2.81 g/m*3 5.07 C 0 km/h
1397 22-03-2009 00:00:00 5.16639 C 3.79 g/m*3 5.17 C 0 km/h
1398 23-03-2009 00:00:00 7.82917 C 4.91 g/m*3 7.83 C 0 km/h
1399 24-03-2009 00:00:00 3.67333 C 4.24 g/m*3 3.67 C 0 km/h
1400 25-03-2009 00:00:00 3.18417 C 4.69 g/m*3 3.18 C 0 km/h
Sensor: Nr:Datum:Temp:Abs-Feuchte:Windchill:Wind:
Aussen-T/F 1401 26-03-2009 00:00:00 6.40083 C 5.48 g/m*3 6.4 C 0 km/h
1402 27-03-2009 00:00:00 7.28333 C 5.31 g/m*3 7.28 C 0 km/h
1403 28-03-2009 00:00:00 6.97583 C 5.39 g/m*3 6.98 C 0 km/h
1404 29-03-2009 00:00:00 6.18435 C 4.96 g/m*3 6.18 C 0 km/h
1405 30-03-2009 00:00:00 6.41833 C 4.78 g/m*3 6.42 C 0 km/h
1406 31-03-2009 00:00:00 8.3325 C 4.49 g/m*3 8.33 C 0 km/h
1407 01-04-2009 00:00:00 10.89833 C 4.57 g/m*3 10.9 C 0 km/h
1408 02-04-2009 00:00:00 15.335 C 5.18 g/m*3 15.34 C 0 km/h
1409 03-04-2009 00:00:00 15.87143 C 6.71 g/m*3 15.87 C 0 km/h
1410 04-04-2009 00:00:00 16.68333 C 7.32 g/m*3 16.68 C 0 km/h
1411 05-04-2009 00:00:00 14.9675 C 6.93 g/m*3 14.97 C 0 km/h
1412 06-04-2009 00:00:00 14.72833 C 6.98 g/m*3 14.73 C 0 km/h
1413 07-04-2009 00:00:00 14.57333 C 7.41 g/m*3 14.57 C 0 km/h
1414 08-04-2009 00:00:00 14.20167 C 6.07 g/m*3 14.2 C 0 km/h
1415 09-04-2009 00:00:00 16.28067 C 7.49 g/m*3 16.28 C 0 km/h
1416 10-04-2009 00:00:00 18.55372 C 7.45 g/m*3 18.55 C 0 km/h
1417 11-04-2009 00:00:00 17.3525 C 7.29 g/m*3 17.35 C 0 km/h
1418 12-04-2009 00:00:00 16.79 C 8.39 g/m*3 16.79 C 0 km/h
1419 13-04-2009 00:00:00 15.65167 C 9.22 g/m*3 15.65 C 0 km/h
1420 14-04-2009 00:00:00 16.16167 C 8.27 g/m*3 16.16 C 0 km/h
1421 15-04-2009 00:00:00 16.94202 C 7.01 g/m*3 16.94 C 0 km/h
1422 16-04-2009 00:00:00 14.94583 C 6.79 g/m*3 14.95 C 0 km/h
1423 17-04-2009 00:00:00 10.0825 C 8.69 g/m*3 10.08 C 0 km/h
1424 18-04-2009 00:00:00 9.84 C 8.53 g/m*3 9.84 C 0 km/h
1425 19-04-2009 00:00:00 14.95667 C 7.61 g/m*3 14.96 C 0 km/h
Sensor: Nr:Datum:Temp:Abs-Feuchte:Windchill:Wind:
Aussen-T/F 1426 20-04-2009 00:00:00 15.16917 C 7.23 g/m*3 15.17 C 0 km/h
1427 21-04-2009 00:00:00 15.74583 C 6.35 g/m*3 15.75 C 0 km/h
1428 22-04-2009 00:00:00 13.68833 C 5.48 g/m*3 13.69 C 0 km/h
1429 23-04-2009 00:00:00 11.645 C 5.16 g/m*3 11.65 C 0 km/h
1430 24-04-2009 00:00:00 14.11333 C 5.96 g/m*3 14.11 C 0 km/h
1431 25-04-2009 00:00:00 14.64833 C 7.16 g/m*3 14.65 C 0 km/h
1432 26-04-2009 00:00:00 18.35 C 8.19 g/m*3 18.35 C 0 km/h
1433 27-04-2009 00:00:00 14.89496 C 7.27 g/m*3 14.89 C 0 km/h
1434 28-04-2009 00:00:00 11.07833 C 8.01 g/m*3 11.08 C 0 km/h
1435 29-04-2009 00:00:00 11.9025 C 7.14 g/m*3 11.9 C 0 km/h
1436 30-04-2009 00:00:00 12.85833 C 7.53 g/m*3 12.86 C 0 km/h
1437 01-05-2009 00:00:00 16.25583 C 8.09 g/m*3 16.26 C 0 km/h
1438 02-05-2009 00:00:00 17.60167 C 7.7 g/m*3 17.6 C 0 km/h
1439 03-05-2009 00:00:00 14.58333 C 7.12 g/m*3 14.58 C 0 km/h
1440 04-05-2009 00:00:00 11.88333 C 4.53 g/m*3 11.88 C 0 km/h
1441 05-05-2009 00:00:00 10.50917 C 6.68 g/m*3 10.51 C 0 km/h
1442 06-05-2009 00:00:00 13.85625 C 7.25 g/m*3 13.86 C 0 km/h
1443 07-05-2009 00:00:00 16.47708 C 7.43 g/m*3 16.48 C 0 km/h
1444 08-05-2009 00:00:00 16.58021 C 8.46 g/m*3 16.58 C 0 km/h
1445 09-05-2009 00:00:00 14.3875 C 8.01 g/m*3 14.39 C 0 km/h
1446 10-05-2009 00:00:00 17.72083 C 9.72 g/m*3 17.72 C 0 km/h
1447 11-05-2009 00:00:00 13.57188 C 11.06 g/m*3 13.57 C 0 km/h
1448 12-05-2009 00:00:00 11.83333 C 9.17 g/m*3 11.83 C 0 km/h
1449 13-05-2009 00:00:00 15.51771 C 8.96 g/m*3 15.52 C 0 km/h
1450 14-05-2009 00:00:00 16.00104 C 9.44 g/m*3 16 C 0 km/h
Sensor: Nr:Datum:Temp:Abs-Feuchte:Windchill:Wind:
Aussen-T/F 1451 15-05-2009 00:00:00 15.12255 C 10.34 g/m*3 15.12 C 0 km/h
1452 16-05-2009 00:00:00 13.80333 C 7.38 g/m*3 13.8 C 0 km/h
1453 17-05-2009 00:00:00 17.02083 C 7.92 g/m*3 17.02 C 0 km/h
1454 18-05-2009 00:00:00 16.95083 C 6.63 g/m*3 16.95 C 0 km/h
1455 19-05-2009 00:00:00 16.49333 C 7.85 g/m*3 16.49 C 0 km/h
1456 20-05-2009 00:00:00 18.70167 C 9.55 g/m*3 18.7 C 0 km/h
1457 21-05-2009 00:00:00 19.21167 C 10.72 g/m*3 19.21 C 0 km/h
1458 22-05-2009 00:00:00 17.97917 C 7.45 g/m*3 17.98 C 0 km/h
1459 23-05-2009 00:00:00 18.72083 C 7.4 g/m*3 18.72 C 0 km/h
1460 24-05-2009 00:00:00 22.53417 C 9.1 g/m*3 22.53 C 0 km/h
1461 25-05-2009 00:00:00 23.49833 C 10.6 g/m*3 23.5 C 0 km/h
1462 26-05-2009 00:00:00 19.86583 C 9.97 g/m*3 19.87 C 0 km/h
1463 27-05-2009 00:00:00 14.4425 C 6.18 g/m*3 14.44 C 0 km/h
1464 28-05-2009 00:00:00 15.5325 C 8.21 g/m*3 15.53 C 0 km/h
1465 29-05-2009 00:00:00 17.81765 C 6.76 g/m*3 17.82 C 0 km/h
1466 30-05-2009 00:00:00 18.43417 C 6.45 g/m*3 18.43 C 0 km/h
1467 31-05-2009 00:00:00 20.3075 C 7.55 g/m*3 20.31 C 0 km/h
1468 01-06-2009 00:00:00 19.42541 C 9.1 g/m*3 19.43 C 0 km/h
1469 02-06-2009 00:00:00 19.91917 C 8.16 g/m*3 19.92 C 0 km/h
1470 03-06-2009 00:00:00 16.3775 C 5.31 g/m*3 16.38 C 0 km/h
1471 04-06-2009 00:00:00 13.435 C 4.59 g/m*3 13.44 C 0 km/h
1472 05-06-2009 00:00:00 13.4075 C 5 g/m*3 13.41 C 0 km/h
1473 06-06-2009 00:00:00 9.18333 C 7.41 g/m*3 9.18 C 0 km/h
1474 07-06-2009 00:00:00 13.71083 C 8.43 g/m*3 13.71 C 0 km/h
1475 08-06-2009 00:00:00 16.58667 C 7.38 g/m*3 16.59 C 0 km/h
Sensor: Nr:Datum:Temp:Abs-Feuchte:Windchill:Wind:
Aussen-T/F 1476 09-06-2009 00:00:00 17.9275 C 9.37 g/m*3 17.93 C 0 km/h
1477 10-06-2009 00:00:00 17.24454 C 8.99 g/m*3 17.24 C 0 km/h
1478 11-06-2009 00:00:00 14.60417 C 9.26 g/m*3 14.6 C 0 km/h
1479 12-06-2009 00:00:00 15.915 C 7.28 g/m*3 15.92 C 0 km/h
1480 13-06-2009 00:00:00 18.29417 C 7.64 g/m*3 18.29 C 0 km/h
1481 14-06-2009 00:00:00 20.3875 C 10.19 g/m*3 20.39 C 0 km/h
1482 15-06-2009 00:00:00 16.76083 C 12.71 g/m*3 16.76 C 0 km/h
1483 16-06-2009 00:00:00 16.58083 C 9.69 g/m*3 16.58 C 0 km/h
1484 17-06-2009 00:00:00 19.89 C 9.38 g/m*3 19.89 C 0 km/h
1485 18-06-2009 00:00:00 19.45417 C 10.3 g/m*3 19.45 C 0 km/h
1486 19-06-2009 00:00:00 18.45583 C 7.96 g/m*3 18.46 C 0 km/h
1487 20-06-2009 00:00:00 13.84583 C 7.89 g/m*3 13.85 C 0 km/h
1488 21-06-2009 00:00:00 13.40167 C 8.61 g/m*3 13.4 C 0 km/h
1489 22-06-2009 00:00:00 15.23697 C 7.62 g/m*3 15.24 C 0 km/h
1490 23-06-2009 00:00:00 18.58583 C 7.92 g/m*3 18.59 C 0 km/h
1491 24-06-2009 00:00:00 22.29167 C 7.85 g/m*3 22.29 C 0 km/h
1492 25-06-2009 00:00:00 24.10583 C 9.67 g/m*3 24.11 C 0 km/h
1493 26-06-2009 00:00:00 24.31083 C 10.7 g/m*3 24.31 C 0 km/h
1494 27-06-2009 00:00:00 22.1625 C 12.54 g/m*3 22.16 C 0 km/h
1495 28-06-2009 00:00:00 25.04417 C 11.78 g/m*3 25.04 C 0 km/h
1496 29-06-2009 00:00:00 24.71583 C 12 g/m*3 24.72 C 0 km/h
1497 30-06-2009 00:00:00 22.55083 C 13.98 g/m*3 22.55 C 0 km/h
1498 01-07-2009 00:00:00 23.6175 C 13.73 g/m*3 23.62 C 0 km/h
1499 02-07-2009 00:00:00 25.95917 C 12.87 g/m*3 25.96 C 0 km/h
1500 03-07-2009 00:00:00 23.36083 C 13.72 g/m*3 23.36 C 0 km/h
Sensor: Nr:Datum:Temp:Abs-Feuchte:Windchill:Wind:
Aussen-T/F 1501 04-07-2009 00:00:00 24.17479 C 11.83 g/m*3 24.17 C 0 km/h
1502 05-07-2009 00:00:00 23.89917 C 11.07 g/m*3 23.9 C 0 km/h
1503 06-07-2009 00:00:00 21.82333 C 11.98 g/m*3 21.82 C 0 km/h
1504 07-07-2009 00:00:00 18.7625 C 10.11 g/m*3 18.76 C 0 km/h
1505 08-07-2009 00:00:00 16.39 C 9.61 g/m*3 16.39 C 0 km/h
1506 09-07-2009 00:00:00 16.38583 C 8.58 g/m*3 16.39 C 0 km/h
1507 10-07-2009 00:00:00 15.17083 C 7.78 g/m*3 15.17 C 0 km/h
1508 11-07-2009 00:00:00 17.55667 C 8.2 g/m*3 17.56 C 0 km/h
1509 12-07-2009 00:00:00 19.3525 C 10.57 g/m*3 19.35 C 0 km/h
1510 13-07-2009 00:00:00 21.76917 C 12.23 g/m*3 21.77 C 0 km/h
1511 14-07-2009 00:00:00 23.4 C 13.46 g/m*3 23.4 C 0 km/h
1512 15-07-2009 00:00:00 24.0475 C 10.2 g/m*3 24.05 C 0 km/h
1513 16-07-2009 00:00:00 23.37479 C 9.98 g/m*3 23.37 C 0 km/h
1514 17-07-2009 00:00:00 20.90917 C 9.78 g/m*3 20.91 C 0 km/h
1515 18-07-2009 00:00:00 17.575 C 8.46 g/m*3 17.58 C 0 km/h
1516 19-07-2009 00:00:00 17.92167 C 8.71 g/m*3 17.92 C 0 km/h
1517 20-07-2009 00:00:00 19.82583 C 7.87 g/m*3 19.83 C 0 km/h
1518 21-07-2009 00:00:00 23.22833 C 11.03 g/m*3 23.23 C 0 km/h
1519 22-07-2009 00:00:00 25.10583 C 12 g/m*3 25.11 C 0 km/h
1520 23-07-2009 00:00:00 22.65417 C 12.31 g/m*3 22.65 C 0 km/h
1521 24-07-2009 00:00:00 20.33167 C 9.89 g/m*3 20.33 C 0 km/h
1522 25-07-2009 00:00:00 18.03083 C 9.21 g/m*3 18.03 C 0 km/h
1523 26-07-2009 00:00:00 19.94833 C 9.75 g/m*3 19.95 C 0 km/h
1524 27-07-2009 00:00:00 20.60667 C 10.4 g/m*3 20.61 C 0 km/h
1525 28-07-2009 00:00:00 20.41513 C 8.48 g/m*3 20.42 C 0 km/h
Sensor: Nr:Datum:Temp:Abs-Feuchte:Windchill:Wind:
Aussen-T/F 1526 29-07-2009 00:00:00 21.77833 C 9.2 g/m*3 21.78 C 0 km/h
1527 30-07-2009 00:00:00 21.10583 C 8.72 g/m*3 21.11 C 0 km/h
1528 31-07-2009 00:00:00 20.32583 C 7.51 g/m*3 20.33 C 0 km/h
1529 01-08-2009 00:00:00 22.455 C 8.67 g/m*3 22.46 C 0 km/h
1530 02-08-2009 00:00:00 20.47167 C 10.91 g/m*3 20.47 C 0 km/h
1531 03-08-2009 00:00:00 19.3075 C 9.46 g/m*3 19.31 C 0 km/h
1532 04-08-2009 00:00:00 20.48917 C 8.95 g/m*3 20.49 C 0 km/h
1533 05-08-2009 00:00:00 22.0275 C 8.17 g/m*3 22.03 C 0 km/h
1534 06-08-2009 00:00:00 24.19667 C 9.51 g/m*3 24.2 C 0 km/h
1535 07-08-2009 00:00:00 25.2075 C 10.12 g/m*3 25.21 C 0 km/h
1536 08-08-2009 00:00:00 21.22583 C 12.28 g/m*3 21.23 C 0 km/h
1537 09-08-2009 00:00:00 22.82101 C 12.15 g/m*3 22.82 C 0 km/h
1538 10-08-2009 00:00:00 21.7025 C 11.79 g/m*3 21.7 C 0 km/h
1539 11-08-2009 00:00:00 20.44 C 11.61 g/m*3 20.44 C 0 km/h
1540 12-08-2009 00:00:00 20.9725 C 11.23 g/m*3 20.97 C 0 km/h
1541 13-08-2009 00:00:00 18.55917 C 12.82 g/m*3 18.56 C 0 km/h
1542 14-08-2009 00:00:00 19.44083 C 10.85 g/m*3 19.44 C 0 km/h
1543 15-08-2009 00:00:00 21.37917 C 10.5 g/m*3 21.38 C 0 km/h
1544 16-08-2009 00:00:00 23.84583 C 11 g/m*3 23.85 C 0 km/h
1545 17-08-2009 00:00:00 23.615 C 11.27 g/m*3 23.62 C 0 km/h
1546 18-08-2009 00:00:00 22.105 C 9.45 g/m*3 22.11 C 0 km/h
1547 19-08-2009 00:00:00 23.76 C 10.14 g/m*3 23.76 C 0 km/h
1548 20-08-2009 00:00:00 26.03167 C 11.39 g/m*3 26.03 C 0 km/h
1549 21-08-2009 00:00:00 20.32185 C 10.69 g/m*3 20.32 C 0 km/h
1550 22-08-2009 00:00:00 19.745 C 9.13 g/m*3 19.75 C 0 km/h
Sensor: Nr:Datum:Temp:Abs-Feuchte:Windchill:Wind:
Aussen-T/F 1551 23-08-2009 00:00:00 20.0375 C 8.31 g/m*3 20.04 C 0 km/h
1552 24-08-2009 00:00:00 22.19667 C 9.27 g/m*3 22.2 C 0 km/h
1553 25-08-2009 00:00:00 23.11917 C 10.67 g/m*3 23.12 C 0 km/h
1554 26-08-2009 00:00:00 21.68417 C 9.77 g/m*3 21.68 C 0 km/h
1555 27-08-2009 00:00:00 23.10167 C 10.48 g/m*3 23.1 C 0 km/h
1556 28-08-2009 00:00:00 21.60583 C 8.45 g/m*3 21.61 C 0 km/h
1557 29-08-2009 00:00:00 16.21167 C 6.62 g/m*3 16.21 C 0 km/h
1558 30-08-2009 00:00:00 16.655 C 6.94 g/m*3 16.66 C 0 km/h
1559 31-08-2009 00:00:00 19.54667 C 7.6 g/m*3 19.55 C 0 km/h
1560 01-09-2009 00:00:00 19.93167 C 10.19 g/m*3 19.93 C 0 km/h
1561 02-09-2009 00:00:00 18.765 C 9.38 g/m*3 18.77 C 0 km/h
1562 03-09-2009 00:00:00 17.39328 C 8.67 g/m*3 17.39 C 0 km/h
1563 04-09-2009 00:00:00 14.56333 C 8.22 g/m*3 14.56 C 0 km/h
1564 05-09-2009 00:00:00 15.10833 C 7.6 g/m*3 15.11 C 0 km/h
1565 06-09-2009 00:00:00 14.74583 C 8.27 g/m*3 14.75 C 0 km/h
1566 07-09-2009 00:00:00 17.63417 C 8.91 g/m*3 17.63 C 0 km/h
1567 08-09-2009 00:00:00 19.88167 C 9.54 g/m*3 19.88 C 0 km/h
1568 09-09-2009 00:00:00 19.7475 C 9.47 g/m*3 19.75 C 0 km/h
1569 10-09-2009 00:00:00 18.43917 C 10.33 g/m*3 18.44 C 0 km/h
1570 11-09-2009 00:00:00 17.6725 C 7.37 g/m*3 17.67 C 0 km/h
1571 12-09-2009 00:00:00 16.99083 C 7.3 g/m*3 16.99 C 0 km/h
1572 13-09-2009 00:00:00 14.23 C 8.62 g/m*3 14.23 C 0 km/h
1573 14-09-2009 00:00:00 12.17417 C 10.1 g/m*3 12.17 C 0 km/h
1574 15-09-2009 00:00:00 13.7563 C 10.75 g/m*3 13.76 C 0 km/h
1575 16-09-2009 00:00:00 16.725 C 11.49 g/m*3 16.73 C 0 km/h
Sensor: Nr:Datum:Temp:Abs-Feuchte:Windchill:Wind:
Aussen-T/F 1576 17-09-2009 00:00:00 18.47583 C 9.96 g/m*3 18.48 C 0 km/h
1577 18-09-2009 00:00:00 18.26083 C 9.85 g/m*3 18.26 C 0 km/h
1578 19-09-2009 00:00:00 20.78583 C 11.08 g/m*3 20.79 C 0 km/h
1579 20-09-2009 00:00:00 19.92833 C 11.89 g/m*3 19.93 C 0 km/h
1580 21-09-2009 00:00:00 18.85833 C 10.75 g/m*3 18.86 C 0 km/h
1581 22-09-2009 00:00:00 17.215 C 9.52 g/m*3 17.22 C 0 km/h
1582 23-09-2009 00:00:00 17.4225 C 9.72 g/m*3 17.42 C 0 km/h
1583 24-09-2009 00:00:00 17.19 C 10.45 g/m*3 17.19 C 0 km/h
1584 25-09-2009 00:00:00 15.16083 C 8.71 g/m*3 15.16 C 0 km/h
1585 26-09-2009 00:00:00 14.56333 C 8.19 g/m*3 14.56 C 0 km/h
1586 27-09-2009 00:00:00 14.64 C 8.22 g/m*3 14.64 C 0 km/h
1587 28-09-2009 00:00:00 14.21583 C 8.47 g/m*3 14.22 C 0 km/h
1588 29-09-2009 00:00:00 15.88319 C 8.68 g/m*3 15.88 C 0 km/h
1589 30-09-2009 00:00:00 16.535 C 9.98 g/m*3 16.54 C 0 km/h
1590 01-10-2009 00:00:00 14.71583 C 8.88 g/m*3 14.72 C 0 km/h
1591 02-10-2009 00:00:00 11.32167 C 6.59 g/m*3 11.32 C 0 km/h
1592 03-10-2009 00:00:00 11.72333 C 6.76 g/m*3 11.72 C 0 km/h
1593 04-10-2009 00:00:00 13.54167 C 7.94 g/m*3 13.54 C 0 km/h
1594 05-10-2009 00:00:00 12.4075 C 9.99 g/m*3 12.41 C 0 km/h
1595 06-10-2009 00:00:00 16.13417 C 12.08 g/m*3 16.13 C 0 km/h
1596 07-10-2009 00:00:00 19.57083 C 12.9 g/m*3 19.57 C 0 km/h
1597 08-10-2009 00:00:00 16.41167 C 9.99 g/m*3 16.41 C 0 km/h
1598 09-10-2009 00:00:00 11.88417 C 7.56 g/m*3 11.88 C 0 km/h
1599 10-10-2009 00:00:00 13.34667 C 9.66 g/m*3 13.35 C 0 km/h
1600 11-10-2009 00:00:00 12.35042 C 8.83 g/m*3 12.35 C 0 km/h
Sensor: Nr:Datum:Temp:Abs-Feuchte:Windchill:Wind:
Aussen-T/F 1601 12-10-2009 00:00:00 10.9275 C 6.43 g/m*3 10.93 C 0 km/h
1602 13-10-2009 00:00:00 9.24333 C 6.35 g/m*3 9.24 C 0 km/h
1603 14-10-2009 00:00:00 4.27333 C 4.38 g/m*3 4.27 C 0 km/h
1604 15-10-2009 00:00:00 3.45583 C 4.18 g/m*3 3.46 C 0 km/h
1605 16-10-2009 00:00:00 6.41083 C 5.8 g/m*3 6.41 C 0 km/h
1606 17-10-2009 00:00:00 8.52083 C 5.63 g/m*3 8.52 C 0 km/h
1607 18-10-2009 00:00:00 7.3775 C 5.38 g/m*3 7.38 C 0 km/h
1608 19-10-2009 00:00:00 4.59 C 4.71 g/m*3 4.59 C 0 km/h
1609 20-10-2009 00:00:00 5.17083 C 4.82 g/m*3 5.17 C 0 km/h
1610 21-10-2009 00:00:00 8.07333 C 5.02 g/m*3 8.07 C 0 km/h
1611 22-10-2009 00:00:00 9.4 C 5.91 g/m*3 9.4 C 0 km/h
1612 23-10-2009 00:00:00 8.34 C 7.02 g/m*3 8.34 C 0 km/h
1613 24-10-2009 00:00:00 10.5084 C 7.81 g/m*3 10.51 C 0 km/h
1614 25-10-2009 00:00:00 12.6096 C 8.4 g/m*3 12.61 C 0 km/h
1615 26-10-2009 00:00:00 11.8875 C 7.56 g/m*3 11.89 C 0 km/h
1616 27-10-2009 00:00:00 11.82417 C 7.63 g/m*3 11.82 C 0 km/h
1617 28-10-2009 00:00:00 8.37917 C 7.06 g/m*3 8.38 C 0 km/h
1618 29-10-2009 00:00:00 8.69333 C 7.48 g/m*3 8.69 C 0 km/h
1619 30-10-2009 00:00:00 10.54083 C 7.59 g/m*3 10.54 C 0 km/h
1620 31-10-2009 00:00:00 7.03083 C 5.82 g/m*3 7.03 C 0 km/h
1621 01-11-2009 00:00:00 9.17333 C 6.74 g/m*3 9.17 C 0 km/h
1622 02-11-2009 00:00:00 10.32333 C 8.29 g/m*3 10.32 C 0 km/h
1623 03-11-2009 00:00:00 8.06167 C 6.19 g/m*3 8.06 C 0 km/h
1624 04-11-2009 00:00:00 8.75 C 7.01 g/m*3 8.75 C 0 km/h
1625 05-11-2009 00:00:00 9.29748 C 6.2 g/m*3 9.3 C 0 km/h
Sensor: Nr:Datum:Temp:Abs-Feuchte:Windchill:Wind:
Aussen-T/F 1626 06-11-2009 00:00:00 9.43333 C 6.28 g/m*3 9.43 C 0 km/h
1627 07-11-2009 00:00:00 8.11583 C 5.94 g/m*3 8.12 C 0 km/h
1628 08-11-2009 00:00:00 6.9 C 6.33 g/m*3 6.9 C 0 km/h
1629 09-11-2009 00:00:00 6.21167 C 6.26 g/m*3 6.21 C 0 km/h
1630 10-11-2009 00:00:00 6.03 C 6.79 g/m*3 6.03 C 0 km/h
1631 11-11-2009 00:00:00 6.2525 C 6.18 g/m*3 6.25 C 0 km/h
1632 12-11-2009 00:00:00 4.66 C 6.06 g/m*3 4.66 C 0 km/h
1633 13-11-2009 00:00:00 11.27583 C 8.27 g/m*3 11.28 C 0 km/h
1634 14-11-2009 00:00:00 11.7125 C 7.87 g/m*3 11.71 C 0 km/h
1635 15-11-2009 00:00:00 11.2125 C 6.89 g/m*3 11.21 C 0 km/h
1636 16-11-2009 00:00:00 10.92667 C 8.53 g/m*3 10.93 C 0 km/h
1637 17-11-2009 00:00:00 10.88235 C 8.48 g/m*3 10.88 C 0 km/h
1638 18-11-2009 00:00:00 10.245 C 6.24 g/m*3 10.25 C 0 km/h
1639 19-11-2009 00:00:00 9.77667 C 6.57 g/m*3 9.78 C 0 km/h
1640 20-11-2009 00:00:00 7.87917 C 6.83 g/m*3 7.88 C 0 km/h
1641 21-11-2009 00:00:00 11.67333 C 7.8 g/m*3 11.67 C 0 km/h
1642 22-11-2009 00:00:00 11.84167 C 6.48 g/m*3 11.84 C 0 km/h
1643 23-11-2009 00:00:00 10.33417 C 6.93 g/m*3 10.33 C 0 km/h
1644 24-11-2009 00:00:00 11.89833 C 7.31 g/m*3 11.9 C 0 km/h
1645 25-11-2009 00:00:00 12.0875 C 6.36 g/m*3 12.09 C 0 km/h
1646 26-11-2009 00:00:00 9.98917 C 5.73 g/m*3 9.99 C 0 km/h
1647 27-11-2009 00:00:00 9.0425 C 5.58 g/m*3 9.04 C 0 km/h
1648 28-11-2009 00:00:00 8.79 C 5.95 g/m*3 8.79 C 0 km/h
1649 29-11-2009 00:00:00 9.41597 C 6.1 g/m*3 9.42 C 0 km/h
1650 30-11-2009 00:00:00 6.46 C 6.32 g/m*3 6.46 C 0 km/h
Sensor: Nr:Datum:Temp:Abs-Feuchte:Windchill:Wind:
Aussen-T/F 1651 01-12-2009 00:00:00 5.65583 C 5.93 g/m*3 5.66 C 0 km/h
1652 02-12-2009 00:00:00 5.96 C 5.22 g/m*3 5.96 C 0 km/h
1653 03-12-2009 00:00:00 8.53667 C 6.07 g/m*3 8.54 C 0 km/h
1654 04-12-2009 00:00:00 4.73917 C 4.37 g/m*3 4.74 C 0 km/h
1655 05-12-2009 00:00:00 5.3975 C 5.13 g/m*3 5.4 C 0 km/h
1656 06-12-2009 00:00:00 9.83 C 7.53 g/m*3 9.83 C 0 km/h
1657 07-12-2009 00:00:00 5.59917 C 6.01 g/m*3 5.6 C 0 km/h
1658 08-12-2009 00:00:00 6.95833 C 6.27 g/m*3 6.96 C 0 km/h
1659 09-12-2009 00:00:00 7.2525 C 6.19 g/m*3 7.25 C 0 km/h
1660 10-12-2009 00:00:00 8.78583 C 6.99 g/m*3 8.79 C 0 km/h
1661 11-12-2009 00:00:00 6.665 C 6.16 g/m*3 6.67 C 0 km/h
1662 12-12-2009 00:00:00 3.47833 C 5.29 g/m*3 3.48 C 0 km/h
1663 13-12-2009 00:00:00 1.50924 C 3.54 g/m*3 1.51 C 0 km/h
1664 14-12-2009 00:00:00 -0.80667 C 2.67 g/m*3 -0.81 C 0 km/h
1665 15-12-2009 00:00:00 -0.50083 C 2.88 g/m*3 -0.5 C 0 km/h
1666 16-12-2009 00:00:00 -1.19917 C 2.79 g/m*3 -1.2 C 0 km/h
1667 17-12-2009 00:00:00 -4.445 C 2.62 g/m*3 -4.45 C 0 km/h
1668 18-12-2009 00:00:00 -5.04417 C 2.34 g/m*3 -5.04 C 0 km/h
1669 19-12-2009 00:00:00 -12.79 C 1.12 g/m*3 -12.79 C 0 km/h
1670 20-12-2009 00:00:00 -8.03917 C 1.87 g/m*3 -8.04 C 0 km/h
1671 21-12-2009 00:00:00 -2.18417 C 3.25 g/m*3 -2.18 C 0 km/h
1672 22-12-2009 00:00:00 2.7175 C 5.09 g/m*3 2.72 C 0 km/h
1673 23-12-2009 00:00:00 0.49333 C 4.68 g/m*3 0.49 C 0 km/h
1674 24-12-2009 00:00:00 2.31333 C 5.15 g/m*3 2.31 C 0 km/h
1675 25-12-2009 00:00:00 4.38824 C 5.08 g/m*3 4.39 C 0 km/h
Sensor: Nr:Datum:Temp:Abs-Feuchte:Windchill:Wind:
Aussen-T/F 1676 26-12-2009 00:00:00 2.04583 C 4.45 g/m*3 2.05 C 0 km/h
1677 27-12-2009 00:00:00 0.5475 C 4.38 g/m*3 0.55 C 0 km/h
1678 28-12-2009 00:00:00 3.1425 C 4.49 g/m*3 3.14 C 0 km/h
1679 29-12-2009 00:00:00 0.4625 C 4.61 g/m*3 0.46 C 0 km/h
1680 30-12-2009 00:00:00 7.05667 C 7.27 g/m*3 7.06 C 0 km/h
1681 31-12-2009 00:00:00 5.32667 C 6.59 g/m*3 5.33 C 0 km/h
1682 01-01-2010 00:00:00 -0.1725 C 4.38 g/m*3 -0.17 C 0 km/h
1683 02-01-2010 00:00:00 -1.51083 C 3.34 g/m*3 -1.51 C 0 km/h
1684 03-01-2010 00:00:00 -1.79667 C 3.45 g/m*3 -1.8 C 0 km/h
1685 04-01-2010 00:00:00 -5.24083 C 2.41 g/m*3 -5.24 C 0 km/h
1686 05-01-2010 00:00:00 -8.00083 C 2.22 g/m*3 -8 C 0 km/h
1687 06-01-2010 00:00:00 -6.88917 C 2.25 g/m*3 -6.89 C 0 km/h
1688 07-01-2010 00:00:00 -3.75966 C 2.79 g/m*3 -3.76 C 0 km/h
1689 08-01-2010 00:00:00 -4.82167 C 2.54 g/m*3 -4.82 C 0 km/h
1690 09-01-2010 00:00:00 -2.655 C 3.05 g/m*3 -2.66 C 0 km/h
1691 10-01-2010 00:00:00 -1.87083 C 3.27 g/m*3 -1.87 C 0 km/h
1692 11-01-2010 00:00:00 -1.42833 C 3.62 g/m*3 -1.43 C 0 km/h
1693 12-01-2010 00:00:00 -1.65833 C 3.4 g/m*3 -1.66 C 0 km/h
1694 13-01-2010 00:00:00 -2.2325 C 2.99 g/m*3 -2.23 C 0 km/h
1695 14-01-2010 00:00:00 0.35417 C 3.98 g/m*3 0.35 C 0 km/h
1696 15-01-2010 00:00:00 0.87333 C 4.07 g/m*3 0.87 C 0 km/h
1697 16-01-2010 00:00:00 -0.11833 C 3.75 g/m*3 -0.12 C 0 km/h
1698 17-01-2010 00:00:00 2.09667 C 5.1 g/m*3 2.1 C 0 km/h
1699 18-01-2010 00:00:00 3.38333 C 5.07 g/m*3 3.38 C 0 km/h
1700 19-01-2010 00:00:00 2.24583 C 5.1 g/m*3 2.25 C 0 km/h
Sensor: Nr:Datum:Temp:Abs-Feuchte:Windchill:Wind:
Aussen-T/F 1701 20-01-2010 00:00:00 1.97417 C 4.66 g/m*3 1.97 C 0 km/h
1702 21-01-2010 00:00:00 2.45126 C 4.02 g/m*3 2.45 C 0 km/h
1703 22-01-2010 00:00:00 2.93667 C 4.24 g/m*3 2.94 C 0 km/h
1704 23-01-2010 00:00:00 -0.41333 C 3.36 g/m*3 -0.41 C 0 km/h
1705 24-01-2010 00:00:00 0.27167 C 4.06 g/m*3 0.27 C 0 km/h
1706 25-01-2010 00:00:00 0.01667 C 4.19 g/m*3 0.02 C 0 km/h
1707 26-01-2010 00:00:00 -3.325 C 2.8 g/m*3 -3.33 C 0 km/h
1708 27-01-2010 00:00:00 -5.54083 C 2.18 g/m*3 -5.54 C 0 km/h
1709 28-01-2010 00:00:00 1.20667 C 4.04 g/m*3 1.21 C 0 km/h
1710 29-01-2010 00:00:00 1.39083 C 4.5 g/m*3 1.39 C 0 km/h
1711 30-01-2010 00:00:00 -1.54583 C 3.39 g/m*3 -1.55 C 0 km/h
1712 31-01-2010 00:00:00 -1.62333 C 3.2 g/m*3 -1.62 C 0 km/h
1713 01-02-2010 00:00:00 0.20167 C 3.69 g/m*3 0.2 C 0 km/h
1714 02-02-2010 00:00:00 0.69916 C 4 g/m*3 0.7 C 0 km/h
1715 03-02-2010 00:00:00 2.28899 C 5.05 g/m*3 2.29 C 0 km/h
1716 04-02-2010 00:00:00 4.17018 C 5.55 g/m*3 4.17 C 0 km/h
1717 05-02-2010 00:00:00 3.29649 C 4.9 g/m*3 3.3 C 0 km/h
1718 06-02-2010 00:00:00 4.55172 C 5.47 g/m*3 4.55 C 0 km/h
1719 07-02-2010 00:00:00 4.17018 C 5.02 g/m*3 4.17 C 0 km/h
1720 08-02-2010 00:00:00 -0.75 C 2.85 g/m*3 -0.75 C 0 km/h
1721 09-02-2010 00:00:00 -3.74483 C 2.17 g/m*3 -3.74 C 0 km/h
1722 10-02-2010 00:00:00 -4.8 C 2.32 g/m*3 -4.8 C 0 km/h
1723 11-02-2010 00:00:00 -3.79828 C 2.62 g/m*3 -3.8 C 0 km/h
1724 12-02-2010 00:00:00 -2.14737 C 2.95 g/m*3 -2.15 C 0 km/h
1725 13-02-2010 00:00:00 -2.57414 C 2.82 g/m*3 -2.57 C 0 km/h
Sensor: Nr:Datum:Temp:Abs-Feuchte:Windchill:Wind:
Aussen-T/F 1726 14-02-2010 00:00:00 -2.13621 C 3.1 g/m*3 -2.14 C 0 km/h
1727 15-02-2010 00:00:00 -1.12632 C 3.21 g/m*3 -1.13 C 0 km/h
1728 16-02-2010 00:00:00 -1.16379 C 3.02 g/m*3 -1.16 C 0 km/h
1729 17-02-2010 00:00:00 -1.61754 C 3.18 g/m*3 -1.62 C 0 km/h
1730 18-02-2010 00:00:00 3.2569 C 4.56 g/m*3 3.26 C 0 km/h
1731 19-02-2010 00:00:00 3.59375 C 4.12 g/m*3 3.59 C 0 km/h
1732 20-02-2010 00:00:00 1.69333 C 3.53 g/m*3 1.69 C 0 km/h
1733 21-02-2010 00:00:00 2.87833 C 4.25 g/m*3 2.88 C 0 km/h
1734 22-02-2010 00:00:00 6.76417 C 5.24 g/m*3 6.76 C 0 km/h
1735 23-02-2010 00:00:00 9.7875 C 7.07 g/m*3 9.79 C 0 km/h
1736 24-02-2010 00:00:00 9.55 C 6.5 g/m*3 9.55 C 0 km/h
1737 25-02-2010 00:00:00 9.58 C 5.92 g/m*3 9.58 C 0 km/h
1738 26-02-2010 00:00:00 8.62667 C 5.33 g/m*3 8.63 C 0 km/h
1739 27-02-2010 00:00:00 8.4025 C 4.07 g/m*3 8.4 C 0 km/h
1740 28-02-2010 00:00:00 8.30667 C 5.5 g/m*3 8.31 C 0 km/h
1741 01-03-2010 00:00:00 5.40917 C 3.85 g/m*3 5.41 C 0 km/h
1742 02-03-2010 00:00:00 3.135 C 3.87 g/m*3 3.14 C 0 km/h
1743 03-03-2010 00:00:00 2.9925 C 3.33 g/m*3 2.99 C 0 km/h
1744 04-03-2010 00:00:00 2.47395 C 2.67 g/m*3 2.47 C 0 km/h
1745 05-03-2010 00:00:00 0.77667 C 2.41 g/m*3 0.78 C 0 km/h
1746 06-03-2010 00:00:00 -0.47083 C 3.38 g/m*3 -0.47 C 0 km/h
1747 07-03-2010 00:00:00 -1.6825 C 2.27 g/m*3 -1.68 C 0 km/h
1748 08-03-2010 00:00:00 -1.21083 C 1.92 g/m*3 -1.21 C 0 km/h
1749 09-03-2010 00:00:00 -0.87167 C 1.76 g/m*3 -0.87 C 0 km/h
1750 10-03-2010 00:00:00 1.41667 C 1.75 g/m*3 1.42 C 0 km/h
Sensor: Nr:Datum:Temp:Abs-Feuchte:Windchill:Wind:
Aussen-T/F 1751 11-03-2010 00:00:00 0.40167 C 2.56 g/m*3 0.4 C 0 km/h
1752 12-03-2010 00:00:00 1.61167 C 3.86 g/m*3 1.61 C 0 km/h
1753 13-03-2010 00:00:00 4.36583 C 4.23 g/m*3 4.37 C 0 km/h
1754 14-03-2010 00:00:00 5.79833 C 4.06 g/m*3 5.8 C 0 km/h
1755 15-03-2010 00:00:00 6.445 C 5.04 g/m*3 6.45 C 0 km/h
1756 16-03-2010 00:00:00 6.08067 C 5.63 g/m*3 6.08 C 0 km/h
1757 17-03-2010 00:00:00 6.69417 C 4.48 g/m*3 6.69 C 0 km/h
1758 18-03-2010 00:00:00 10.12333 C 4.54 g/m*3 10.12 C 0 km/h
1759 19-03-2010 00:00:00 15.0225 C 4.66 g/m*3 15.02 C 0 km/h
1760 20-03-2010 00:00:00 14.37667 C 8.46 g/m*3 14.38 C 0 km/h
1761 21-03-2010 00:00:00 11.23667 C 8.65 g/m*3 11.24 C 0 km/h
1762 22-03-2010 00:00:00 9.7575 C 7.03 g/m*3 9.76 C 0 km/h
1763 23-03-2010 00:00:00 8.94 C 6.12 g/m*3 8.94 C 0 km/h
1764 24-03-2010 00:00:00 11.9975 C 6.24 g/m*3 12 C 0 km/h
1765 25-03-2010 00:00:00 14.27083 C 6.52 g/m*3 14.27 C 0 km/h
1766 26-03-2010 00:00:00 10.0325 C 7.02 g/m*3 10.03 C 0 km/h
1767 27-03-2010 00:00:00 9.34333 C 5.7 g/m*3 9.34 C 0 km/h
1768 28-03-2010 00:00:00 9.93478 C 6.19 g/m*3 9.93 C 0 km/h
1769 29-03-2010 00:00:00 11.88167 C 8.04 g/m*3 11.88 C 0 km/h
1770 30-03-2010 00:00:00 12.70672 C 6.43 g/m*3 12.71 C 0 km/h
1771 31-03-2010 00:00:00 8.18667 C 4.45 g/m*3 8.19 C 0 km/h
1772 01-04-2010 00:00:00 5.84333 C 3.76 g/m*3 5.84 C 0 km/h
1773 02-04-2010 00:00:00 6.48583 C 4.37 g/m*3 6.49 C 0 km/h
1774 03-04-2010 00:00:00 9.73667 C 5.47 g/m*3 9.74 C 0 km/h
1775 04-04-2010 00:00:00 8.98833 C 5.25 g/m*3 8.99 C 0 km/h
Sensor: Nr:Datum:Temp:Abs-Feuchte:Windchill:Wind:
Aussen-T/F 1776 05-04-2010 00:00:00 9.15083 C 4.56 g/m*3 9.15 C 0 km/h
1777 06-04-2010 00:00:00 10.38167 C 4.41 g/m*3 10.38 C 0 km/h
1778 07-04-2010 00:00:00 13.61167 C 5.07 g/m*3 13.61 C 0 km/h
1779 08-04-2010 00:00:00 12.375 C 6.96 g/m*3 12.38 C 0 km/h
1780 09-04-2010 00:00:00 11.49917 C 5.91 g/m*3 11.5 C 0 km/h
1781 10-04-2010 00:00:00 11.3575 C 4.66 g/m*3 11.36 C 0 km/h
1782 11-04-2010 00:00:00 7.86667 C 4.35 g/m*3 7.87 C 0 km/h
1783 12-04-2010 00:00:00 7.44958 C 5.35 g/m*3 7.45 C 0 km/h
1784 13-04-2010 00:00:00 11.85583 C 6.16 g/m*3 11.86 C 0 km/h
1785 14-04-2010 00:00:00 11.76417 C 4.66 g/m*3 11.76 C 0 km/h
1786 15-04-2010 00:00:00 11.8575 C 5 g/m*3 11.86 C 0 km/h
1787 16-04-2010 00:00:00 9.71583 C 4.32 g/m*3 9.72 C 0 km/h
1788 17-04-2010 00:00:00 11.1225 C 4.54 g/m*3 11.12 C 0 km/h
1789 18-04-2010 00:00:00 13.27917 C 4.52 g/m*3 13.28 C 0 km/h
1790 19-04-2010 00:00:00 11.18333 C 5.12 g/m*3 11.18 C 0 km/h
1791 20-04-2010 00:00:00 11.13833 C 5.11 g/m*3 11.14 C 0 km/h
1792 21-04-2010 00:00:00 7.34417 C 3.84 g/m*3 7.34 C 0 km/h
1793 22-04-2010 00:00:00 8.35333 C 3.82 g/m*3 8.35 C 0 km/h
1794 23-04-2010 00:00:00 11.44917 C 4.09 g/m*3 11.45 C 0 km/h
1795 24-04-2010 00:00:00 14.91167 C 4.56 g/m*3 14.91 C 0 km/h
1796 25-04-2010 00:00:00 17.1075 C 5.25 g/m*3 17.11 C 0 km/h
1797 26-04-2010 00:00:00 15.72269 C 7.07 g/m*3 15.72 C 0 km/h
1798 27-04-2010 00:00:00 15.50417 C 6.31 g/m*3 15.5 C 0 km/h
1799 28-04-2010 00:00:00 16.8925 C 6.33 g/m*3 16.89 C 0 km/h
1800 29-04-2010 00:00:00 19.21417 C 6.68 g/m*3 19.21 C 0 km/h
Sensor: Nr:Datum:Temp:Abs-Feuchte:Windchill:Wind:
Aussen-T/F 1801 30-04-2010 00:00:00 18.69583 C 7.11 g/m*3 18.7 C 0 km/h
1802 01-05-2010 00:00:00 15.09917 C 6.78 g/m*3 15.1 C 0 km/h
1803 02-05-2010 00:00:00 13.48583 C 7.64 g/m*3 13.49 C 0 km/h
1804 03-05-2010 00:00:00 10.01667 C 6.94 g/m*3 10.02 C 0 km/h
1805 04-05-2010 00:00:00 9.78833 C 5.53 g/m*3 9.79 C 0 km/h
1806 05-05-2010 00:00:00 10.09083 C 3.78 g/m*3 10.09 C 0 km/h
1807 06-05-2010 00:00:00 6.68167 C 6.78 g/m*3 6.68 C 0 km/h
1808 07-05-2010 00:00:00 6.49417 C 6.66 g/m*3 6.49 C 0 km/h
1809 08-05-2010 00:00:00 11.06218 C 6.38 g/m*3 11.06 C 0 km/h
1810 09-05-2010 00:00:00 12.575 C 6.93 g/m*3 12.58 C 0 km/h
1811 10-05-2010 00:00:00 11.99917 C 6.67 g/m*3 12 C 0 km/h
1812 11-05-2010 00:00:00 11.53167 C 6.84 g/m*3 11.53 C 0 km/h
1813 12-05-2010 00:00:00 8.62333 C 6.33 g/m*3 8.62 C 0 km/h
1814 13-05-2010 00:00:00 8.07667 C 6.31 g/m*3 8.08 C 0 km/h
1815 14-05-2010 00:00:00 8.97333 C 7.22 g/m*3 8.97 C 0 km/h
1816 15-05-2010 00:00:00 10.6825 C 5.92 g/m*3 10.68 C 0 km/h
1817 16-05-2010 00:00:00 13.32917 C 5.32 g/m*3 13.33 C 0 km/h
1818 17-05-2010 00:00:00 10.56917 C 7.13 g/m*3 10.57 C 0 km/h
1819 18-05-2010 00:00:00 11.44333 C 6.07 g/m*3 11.44 C 0 km/h
1820 19-05-2010 00:00:00 10.30583 C 6.32 g/m*3 10.31 C 0 km/h
1821 20-05-2010 00:00:00 12.64034 C 6.31 g/m*3 12.64 C 0 km/h
1822 21-05-2010 00:00:00 16.54333 C 7.66 g/m*3 16.54 C 0 km/h
1823 22-05-2010 00:00:00 18.32583 C 7.75 g/m*3 18.33 C 0 km/h
1824 23-05-2010 00:00:00 20.32083 C 8.65 g/m*3 20.32 C 0 km/h
1825 24-05-2010 00:00:00 21.23 C 8.94 g/m*3 21.23 C 0 km/h
Sensor: Nr:Datum:Temp:Abs-Feuchte:Windchill:Wind:
Aussen-T/F 1826 25-05-2010 00:00:00 20.64583 C 7.99 g/m*3 20.65 C 0 km/h
1827 26-05-2010 00:00:00 15.41917 C 9.07 g/m*3 15.42 C 0 km/h
1828 27-05-2010 00:00:00 15.6175 C 8.18 g/m*3 15.62 C 0 km/h
1829 28-05-2010 00:00:00 17.3075 C 7.94 g/m*3 17.31 C 0 km/h
1830 29-05-2010 00:00:00 16.34 C 7.23 g/m*3 16.34 C 0 km/h
1831 30-05-2010 00:00:00 14.5975 C 8.93 g/m*3 14.6 C 0 km/h
1832 31-05-2010 00:00:00 11.56667 C 8.16 g/m*3 11.57 C 0 km/h
1833 01-06-2010 00:00:00 16.01833 C 8.41 g/m*3 16.02 C 0 km/h
1834 02-06-2010 00:00:00 17.66471 C 7.79 g/m*3 17.66 C 0 km/h
1835 03-06-2010 00:00:00 20.49083 C 7.88 g/m*3 20.49 C 0 km/h
1836 04-06-2010 00:00:00 21.43 C 7.91 g/m*3 21.43 C 0 km/h
1837 05-06-2010 00:00:00 22.97667 C 8.82 g/m*3 22.98 C 0 km/h
1838 06-06-2010 00:00:00 20.91333 C 11.1 g/m*3 20.91 C 0 km/h
1839 07-06-2010 00:00:00 19.58833 C 9.05 g/m*3 19.59 C 0 km/h
1840 08-06-2010 00:00:00 19.76833 C 9.52 g/m*3 19.77 C 0 km/h
1841 09-06-2010 00:00:00 22.5625 C 11.34 g/m*3 22.56 C 0 km/h
1842 10-06-2010 00:00:00 22.76417 C 13.55 g/m*3 22.76 C 0 km/h
1843 11-06-2010 00:00:00 22.89167 C 11.59 g/m*3 22.89 C 0 km/h
1844 12-06-2010 00:00:00 18.84917 C 10.25 g/m*3 18.85 C 0 km/h
1845 13-06-2010 00:00:00 18.25083 C 7.8 g/m*3 18.25 C 0 km/h
1846 14-06-2010 00:00:00 19.76667 C 7.8 g/m*3 19.77 C 0 km/h
1847 15-06-2010 00:00:00 18.9 C 8.06 g/m*3 18.9 C 0 km/h
1848 16-06-2010 00:00:00 18.82833 C 6.18 g/m*3 18.83 C 0 km/h
1849 17-06-2010 00:00:00 15.08583 C 9.23 g/m*3 15.09 C 0 km/h
1850 18-06-2010 00:00:00 15.2325 C 9.35 g/m*3 15.23 C 0 km/h
Sensor: Nr:Datum:Temp:Abs-Feuchte:Windchill:Wind:
Aussen-T/F 1851 19-06-2010 00:00:00 14.2725 C 6.27 g/m*3 14.27 C 0 km/h
1852 20-06-2010 00:00:00 13.20333 C 6.8 g/m*3 13.2 C 0 km/h
1853 21-06-2010 00:00:00 14.11083 C 6.37 g/m*3 14.11 C 0 km/h
1854 22-06-2010 00:00:00 17.38667 C 7.03 g/m*3 17.39 C 0 km/h
1855 23-06-2010 00:00:00 19.75917 C 8.12 g/m*3 19.76 C 0 km/h
1856 24-06-2010 00:00:00 22.54833 C 8.68 g/m*3 22.55 C 0 km/h
1857 25-06-2010 00:00:00 23.37 C 8.65 g/m*3 23.37 C 0 km/h
1858 26-06-2010 00:00:00 23.635 C 8.77 g/m*3 23.64 C 0 km/h
1859 27-06-2010 00:00:00 24.49417 C 9.01 g/m*3 24.49 C 0 km/h
1860 28-06-2010 00:00:00 25.25546 C 9.1 g/m*3 25.26 C 0 km/h
1861 29-06-2010 00:00:00 24.86167 C 9.83 g/m*3 24.86 C 0 km/h
1862 30-06-2010 00:00:00 24.6175 C 10.06 g/m*3 24.62 C 0 km/h
1863 01-07-2010 00:00:00 25.8425 C 9.72 g/m*3 25.84 C 0 km/h
1864 02-07-2010 00:00:00 26.96667 C 9.63 g/m*3 26.97 C 0 km/h
1865 03-07-2010 00:00:00 26.33 C 11.31 g/m*3 26.33 C 0 km/h
1866 04-07-2010 00:00:00 26.44833 C 12.05 g/m*3 26.45 C 0 km/h
1867 05-07-2010 00:00:00 22.02083 C 9.04 g/m*3 22.02 C 0 km/h
1868 06-07-2010 00:00:00 20.17833 C 8.34 g/m*3 20.18 C 0 km/h
1869 07-07-2010 00:00:00 22.53417 C 8.16 g/m*3 22.53 C 0 km/h
1870 08-07-2010 00:00:00 26.43417 C 8.69 g/m*3 26.43 C 0 km/h
1871 09-07-2010 00:00:00 27.51333 C 9.42 g/m*3 27.51 C 0 km/h
1872 10-07-2010 00:00:00 29.25667 C 10.76 g/m*3 29.26 C 0 km/h
1873 11-07-2010 00:00:00 28.48319 C 12.85 g/m*3 28.48 C 0 km/h
1874 12-07-2010 00:00:00 27.1175 C 11.1 g/m*3 27.12 C 0 km/h
1875 13-07-2010 00:00:00 25.36083 C 10.39 g/m*3 25.36 C 0 km/h
Sensor: Nr:Datum:Temp:Abs-Feuchte:Windchill:Wind:
Aussen-T/F 1876 14-07-2010 00:00:00 25.98917 C 11.73 g/m*3 25.99 C 0 km/h
1877 15-07-2010 00:00:00 22.6525 C 8.81 g/m*3 22.65 C 0 km/h
1878 16-07-2010 00:00:00 23.97667 C 8.47 g/m*3 23.98 C 0 km/h
1879 17-07-2010 00:00:00 21.99167 C 10.18 g/m*3 21.99 C 0 km/h
1880 18-07-2010 00:00:00 21.73833 C 7.35 g/m*3 21.74 C 0 km/h
1881 19-07-2010 00:00:00 23.63167 C 8.01 g/m*3 23.63 C 0 km/h
1882 20-07-2010 00:00:00 25.03833 C 8.46 g/m*3 25.04 C 0 km/h
1883 21-07-2010 00:00:00 24.73833 C 9.31 g/m*3 24.74 C 0 km/h
1884 22-07-2010 00:00:00 21.34917 C 11.61 g/m*3 21.35 C 0 km/h
1885 23-07-2010 00:00:00 20.17059 C 11.52 g/m*3 20.17 C 0 km/h
1886 24-07-2010 00:00:00 19.00667 C 9.15 g/m*3 19.01 C 0 km/h
1887 25-07-2010 00:00:00 17.26833 C 7.8 g/m*3 17.27 C 0 km/h
1888 26-07-2010 00:00:00 17.2925 C 11.46 g/m*3 17.29 C 0 km/h
1889 27-07-2010 00:00:00 19.815 C 10.06 g/m*3 19.82 C 0 km/h
1890 28-07-2010 00:00:00 20.5075 C 11.17 g/m*3 20.51 C 0 km/h
1891 29-07-2010 00:00:00 16.32417 C 11.42 g/m*3 16.32 C 0 km/h
1892 30-07-2010 00:00:00 19.665 C 9.34 g/m*3 19.67 C 0 km/h
1893 31-07-2010 00:00:00 20.62417 C 9.08 g/m*3 20.62 C 0 km/h
1894 01-08-2010 00:00:00 22.90833 C 11.98 g/m*3 22.91 C 0 km/h
1895 02-08-2010 00:00:00 19.60917 C 11.25 g/m*3 19.61 C 0 km/h
1896 03-08-2010 00:00:00 18.94167 C 10.12 g/m*3 18.94 C 0 km/h
1897 04-08-2010 00:00:00 19.62269 C 9.16 g/m*3 19.62 C 0 km/h
1898 05-08-2010 00:00:00 18.49417 C 10 g/m*3 18.49 C 0 km/h
1899 06-08-2010 00:00:00 19.04667 C 8.08 g/m*3 19.05 C 0 km/h
1900 07-08-2010 00:00:00 19.46583 C 7.91 g/m*3 19.47 C 0 km/h
Sensor: Nr:Datum:Temp:Abs-Feuchte:Windchill:Wind:
Aussen-T/F 1901 08-08-2010 00:00:00 18.485 C 11.68 g/m*3 18.49 C 0 km/h
1902 09-08-2010 00:00:00 19.515 C 10.42 g/m*3 19.52 C 0 km/h
1903 10-08-2010 00:00:00 22.13583 C 9.74 g/m*3 22.14 C 0 km/h
1904 11-08-2010 00:00:00 20.32833 C 12.64 g/m*3 20.33 C 0 km/h
1905 12-08-2010 00:00:00 19.10917 C 11.28 g/m*3 19.11 C 0 km/h
1906 13-08-2010 00:00:00 18.77833 C 9.07 g/m*3 18.78 C 0 km/h
1907 14-08-2010 00:00:00 19.9675 C 9.59 g/m*3 19.97 C 0 km/h
1908 15-08-2010 00:00:00 16.88667 C 11.8 g/m*3 16.89 C 0 km/h
1909 16-08-2010 00:00:00 17.07479 C 11.15 g/m*3 17.07 C 0 km/h
1910 17-08-2010 00:00:00 16.06667 C 10.71 g/m*3 16.07 C 0 km/h
1911 18-08-2010 00:00:00 18.40917 C 9.91 g/m*3 18.41 C 0 km/h
1912 19-08-2010 00:00:00 18.88917 C 8.2 g/m*3 18.89 C 0 km/h
1913 20-08-2010 00:00:00 20.42605 C 9.9 g/m*3 20.43 C 0 km/h
1914 21-08-2010 00:00:00 23.76417 C 11.32 g/m*3 23.76 C 0 km/h
1915 22-08-2010 00:00:00 23.01667 C 12.14 g/m*3 23.02 C 0 km/h
1916 23-08-2010 00:00:00 21.205 C 13.12 g/m*3 21.21 C 0 km/h
1917 24-08-2010 00:00:00 19.27083 C 7.86 g/m*3 19.27 C 0 km/h
1918 25-08-2010 00:00:00 17.61917 C 7.68 g/m*3 17.62 C 0 km/h
1919 26-08-2010 00:00:00 20.68083 C 11.52 g/m*3 20.68 C 0 km/h
1920 27-08-2010 00:00:00 18.37667 C 13.18 g/m*3 18.38 C 0 km/h
1921 28-08-2010 00:00:00 14.0675 C 8.89 g/m*3 14.07 C 0 km/h
1922 29-08-2010 00:00:00 13.03167 C 8.58 g/m*3 13.03 C 0 km/h
1923 30-08-2010 00:00:00 12.5675 C 8.53 g/m*3 12.57 C 0 km/h
1924 31-08-2010 00:00:00 15.42917 C 8.4 g/m*3 15.43 C 0 km/h
1925 01-09-2010 00:00:00 14.82437 C 8.4 g/m*3 14.82 C 0 km/h
Sensor: Nr:Datum:Temp:Abs-Feuchte:Windchill:Wind:
Aussen-T/F 1926 02-09-2010 00:00:00 14.95333 C 8.79 g/m*3 14.95 C 0 km/h
1927 03-09-2010 00:00:00 15.91417 C 9.06 g/m*3 15.91 C 0 km/h
1928 04-09-2010 00:00:00 16.71417 C 8.43 g/m*3 16.71 C 0 km/h
1929 05-09-2010 00:00:00 15.205 C 7.52 g/m*3 15.21 C 0 km/h
1930 06-09-2010 00:00:00 15.675 C 6.76 g/m*3 15.68 C 0 km/h
1931 07-09-2010 00:00:00 13.36083 C 8.36 g/m*3 13.36 C 0 km/h
1932 08-09-2010 00:00:00 15.545 C 10.94 g/m*3 15.55 C 0 km/h
1933 09-09-2010 00:00:00 16.20583 C 9.61 g/m*3 16.21 C 0 km/h
1934 10-09-2010 00:00:00 16.18 C 10.13 g/m*3 16.18 C 0 km/h
1935 11-09-2010 00:00:00 18.13417 C 10.44 g/m*3 18.13 C 0 km/h
1936 12-09-2010 00:00:00 16.21667 C 10.52 g/m*3 16.22 C 0 km/h
1937 13-09-2010 00:00:00 15.67583 C 9.31 g/m*3 15.68 C 0 km/h
1938 14-09-2010 00:00:00 16.63697 C 8.96 g/m*3 16.64 C 0 km/h
1939 15-09-2010 00:00:00 16.3175 C 7.82 g/m*3 16.32 C 0 km/h
1940 16-09-2010 00:00:00 14.07 C 8.33 g/m*3 14.07 C 0 km/h
1941 17-09-2010 00:00:00 13.76667 C 7.53 g/m*3 13.77 C 0 km/h
1942 18-09-2010 00:00:00 11.45083 C 6.84 g/m*3 11.45 C 0 km/h
1943 19-09-2010 00:00:00 11.7425 C 6.69 g/m*3 11.74 C 0 km/h
1944 20-09-2010 00:00:00 14.01 C 7.27 g/m*3 14.01 C 0 km/h
1945 21-09-2010 00:00:00 14.27 C 8.52 g/m*3 14.27 C 0 km/h
1946 22-09-2010 00:00:00 15.86667 C 9.22 g/m*3 15.87 C 0 km/h
1947 23-09-2010 00:00:00 16.56167 C 9.98 g/m*3 16.56 C 0 km/h
1948 24-09-2010 00:00:00 14.165 C 11.47 g/m*3 14.17 C 0 km/h
1949 25-09-2010 00:00:00 12.41833 C 7.9 g/m*3 12.42 C 0 km/h
1950 26-09-2010 00:00:00 11.2425 C 7.29 g/m*3 11.24 C 0 km/h
Sensor: Nr:Datum:Temp:Abs-Feuchte:Windchill:Wind:
Aussen-T/F 1951 27-09-2010 00:00:00 9.86807 C 7.48 g/m*3 9.87 C 0 km/h
1952 28-09-2010 00:00:00 10.93083 C 9.4 g/m*3 10.93 C 0 km/h
1953 29-09-2010 00:00:00 13.39417 C 8.9 g/m*3 13.39 C 0 km/h
1954 30-09-2010 00:00:00 11.89667 C 8.83 g/m*3 11.9 C 0 km/h
1955 01-10-2010 00:00:00 12.33667 C 9.1 g/m*3 12.34 C 0 km/h
1956 02-10-2010 00:00:00 13.4525 C 10.36 g/m*3 13.45 C 0 km/h
1957 03-10-2010 00:00:00 17.83583 C 10.56 g/m*3 17.84 C 0 km/h
1958 04-10-2010 00:00:00 16.905 C 9.67 g/m*3 16.91 C 0 km/h
1959 05-10-2010 00:00:00 15.64833 C 10.9 g/m*3 15.65 C 0 km/h
1960 06-10-2010 00:00:00 17.22333 C 9.99 g/m*3 17.22 C 0 km/h
1961 07-10-2010 00:00:00 16.31167 C 10.3 g/m*3 16.31 C 0 km/h
1962 08-10-2010 00:00:00 16.02917 C 9.37 g/m*3 16.03 C 0 km/h
1963 09-10-2010 00:00:00 13.1475 C 8.13 g/m*3 13.15 C 0 km/h
1964 10-10-2010 00:00:00 11.6125 C 6.4 g/m*3 11.61 C 0 km/h
1965 11-10-2010 00:00:00 10.90084 C 5.45 g/m*3 10.9 C 0 km/h
1966 12-10-2010 00:00:00 8.71917 C 5.9 g/m*3 8.72 C 0 km/h
1967 13-10-2010 00:00:00 7.475 C 5.54 g/m*3 7.48 C 0 km/h
1968 14-10-2010 00:00:00 7.55583 C 5.99 g/m*3 7.56 C 0 km/h
1969 15-10-2010 00:00:00 10.475 C 7.36 g/m*3 10.48 C 0 km/h
1970 16-10-2010 00:00:00 8.375 C 7.62 g/m*3 8.38 C 0 km/h
1971 17-10-2010 00:00:00 7.22667 C 6.33 g/m*3 7.23 C 0 km/h
1972 18-10-2010 00:00:00 6.71833 C 5.58 g/m*3 6.72 C 0 km/h
1973 19-10-2010 00:00:00 7.28167 C 6.47 g/m*3 7.28 C 0 km/h
1974 20-10-2010 00:00:00 6.14167 C 5.97 g/m*3 6.14 C 0 km/h
1975 21-10-2010 00:00:00 5.27 C 4.63 g/m*3 5.27 C 0 km/h
Sensor: Nr:Datum:Temp:Abs-Feuchte:Windchill:Wind:
Aussen-T/F 1976 22-10-2010 00:00:00 4.20167 C 4.11 g/m*3 4.2 C 0 km/h
1977 23-10-2010 00:00:00 4.37899 C 4.82 g/m*3 4.38 C 0 km/h
1978 24-10-2010 00:00:00 8.55667 C 5.66 g/m*3 8.56 C 0 km/h
1979 25-10-2010 00:00:00 6.1525 C 5.22 g/m*3 6.15 C 0 km/h
1980 26-10-2010 00:00:00 3.62417 C 5.12 g/m*3 3.62 C 0 km/h
1981 27-10-2010 00:00:00 8.14917 C 4.91 g/m*3 8.15 C 0 km/h
1982 28-10-2010 00:00:00 9.1725 C 5.55 g/m*3 9.17 C 0 km/h
1983 29-10-2010 00:00:00 6.48333 C 6.48 g/m*3 6.48 C 0 km/h
1984 02-11-2010 00:00:00 11.31548 C 6.81 g/m*3 11.32 C 0 km/h
1985 03-11-2010 00:00:00 13.10333 C 7.84 g/m*3 13.1 C 0 km/h
1986 04-11-2010 00:00:00 16.41167 C 8.7 g/m*3 16.41 C 0 km/h
1987 05-11-2010 00:00:00 14.51917 C 7.32 g/m*3 14.52 C 0 km/h
1988 06-11-2010 00:00:00 10.40917 C 7.73 g/m*3 10.41 C 0 km/h
1989 07-11-2010 00:00:00 6.86917 C 7.11 g/m*3 6.87 C 0 km/h
1990 08-11-2010 00:00:00 4.65583 C 5.68 g/m*3 4.66 C 0 km/h
1991 09-11-2010 00:00:00 6.65667 C 6.48 g/m*3 6.66 C 0 km/h
1992 10-11-2010 00:00:00 7.08319 C 6.48 g/m*3 7.08 C 0 km/h
1993 11-11-2010 00:00:00 5.84167 C 5.32 g/m*3 5.84 C 0 km/h
1994 12-11-2010 00:00:00 11.04083 C 6.73 g/m*3 11.04 C 0 km/h
1995 13-11-2010 00:00:00 14.51917 C 8.83 g/m*3 14.52 C 0 km/h
1996 14-11-2010 00:00:00 14.60833 C 7.79 g/m*3 14.61 C 0 km/h
1997 15-11-2010 00:00:00 9.47833 C 6.15 g/m*3 9.48 C 0 km/h
1998 16-11-2010 00:00:00 6.0125 C 5.77 g/m*3 6.01 C 0 km/h
1999 17-11-2010 00:00:00 5.3125 C 5.17 g/m*3 5.31 C 0 km/h
2000 18-11-2010 00:00:00 5.61917 C 5.95 g/m*3 5.62 C 0 km/h
Sensor: Nr:Datum:Temp:Abs-Feuchte:Windchill:Wind:
Aussen-T/F 2001 19-11-2010 00:00:00 6.4275 C 6.1 g/m*3 6.43 C 0 km/h
2002 20-11-2010 00:00:00 4.8325 C 5.94 g/m*3 4.83 C 0 km/h
2003 21-11-2010 00:00:00 4.48333 C 4.84 g/m*3 4.48 C 0 km/h
2004 22-11-2010 00:00:00 4.47417 C 4.96 g/m*3 4.47 C 0 km/h
2005 23-11-2010 00:00:00 4.54118 C 4.59 g/m*3 4.54 C 0 km/h
2006 24-11-2010 00:00:00 3.415 C 4.9 g/m*3 3.42 C 0 km/h
2007 25-11-2010 00:00:00 1.74083 C 4.39 g/m*3 1.74 C 0 km/h
2008 26-11-2010 00:00:00 -0.29083 C 4.18 g/m*3 -0.29 C 0 km/h
2009 27-11-2010 00:00:00 -1.99167 C 3.56 g/m*3 -1.99 C 0 km/h
2010 28-11-2010 00:00:00 -1.325 C 3.55 g/m*3 -1.33 C 0 km/h
2011 29-11-2010 00:00:00 -1.55833 C 3.51 g/m*3 -1.56 C 0 km/h
2012 30-11-2010 00:00:00 -1.9425 C 3.4 g/m*3 -1.94 C 0 km/h
2013 01-12-2010 00:00:00 -5.7325 C 1.99 g/m*3 -5.73 C 0 km/h
2014 02-12-2010 00:00:00 -7.03167 C 2.03 g/m*3 -7.03 C 0 km/h
2015 03-12-2010 00:00:00 -7.38583 C 2.19 g/m*3 -7.39 C 0 km/h
2016 04-12-2010 00:00:00 -3.48167 C 2.61 g/m*3 -3.48 C 0 km/h
2017 05-12-2010 00:00:00 0.91667 C 3.38 g/m*3 0.92 C 0 km/h
2018 06-12-2010 00:00:00 0.24538 C 4.01 g/m*3 0.25 C 0 km/h
2019 07-12-2010 00:00:00 -0.20833 C 3.88 g/m*3 -0.21 C 0 km/h
2020 08-12-2010 00:00:00 -0.25917 C 4.32 g/m*3 -0.26 C 0 km/h
2021 09-12-2010 00:00:00 0.61333 C 3.92 g/m*3 0.61 C 0 km/h
2022 10-12-2010 00:00:00 1.73333 C 4.69 g/m*3 1.73 C 0 km/h
2023 11-12-2010 00:00:00 4.07583 C 5.18 g/m*3 4.08 C 0 km/h
2024 12-12-2010 00:00:00 3.085 C 4.57 g/m*3 3.09 C 0 km/h
2025 13-12-2010 00:00:00 -4.44833 C 2.51 g/m*3 -4.45 C 0 km/h
Sensor: Nr:Datum:Temp:Abs-Feuchte:Windchill:Wind:
Aussen-T/F 2026 14-12-2010 00:00:00 -3.65833 C 2.82 g/m*3 -3.66 C 0 km/h
2027 15-12-2010 00:00:00 -3.1275 C 2.86 g/m*3 -3.13 C 0 km/h
2028 16-12-2010 00:00:00 -3.4675 C 2.96 g/m*3 -3.47 C 0 km/h
2029 17-12-2010 00:00:00 -2.77417 C 2.92 g/m*3 -2.77 C 0 km/h
2030 18-12-2010 00:00:00 -4.65833 C 2.74 g/m*3 -4.66 C 0 km/h
2031 19-12-2010 00:00:00 -0.7125 C 3.86 g/m*3 -0.71 C 0 km/h
2032 20-12-2010 00:00:00 -1.53667 C 3.48 g/m*3 -1.54 C 0 km/h
2033 21-12-2010 00:00:00 -0.65546 C 4 g/m*3 -0.66 C 0 km/h
2034 22-12-2010 00:00:00 0.9225 C 4.66 g/m*3 0.92 C 0 km/h
2035 23-12-2010 00:00:00 -0.36833 C 4.23 g/m*3 -0.37 C 0 km/h
2036 24-12-2010 00:00:00 -1.77438 C 3.53 g/m*3 -1.77 C 0 km/h
2037 25-12-2010 00:00:00 -5.4775 C 2.37 g/m*3 -5.48 C 0 km/h
2038 26-12-2010 00:00:00 -4.87833 C 2.59 g/m*3 -4.88 C 0 km/h
2039 27-12-2010 00:00:00 -2.21833 C 3.28 g/m*3 -2.22 C 0 km/h
2040 28-12-2010 00:00:00 -2.07899 C 3.35 g/m*3 -2.08 C 0 km/h
2041 29-12-2010 00:00:00 -0.255 C 3.76 g/m*3 -0.26 C 0 km/h
2042 30-12-2010 00:00:00 -0.55333 C 3.62 g/m*3 -0.55 C 0 km/h
2043 31-12-2010 00:00:00 -1.09187 C 3.57 g/m*3 -1.09 C 0 km/h
2044 01-01-2011 00:00:00 1.07311 C 4.52 g/m*3 1.07 C 0 km/h
2045 02-01-2011 00:00:00 0.8025 C 4.39 g/m*3 0.8 C 0 km/h
2046 03-01-2011 00:00:00 -0.9125 C 3.88 g/m*3 -0.91 C 0 km/h
2047 04-01-2011 00:00:00 -2.36667 C 3.35 g/m*3 -2.37 C 0 km/h
2048 05-01-2011 00:00:00 -3.83583 C 2.66 g/m*3 -3.84 C 0 km/h
2049 06-01-2011 00:00:00 3.72667 C 5.49 g/m*3 3.73 C 0 km/h
2050 07-01-2011 00:00:00 6.91833 C 6.93 g/m*3 6.92 C 0 km/h
Sensor: Nr:Datum:Temp:Abs-Feuchte:Windchill:Wind:
Aussen-T/F 2051 08-01-2011 00:00:00 10.5675 C 7.09 g/m*3 10.57 C 0 km/h
2052 09-01-2011 00:00:00 5.08655 C 5.84 g/m*3 5.09 C 0 km/h
2053 10-01-2011 00:00:00 0.7175 C 4.39 g/m*3 0.72 C 0 km/h
2054 11-01-2011 00:00:00 3.43667 C 4.81 g/m*3 3.44 C 0 km/h
2055 12-01-2011 00:00:00 5.44 C 5.5 g/m*3 5.44 C 0 km/h
2056 13-01-2011 00:00:00 11.80333 C 8.2 g/m*3 11.8 C 0 km/h
2057 14-01-2011 00:00:00 11.77417 C 6.94 g/m*3 11.77 C 0 km/h
2058 15-01-2011 00:00:00 8.68167 C 5.98 g/m*3 8.68 C 0 km/h
2059 16-01-2011 00:00:00 6.84167 C 5.88 g/m*3 6.84 C 0 km/h
2060 17-01-2011 00:00:00 3.62917 C 5.41 g/m*3 3.63 C 0 km/h
2061 18-01-2011 00:00:00 7.28833 C 6.01 g/m*3 7.29 C 0 km/h
2062 19-01-2011 00:00:00 3.30833 C 4.71 g/m*3 3.31 C 0 km/h
2063 20-01-2011 00:00:00 1.7 C 4.36 g/m*3 1.7 C 0 km/h
2064 21-01-2011 00:00:00 -0.0675 C 3.06 g/m*3 -0.07 C 0 km/h
2065 22-01-2011 00:00:00 0.39664 C 3.9 g/m*3 0.4 C 0 km/h
2066 23-01-2011 00:00:00 1.50167 C 4.65 g/m*3 1.5 C 0 km/h
2067 24-01-2011 00:00:00 3.10167 C 5.07 g/m*3 3.1 C 0 km/h
2068 25-01-2011 00:00:00 2.49833 C 4.56 g/m*3 2.5 C 0 km/h
2069 26-01-2011 00:00:00 0.84083 C 4.26 g/m*3 0.84 C 0 km/h
2070 27-01-2011 00:00:00 -0.28583 C 3.4 g/m*3 -0.29 C 0 km/h
2071 28-01-2011 00:00:00 -1.27083 C 2.87 g/m*3 -1.27 C 0 km/h
2072 29-01-2011 00:00:00 -4.9 C 2.7 g/m*3 -4.9 C 0 km/h
2073 30-01-2011 00:00:00 -6.20917 C 2.48 g/m*3 -6.21 C 0 km/h
2074 31-01-2011 00:00:00 -5.73833 C 2.59 g/m*3 -5.74 C 0 km/h
2075 01-02-2011 00:00:00 -4.03917 C 2.66 g/m*3 -4.04 C 0 km/h
Sensor: Nr:Datum:Temp:Abs-Feuchte:Windchill:Wind:
Aussen-T/F 2076 02-02-2011 00:00:00 -0.865 C 3.47 g/m*3 -0.87 C 0 km/h
2077 03-02-2011 00:00:00 1.94454 C 4.48 g/m*3 1.94 C 0 km/h
2078 04-02-2011 00:00:00 6.18583 C 5.15 g/m*3 6.19 C 0 km/h
2079 05-02-2011 00:00:00 9.25833 C 5.56 g/m*3 9.26 C 0 km/h
2080 06-02-2011 00:00:00 8.62 C 5.16 g/m*3 8.62 C 0 km/h
2081 07-02-2011 00:00:00 6.48083 C 4.13 g/m*3 6.48 C 0 km/h
2082 08-02-2011 00:00:00 5.48833 C 4.56 g/m*3 5.49 C 0 km/h
2083 09-02-2011 00:00:00 -0.23333 C 3.95 g/m*3 -0.23 C 0 km/h
2084 10-02-2011 00:00:00 3.9425 C 4.99 g/m*3 3.94 C 0 km/h
2085 11-02-2011 00:00:00 10.23917 C 7.08 g/m*3 10.24 C 0 km/h
2086 12-02-2011 00:00:00 6.88 C 6.26 g/m*3 6.88 C 0 km/h
2087 13-02-2011 00:00:00 5.13417 C 5.66 g/m*3 5.13 C 0 km/h
2088 14-02-2011 00:00:00 5.215 C 5.63 g/m*3 5.22 C 0 km/h
2089 15-02-2011 00:00:00 5.14958 C 5.71 g/m*3 5.15 C 0 km/h
2090 16-02-2011 00:00:00 4.90417 C 5.38 g/m*3 4.9 C 0 km/h
2091 17-02-2011 00:00:00 1.96333 C 4.29 g/m*3 1.96 C 0 km/h
2092 18-02-2011 00:00:00 2.23667 C 4.1 g/m*3 2.24 C 0 km/h
2093 19-02-2011 00:00:00 2.82833 C 4.31 g/m*3 2.83 C 0 km/h
2094 20-02-2011 00:00:00 0.7 C 3.16 g/m*3 0.7 C 0 km/h
2095 21-02-2011 00:00:00 -1.8125 C 2.2 g/m*3 -1.81 C 0 km/h
2096 22-02-2011 00:00:00 -3.39167 C 1.99 g/m*3 -3.39 C 0 km/h
2097 23-02-2011 00:00:00 -2.66583 C 2.02 g/m*3 -2.67 C 0 km/h
2098 24-02-2011 00:00:00 0.91083 C 3.9 g/m*3 0.91 C 0 km/h
2099 25-02-2011 00:00:00 3.445 C 5.16 g/m*3 3.45 C 0 km/h
2100 26-02-2011 00:00:00 5.07167 C 5.18 g/m*3 5.07 C 0 km/h
Sensor: Nr:Datum:Temp:Abs-Feuchte:Windchill:Wind:
Aussen-T/F 2101 27-02-2011 00:00:00 5.47731 C 5.17 g/m*3 5.48 C 0 km/h
2102 28-02-2011 00:00:00 4.52333 C 4.47 g/m*3 4.52 C 0 km/h
2103 01-03-2011 00:00:00 4.31167 C 4.54 g/m*3 4.31 C 0 km/h
2104 02-03-2011 00:00:00 3.41 C 3.07 g/m*3 3.41 C 0 km/h
2105 03-03-2011 00:00:00 1.585 C 2.66 g/m*3 1.59 C 0 km/h
2106 04-03-2011 00:00:00 2.1825 C 3.4 g/m*3 2.18 C 0 km/h
2107 05-03-2011 00:00:00 0.19833 C 3.69 g/m*3 0.2 C 0 km/h
2108 06-03-2011 00:00:00 1.7325 C 3.29 g/m*3 1.73 C 0 km/h
2109 07-03-2011 00:00:00 1.05667 C 2.45 g/m*3 1.06 C 0 km/h
2110 08-03-2011 00:00:00 1.92583 C 2.89 g/m*3 1.93 C 0 km/h
2111 09-03-2011 00:00:00 6.48333 C 4.63 g/m*3 6.48 C 0 km/h
2112 10-03-2011 00:00:00 7.3 C 4.55 g/m*3 7.3 C 0 km/h
2113 11-03-2011 00:00:00 8.78571 C 4.65 g/m*3 8.79 C 0 km/h
2114 12-03-2011 00:00:00 7.3525 C 4.83 g/m*3 7.35 C 0 km/h
2115 13-03-2011 00:00:00 11.07917 C 6.51 g/m*3 11.08 C 0 km/h
2116 14-03-2011 00:00:00 10.09917 C 7.33 g/m*3 10.1 C 0 km/h
2117 15-03-2011 00:00:00 10.73917 C 6.79 g/m*3 10.74 C 0 km/h
2118 16-03-2011 00:00:00 8.73583 C 5.74 g/m*3 8.74 C 0 km/h
2119 17-03-2011 00:00:00 6.295 C 5.87 g/m*3 6.3 C 0 km/h
2120 18-03-2011 00:00:00 6.41833 C 5.24 g/m*3 6.42 C 0 km/h
2121 19-03-2011 00:00:00 6.63 C 4.93 g/m*3 6.63 C 0 km/h
2122 20-03-2011 00:00:00 3.39167 C 3.78 g/m*3 3.39 C 0 km/h
2123 21-03-2011 00:00:00 4.66333 C 3.99 g/m*3 4.66 C 0 km/h
2124 22-03-2011 00:00:00 6.83333 C 4.54 g/m*3 6.83 C 0 km/h
2125 23-03-2011 00:00:00 8.59333 C 5.59 g/m*3 8.59 C 0 km/h
Sensor: Nr:Datum:Temp:Abs-Feuchte:Windchill:Wind:
Aussen-T/F 2126 24-03-2011 00:00:00 9.14417 C 5.42 g/m*3 9.14 C 0 km/h
2127 25-03-2011 00:00:00 9.65798 C 5.14 g/m*3 9.66 C 0 km/h
2128 26-03-2011 00:00:00 8.11917 C 4.97 g/m*3 8.12 C 0 km/h
2129 27-03-2011 00:00:00 9.62174 C 4.9 g/m*3 9.62 C 0 km/h
2130 28-03-2011 00:00:00 7.7225 C 4.66 g/m*3 7.72 C 0 km/h
2131 29-03-2011 00:00:00 7.42083 C 4.65 g/m*3 7.42 C 0 km/h
2132 30-03-2011 00:00:00 8.36333 C 5.61 g/m*3 8.36 C 0 km/h
2133 31-03-2011 00:00:00 12.03833 C 7.81 g/m*3 12.04 C 0 km/h
2134 01-04-2011 00:00:00 13.985 C 8.25 g/m*3 13.99 C 0 km/h
2135 02-04-2011 00:00:00 14.21833 C 8.12 g/m*3 14.22 C 0 km/h
2136 03-04-2011 00:00:00 11.81167 C 8.04 g/m*3 11.81 C 0 km/h
2137 04-04-2011 00:00:00 10.68333 C 6.57 g/m*3 10.68 C 0 km/h
2138 05-04-2011 00:00:00 9.30833 C 6.12 g/m*3 9.31 C 0 km/h
2139 06-04-2011 00:00:00 15.69167 C 8.48 g/m*3 15.69 C 0 km/h
2140 07-04-2011 00:00:00 16.35294 C 8.33 g/m*3 16.35 C 0 km/h
2141 08-04-2011 00:00:00 13.4925 C 6.55 g/m*3 13.49 C 0 km/h
2142 09-04-2011 00:00:00 12.96917 C 5.63 g/m*3 12.97 C 0 km/h
2143 10-04-2011 00:00:00 12.2825 C 6.01 g/m*3 12.28 C 0 km/h
2144 11-04-2011 00:00:00 14.76333 C 6.76 g/m*3 14.76 C 0 km/h
2145 12-04-2011 00:00:00 10.27917 C 5.45 g/m*3 10.28 C 0 km/h
2146 13-04-2011 00:00:00 7.60083 C 4.45 g/m*3 7.6 C 0 km/h
2147 14-04-2011 00:00:00 8.3025 C 4.49 g/m*3 8.3 C 0 km/h
2148 15-04-2011 00:00:00 7.43583 C 4.66 g/m*3 7.44 C 0 km/h
2149 16-04-2011 00:00:00 8.14667 C 4.58 g/m*3 8.15 C 0 km/h
2150 17-04-2011 00:00:00 11.61917 C 4.82 g/m*3 11.62 C 0 km/h
Sensor: Nr:Datum:Temp:Abs-Feuchte:Windchill:Wind:
Aussen-T/F 2151 18-04-2011 00:00:00 10.9521 C 5.51 g/m*3 10.95 C 0 km/h
2152 19-04-2011 00:00:00 12.87583 C 6.2 g/m*3 12.88 C 0 km/h
2153 20-04-2011 00:00:00 13.54917 C 6.5 g/m*3 13.55 C 0 km/h
2154 21-04-2011 00:00:00 14.49333 C 6.84 g/m*3 14.49 C 0 km/h
2155 22-04-2011 00:00:00 16.35083 C 7.67 g/m*3 16.35 C 0 km/h
2156 23-04-2011 00:00:00 18.26083 C 9.25 g/m*3 18.26 C 0 km/h
2157 24-04-2011 00:00:00 16.74333 C 7.71 g/m*3 16.74 C 0 km/h
2158 25-04-2011 00:00:00 15.975 C 6.16 g/m*3 15.98 C 0 km/h
2159 26-04-2011 00:00:00 12.8275 C 6.81 g/m*3 12.83 C 0 km/h
2160 27-04-2011 00:00:00 11.27167 C 7.84 g/m*3 11.27 C 0 km/h
2161 28-04-2011 00:00:00 13.99 C 8.66 g/m*3 13.99 C 0 km/h
2162 29-04-2011 00:00:00 15.08333 C 8.49 g/m*3 15.08 C 0 km/h
2163 30-04-2011 00:00:00 15.42 C 7.44 g/m*3 15.42 C 0 km/h
2164 01-05-2011 00:00:00 15.09328 C 4.89 g/m*3 15.09 C 0 km/h
2165 02-05-2011 00:00:00 11.83333 C 4.67 g/m*3 11.83 C 0 km/h
2166 03-05-2011 00:00:00 10.93167 C 4.17 g/m*3 10.93 C 0 km/h
2167 04-05-2011 00:00:00 8.28 C 4.54 g/m*3 8.28 C 0 km/h
2168 05-05-2011 00:00:00 10.32333 C 5.35 g/m*3 10.32 C 0 km/h
2169 06-05-2011 00:00:00 13.52917 C 6.22 g/m*3 13.53 C 0 km/h
2170 07-05-2011 00:00:00 17.6125 C 7.44 g/m*3 17.61 C 0 km/h
2171 08-05-2011 00:00:00 19.07167 C 6.15 g/m*3 19.07 C 0 km/h
2172 09-05-2011 00:00:00 18.40083 C 6.19 g/m*3 18.4 C 0 km/h
2173 10-05-2011 00:00:00 17.95833 C 7.69 g/m*3 17.96 C 0 km/h
2174 11-05-2011 00:00:00 18.40667 C 9.52 g/m*3 18.41 C 0 km/h
2175 12-05-2011 00:00:00 15.77833 C 7.19 g/m*3 15.78 C 0 km/h
Sensor: Nr:Datum:Temp:Abs-Feuchte:Windchill:Wind:
Aussen-T/F 2176 13-05-2011 00:00:00 13.68403 C 6.25 g/m*3 13.68 C 0 km/h
2177 14-05-2011 00:00:00 12.59917 C 5.87 g/m*3 12.6 C 0 km/h
2178 15-05-2011 00:00:00 10.34333 C 6.13 g/m*3 10.34 C 0 km/h
2179 16-05-2011 00:00:00 12.58667 C 6.68 g/m*3 12.59 C 0 km/h
2180 17-05-2011 00:00:00 17.04083 C 7.51 g/m*3 17.04 C 0 km/h
2181 18-05-2011 00:00:00 16.60583 C 7.79 g/m*3 16.61 C 0 km/h
2182 19-05-2011 00:00:00 17.10833 C 9.04 g/m*3 17.11 C 0 km/h
2183 20-05-2011 00:00:00 16.53 C 10.17 g/m*3 16.53 C 0 km/h
2184 21-05-2011 00:00:00 19.16077 C 9.98 g/m*3 19.16 C 0 km/h
2185 22-05-2011 00:00:00 16.79593 C 8.96 g/m*3 16.8 C 0 km/h
2186 23-05-2011 00:00:00 16.00167 C 6.77 g/m*3 16 C 0 km/h
2187 24-05-2011 00:00:00 15.90583 C 6.52 g/m*3 15.91 C 0 km/h
2188 25-05-2011 00:00:00 15.29333 C 5.83 g/m*3 15.29 C 0 km/h
2189 26-05-2011 00:00:00 16.04833 C 5.88 g/m*3 16.05 C 0 km/h
2190 27-05-2011 00:00:00 14.61 C 5.61 g/m*3 14.61 C 0 km/h
2191 28-05-2011 00:00:00 15.2875 C 6.34 g/m*3 15.29 C 0 km/h
2192 29-05-2011 00:00:00 19.21849 C 6.84 g/m*3 19.22 C 0 km/h
2193 30-05-2011 00:00:00 20.91333 C 8.63 g/m*3 20.91 C 0 km/h
2194 31-05-2011 00:00:00 14.84583 C 9.06 g/m*3 14.85 C 0 km/h
2195 01-06-2011 00:00:00 14.86083 C 7 g/m*3 14.86 C 0 km/h
2196 02-06-2011 00:00:00 19.79167 C 7.15 g/m*3 19.79 C 0 km/h
2197 03-06-2011 00:00:00 20.65583 C 6.79 g/m*3 20.66 C 0 km/h
2198 04-06-2011 00:00:00 21.20417 C 10.39 g/m*3 21.2 C 0 km/h
2199 05-06-2011 00:00:00 18.63333 C 12.99 g/m*3 18.63 C 0 km/h
2200 06-06-2011 00:00:00 18.38667 C 11.93 g/m*3 18.39 C 0 km/h
Sensor: Nr:Datum:Temp:Abs-Feuchte:Windchill:Wind:
Aussen-T/F 2201 07-06-2011 00:00:00 20.62417 C 10.99 g/m*3 20.62 C 0 km/h
2202 08-06-2011 00:00:00 15.695 C 8.9 g/m*3 15.7 C 0 km/h
2203 09-06-2011 00:00:00 14.09328 C 8.28 g/m*3 14.09 C 0 km/h
2204 10-06-2011 00:00:00 14.6563 C 8.82 g/m*3 14.66 C 0 km/h
2205 11-06-2011 00:00:00 15.99417 C 8.05 g/m*3 15.99 C 0 km/h
2206 12-06-2011 00:00:00 15.21167 C 7.37 g/m*3 15.21 C 0 km/h
2207 13-06-2011 00:00:00 16.92167 C 8.46 g/m*3 16.92 C 0 km/h
2208 14-06-2011 00:00:00 20.63333 C 10.65 g/m*3 20.63 C 0 km/h
2209 15-06-2011 00:00:00 19.88909 C 10.18 g/m*3 19.89 C 0 km/h
2210 16-06-2011 00:00:00 15.99375 C 8.34 g/m*3 15.99 C 0 km/h
2211 17-06-2011 00:00:00 15.96417 C 8.11 g/m*3 15.96 C 0 km/h
2212 18-06-2011 00:00:00 15.91083 C 7.98 g/m*3 15.91 C 0 km/h
2213 19-06-2011 00:00:00 14.57917 C 7.13 g/m*3 14.58 C 0 km/h
2214 20-06-2011 00:00:00 13.67417 C 9.25 g/m*3 13.67 C 0 km/h
2215 21-06-2011 00:00:00 19.2575 C 11.21 g/m*3 19.26 C 0 km/h
2216 22-06-2011 00:00:00 18.02773 C 11.1 g/m*3 18.03 C 0 km/h
2217 23-06-2011 00:00:00 16.265 C 8.2 g/m*3 16.27 C 0 km/h
2218 24-06-2011 00:00:00 14.2775 C 7.18 g/m*3 14.28 C 0 km/h
2219 25-06-2011 00:00:00 13.42417 C 9.02 g/m*3 13.42 C 0 km/h
2220 26-06-2011 00:00:00 15 C 10.26 g/m*3 15 C 0 km/h
2221 27-06-2011 00:00:00 17.65667 C 10.91 g/m*3 17.66 C 0 km/h
2222 28-06-2011 00:00:00 25.33167 C 11.62 g/m*3 25.33 C 0 km/h
2223 29-06-2011 00:00:00 20.62 C 11.48 g/m*3 20.62 C 0 km/h
2224 30-06-2011 00:00:00 17.92833 C 7.15 g/m*3 17.93 C 0 km/h
2225 01-07-2011 00:00:00 15.115 C 8.01 g/m*3 15.12 C 0 km/h
Sensor: Nr:Datum:Temp:Abs-Feuchte:Windchill:Wind:
Aussen-T/F 2226 02-07-2011 00:00:00 14.5975 C 7.11 g/m*3 14.6 C 0 km/h
2227 03-07-2011 00:00:00 16.875 C 7.12 g/m*3 16.88 C 0 km/h
2228 04-07-2011 00:00:00 16.2 C 7.58 g/m*3 16.2 C 0 km/h
2229 05-07-2011 00:00:00 24.435 C 9.98 g/m*3 24.44 C 0 km/h
2230 06-07-2011 00:00:00 20.39333 C 9.1 g/m*3 20.39 C 0 km/h
2231 07-07-2011 00:00:00 19.52083 C 8.94 g/m*3 19.52 C 0 km/h
2232 08-07-2011 00:00:00 19.92333 C 8.54 g/m*3 19.92 C 0 km/h
2233 09-07-2011 00:00:00 21.28083 C 8.6 g/m*3 21.28 C 0 km/h
2234 10-07-2011 00:00:00 18.22833 C 9.4 g/m*3 18.23 C 0 km/h
2235 11-07-2011 00:00:00 20.90417 C 10.03 g/m*3 20.9 C 0 km/h
2236 12-07-2011 00:00:00 19.89917 C 10.56 g/m*3 19.9 C 0 km/h
2237 13-07-2011 00:00:00 15.985 C 10.63 g/m*3 15.99 C 0 km/h
2238 14-07-2011 00:00:00 15.70417 C 6.99 g/m*3 15.7 C 0 km/h
2239 15-07-2011 00:00:00 18.7025 C 6.71 g/m*3 18.7 C 0 km/h
2240 16-07-2011 00:00:00 18.92269 C 7.49 g/m*3 18.92 C 0 km/h
2241 17-07-2011 00:00:00 17.68667 C 9.94 g/m*3 17.69 C 0 km/h
2242 18-07-2011 00:00:00 16.98583 C 8.21 g/m*3 16.99 C 0 km/h
2243 19-07-2011 00:00:00 16.52167 C 9.22 g/m*3 16.52 C 0 km/h
2244 20-07-2011 00:00:00 15.91917 C 10.35 g/m*3 15.92 C 0 km/h
2245 21-07-2011 00:00:00 16.59583 C 10.82 g/m*3 16.6 C 0 km/h
2246 22-07-2011 00:00:00 16.87083 C 8.36 g/m*3 16.87 C 0 km/h
2247 23-07-2011 00:00:00 13.94417 C 7.47 g/m*3 13.94 C 0 km/h
2248 24-07-2011 00:00:00 12.63083 C 8.38 g/m*3 12.63 C 0 km/h
2249 25-07-2011 00:00:00 16.39417 C 8.85 g/m*3 16.39 C 0 km/h
2250 26-07-2011 00:00:00 16.5375 C 10.33 g/m*3 16.54 C 0 km/h
Sensor: Nr:Datum:Temp:Abs-Feuchte:Windchill:Wind:
Aussen-T/F 2251 27-07-2011 00:00:00 17.045 C 11.16 g/m*3 17.05 C 0 km/h
2252 28-07-2011 00:00:00 18.71345 C 11.5 g/m*3 18.71 C 0 km/h
2253 29-07-2011 00:00:00 17.87583 C 9.99 g/m*3 17.88 C 0 km/h
2254 30-07-2011 00:00:00 15.04833 C 8.6 g/m*3 15.05 C 0 km/h
2255 31-07-2011 00:00:00 15.27667 C 7.67 g/m*3 15.28 C 0 km/h
2256 01-08-2011 00:00:00 16.885 C 8.98 g/m*3 16.89 C 0 km/h
2257 02-08-2011 00:00:00 20.45917 C 10.66 g/m*3 20.46 C 0 km/h
2258 03-08-2011 00:00:00 19.3425 C 12.45 g/m*3 19.34 C 0 km/h
2259 04-08-2011 00:00:00 21.59083 C 12.52 g/m*3 21.59 C 0 km/h
2260 05-08-2011 00:00:00 22.10417 C 12.9 g/m*3 22.1 C 0 km/h
2261 06-08-2011 00:00:00 19.43333 C 13.51 g/m*3 19.43 C 0 km/h
2262 07-08-2011 00:00:00 17.99583 C 9.29 g/m*3 18 C 0 km/h
2263 08-08-2011 00:00:00 15.61 C 8.66 g/m*3 15.61 C 0 km/h
2264 09-08-2011 00:00:00 15.21177 C 8.52 g/m*3 15.21 C 0 km/h
2265 10-08-2011 00:00:00 11.545 C 7.33 g/m*3 11.55 C 0 km/h
2266 11-08-2011 00:00:00 15.27417 C 7.81 g/m*3 15.27 C 0 km/h
2267 12-08-2011 00:00:00 17.7625 C 10.87 g/m*3 17.76 C 0 km/h
2268 13-08-2011 00:00:00 19.08833 C 11.8 g/m*3 19.09 C 0 km/h
2269 14-08-2011 00:00:00 18.79167 C 12.74 g/m*3 18.79 C 0 km/h
2270 15-08-2011 00:00:00 19.07917 C 10.51 g/m*3 19.08 C 0 km/h
2271 16-08-2011 00:00:00 18.73083 C 9.69 g/m*3 18.73 C 0 km/h
2272 17-08-2011 00:00:00 18.89 C 10.72 g/m*3 18.89 C 0 km/h
2273 18-08-2011 00:00:00 22.63167 C 12.33 g/m*3 22.63 C 0 km/h
2274 19-08-2011 00:00:00 19.24667 C 11.36 g/m*3 19.25 C 0 km/h
2275 20-08-2011 00:00:00 18.59833 C 10.46 g/m*3 18.6 C 0 km/h
Sensor: Nr:Datum:Temp:Abs-Feuchte:Windchill:Wind:
Aussen-T/F 2276 21-08-2011 00:00:00 20.63583 C 12.38 g/m*3 20.64 C 0 km/h
2277 22-08-2011 00:00:00 23.83613 C 13.38 g/m*3 23.84 C 0 km/h
2278 23-08-2011 00:00:00 23.46583 C 12.87 g/m*3 23.47 C 0 km/h
2279 24-08-2011 00:00:00 20.97833 C 12.32 g/m*3 20.98 C 0 km/h
2280 25-08-2011 00:00:00 20.68833 C 12.56 g/m*3 20.69 C 0 km/h
2281 26-08-2011 00:00:00 20.87 C 13.51 g/m*3 20.87 C 0 km/h
2282 27-08-2011 00:00:00 15.035 C 9.87 g/m*3 15.04 C 0 km/h
2283 28-08-2011 00:00:00 15.25583 C 8.29 g/m*3 15.26 C 0 km/h
2284 29-08-2011 00:00:00 14.68667 C 7.47 g/m*3 14.69 C 0 km/h
2285 30-08-2011 00:00:00 12.15833 C 7.48 g/m*3 12.16 C 0 km/h
2286 31-08-2011 00:00:00 13.1325 C 7.9 g/m*3 13.13 C 0 km/h
2287 01-09-2011 00:00:00 15.16083 C 8.72 g/m*3 15.16 C 0 km/h
2288 02-09-2011 00:00:00 17.55667 C 10.68 g/m*3 17.56 C 0 km/h
2289 03-09-2011 00:00:00 20.71597 C 12.56 g/m*3 20.72 C 0 km/h
2290 04-09-2011 00:00:00 21.65833 C 12.72 g/m*3 21.66 C 0 km/h
2291 05-09-2011 00:00:00 17.79667 C 7.96 g/m*3 17.8 C 0 km/h
2292 06-09-2011 00:00:00 15.93333 C 7.85 g/m*3 15.93 C 0 km/h
2293 07-09-2011 00:00:00 16.43 C 7.86 g/m*3 16.43 C 0 km/h
2294 08-09-2011 00:00:00 15.3775 C 7.81 g/m*3 15.38 C 0 km/h
2295 09-09-2011 00:00:00 18.46 C 11.77 g/m*3 18.46 C 0 km/h
2296 10-09-2011 00:00:00 21.15667 C 14.36 g/m*3 21.16 C 0 km/h
2297 11-09-2011 00:00:00 17.895 C 12.4 g/m*3 17.9 C 0 km/h
2298 12-09-2011 00:00:00 17.43583 C 10.22 g/m*3 17.44 C 0 km/h
2299 13-09-2011 00:00:00 18.005 C 10.27 g/m*3 18.01 C 0 km/h
2300 14-09-2011 00:00:00 14.43917 C 7.46 g/m*3 14.44 C 0 km/h
Sensor: Nr:Datum:Temp:Abs-Feuchte:Windchill:Wind:
Aussen-T/F 2301 15-09-2011 00:00:00 13.91583 C 7.97 g/m*3 13.92 C 0 km/h
2302 16-09-2011 00:00:00 12.79667 C 8.83 g/m*3 12.8 C 0 km/h
2303 17-09-2011 00:00:00 16.78824 C 9.66 g/m*3 16.79 C 0 km/h
2304 18-09-2011 00:00:00 12.7625 C 8.18 g/m*3 12.76 C 0 km/h
2305 19-09-2011 00:00:00 12.76833 C 7.68 g/m*3 12.77 C 0 km/h
2306 20-09-2011 00:00:00 12.41333 C 8.1 g/m*3 12.41 C 0 km/h
2307 21-09-2011 00:00:00 13.775 C 8.34 g/m*3 13.78 C 0 km/h
2308 22-09-2011 00:00:00 15.79167 C 7.98 g/m*3 15.79 C 0 km/h
2309 23-09-2011 00:00:00 14.20917 C 7.92 g/m*3 14.21 C 0 km/h
2310 24-09-2011 00:00:00 12.8025 C 8.32 g/m*3 12.8 C 0 km/h
2311 25-09-2011 00:00:00 14.1125 C 9.33 g/m*3 14.11 C 0 km/h
2312 26-09-2011 00:00:00 15.74917 C 10.22 g/m*3 15.75 C 0 km/h
2313 27-09-2011 00:00:00 17.1525 C 10.93 g/m*3 17.15 C 0 km/h
2314 28-09-2011 00:00:00 16.71 C 11.03 g/m*3 16.71 C 0 km/h
2315 29-09-2011 00:00:00 16.13167 C 10.33 g/m*3 16.13 C 0 km/h
2316 30-09-2011 00:00:00 14.48824 C 9.37 g/m*3 14.49 C 0 km/h
2317 01-10-2011 00:00:00 14.3525 C 9.54 g/m*3 14.35 C 0 km/h
2318 02-10-2011 00:00:00 14.74 C 9.74 g/m*3 14.74 C 0 km/h
2319 03-10-2011 00:00:00 15.125 C 9.75 g/m*3 15.13 C 0 km/h
2320 04-10-2011 00:00:00 16.96167 C 9.11 g/m*3 16.96 C 0 km/h
2321 05-10-2011 00:00:00 17.94667 C 9.13 g/m*3 17.95 C 0 km/h
2322 06-10-2011 00:00:00 14.175 C 8.46 g/m*3 14.18 C 0 km/h
2323 07-10-2011 00:00:00 9.92583 C 6.22 g/m*3 9.93 C 0 km/h
2324 08-10-2011 00:00:00 9.01167 C 6.47 g/m*3 9.01 C 0 km/h
2325 09-10-2011 00:00:00 9.11667 C 7.02 g/m*3 9.12 C 0 km/h
Sensor: Nr:Datum:Temp:Abs-Feuchte:Windchill:Wind:
Aussen-T/F 2326 10-10-2011 00:00:00 16.5475 C 9.61 g/m*3 16.55 C 0 km/h
2327 11-10-2011 00:00:00 16.37917 C 8.72 g/m*3 16.38 C 0 km/h
2328 12-10-2011 00:00:00 15.74333 C 8.96 g/m*3 15.74 C 0 km/h
2329 13-10-2011 00:00:00 10.145 C 6.96 g/m*3 10.15 C 0 km/h
2330 14-10-2011 00:00:00 6.14286 C 5.77 g/m*3 6.14 C 0 km/h
2331 15-10-2011 00:00:00 4.65417 C 5.23 g/m*3 4.65 C 0 km/h
2332 16-10-2011 00:00:00 4.29833 C 5.17 g/m*3 4.3 C 0 km/h
2333 17-10-2011 00:00:00 6.42917 C 6.14 g/m*3 6.43 C 0 km/h
2334 18-10-2011 00:00:00 8.99833 C 7.14 g/m*3 9 C 0 km/h
2335 19-10-2011 00:00:00 8.2025 C 5.92 g/m*3 8.2 C 0 km/h
2336 20-10-2011 00:00:00 5.4275 C 5.58 g/m*3 5.43 C 0 km/h
2337 21-10-2011 00:00:00 3.16333 C 5.27 g/m*3 3.16 C 0 km/h
2338 22-10-2011 00:00:00 3.45333 C 5.04 g/m*3 3.45 C 0 km/h
2339 23-10-2011 00:00:00 2.44833 C 4.92 g/m*3 2.45 C 0 km/h
2340 24-10-2011 00:00:00 5.85083 C 5.45 g/m*3 5.85 C 0 km/h
2341 25-10-2011 00:00:00 9.17417 C 6.55 g/m*3 9.17 C 0 km/h
2342 26-10-2011 00:00:00 9.305 C 6.4 g/m*3 9.31 C 0 km/h
2343 27-10-2011 00:00:00 5.69333 C 6.08 g/m*3 5.69 C 0 km/h
2344 28-10-2011 00:00:00 8.32857 C 7.33 g/m*3 8.33 C 0 km/h
2345 29-10-2011 00:00:00 10.61667 C 8.11 g/m*3 10.62 C 0 km/h
2346 30-10-2011 00:00:00 12.2192 C 9.31 g/m*3 12.22 C 0 km/h
2347 31-10-2011 00:00:00 11.39 C 8.86 g/m*3 11.39 C 0 km/h
2348 01-11-2011 00:00:00 9.17333 C 7.52 g/m*3 9.17 C 0 km/h
2349 02-11-2011 00:00:00 10.59667 C 7.89 g/m*3 10.6 C 0 km/h
2350 03-11-2011 00:00:00 11.35583 C 7.36 g/m*3 11.36 C 0 km/h
Sensor: Nr:Datum:Temp:Abs-Feuchte:Windchill:Wind:
Aussen-T/F 2351 04-11-2011 00:00:00 10.15333 C 7.6 g/m*3 10.15 C 0 km/h
2352 05-11-2011 00:00:00 10.31333 C 7.32 g/m*3 10.31 C 0 km/h
2353 06-11-2011 00:00:00 8.90583 C 7.36 g/m*3 8.91 C 0 km/h
2354 07-11-2011 00:00:00 8.85 C 7.07 g/m*3 8.85 C 0 km/h
2355 08-11-2011 00:00:00 5.84583 C 6.28 g/m*3 5.85 C 0 km/h
2356 09-11-2011 00:00:00 6.5025 C 6.49 g/m*3 6.5 C 0 km/h
2357 10-11-2011 00:00:00 6.29328 C 6.04 g/m*3 6.29 C 0 km/h
2358 11-11-2011 00:00:00 6.25417 C 5.61 g/m*3 6.25 C 0 km/h
2359 12-11-2011 00:00:00 4.20083 C 5.31 g/m*3 4.2 C 0 km/h
2360 13-11-2011 00:00:00 4.15833 C 5.51 g/m*3 4.16 C 0 km/h
2361 14-11-2011 00:00:00 0.35917 C 4.59 g/m*3 0.36 C 0 km/h
2362 15-11-2011 00:00:00 0.25583 C 4.55 g/m*3 0.26 C 0 km/h
2363 16-11-2011 00:00:00 -1.28871 C 4.06 g/m*3 -1.29 C 0 km/h
2364 17-11-2011 00:00:00 3.935 C 5.08 g/m*3 3.94 C 0 km/h
2365 18-11-2011 00:00:00 7.49833 C 6.7 g/m*3 7.5 C 0 km/h
2366 19-11-2011 00:00:00 5.435 C 6.26 g/m*3 5.44 C 0 km/h
2367 20-11-2011 00:00:00 6.58083 C 6.06 g/m*3 6.58 C 0 km/h
2368 21-11-2011 00:00:00 1.40917 C 4.92 g/m*3 1.41 C 0 km/h
2369 22-11-2011 00:00:00 1.14083 C 4.83 g/m*3 1.14 C 0 km/h
2370 23-11-2011 00:00:00 1.59583 C 5.02 g/m*3 1.6 C 0 km/h
2371 24-11-2011 00:00:00 2.37083 C 5.25 g/m*3 2.37 C 0 km/h
2372 25-11-2011 00:00:00 1.0775 C 4.47 g/m*3 1.08 C 0 km/h
2373 26-11-2011 00:00:00 6.25167 C 5.54 g/m*3 6.25 C 0 km/h
2374 27-11-2011 00:00:00 7.40833 C 5.63 g/m*3 7.41 C 0 km/h
2375 28-11-2011 00:00:00 0.83833 C 4.74 g/m*3 0.84 C 0 km/h
Sensor: Nr:Datum:Temp:Abs-Feuchte:Windchill:Wind:
Aussen-T/F 2376 29-11-2011 00:00:00 1.88167 C 4.94 g/m*3 1.88 C 0 km/h
2377 30-11-2011 00:00:00 4.85083 C 5.78 g/m*3 4.85 C 0 km/h
2378 01-12-2011 00:00:00 5.47459 C 6.17 g/m*3 5.47 C 0 km/h
2379 02-12-2011 00:00:00 7.12667 C 6.07 g/m*3 7.13 C 0 km/h
2380 03-12-2011 00:00:00 6.26583 C 5.67 g/m*3 6.27 C 0 km/h
2381 04-12-2011 00:00:00 8.2975 C 6.82 g/m*3 8.3 C 0 km/h
2382 05-12-2011 00:00:00 4.38417 C 4.68 g/m*3 4.38 C 0 km/h
2383 06-12-2011 00:00:00 4.445 C 4.4 g/m*3 4.45 C 0 km/h
2384 07-12-2011 00:00:00 5.57833 C 5 g/m*3 5.58 C 0 km/h
2385 08-12-2011 00:00:00 6.22333 C 4.58 g/m*3 6.22 C 0 km/h
2386 09-12-2011 00:00:00 5.94583 C 5.15 g/m*3 5.95 C 0 km/h
2387 10-12-2011 00:00:00 1.885 C 4.22 g/m*3 1.89 C 0 km/h
2388 11-12-2011 00:00:00 0.43667 C 4.15 g/m*3 0.44 C 0 km/h
2389 12-12-2011 00:00:00 5.94754 C 5.56 g/m*3 5.95 C 0 km/h
2390 13-12-2011 00:00:00 6.86417 C 5.29 g/m*3 6.86 C 0 km/h
2391 14-12-2011 00:00:00 6.68371 C 6.1 g/m*3 4.39 C 11.45758 km/h
2392 15-12-2011 00:00:00 6.13646 C 5.7 g/m*3 3.9 C 10.55208 km/h
2393 16-12-2011 00:00:00 6.07222 C 6.06 g/m*3 3.54 C 12.08819 km/h
2394 17-12-2011 00:00:00 3.63507 C 5.26 g/m*3 1.48 C 8.17431 km/h
2395 18-12-2011 00:00:00 2.25764 C 4.91 g/m*3 0.33 C 6.6875 km/h
2396 19-12-2011 00:00:00 1.70208 C 4.69 g/m*3 1.7 C 4.33715 km/h
2397 20-12-2011 00:00:00 2.28715 C 5.15 g/m*3 2.29 C 4.2434 km/h
2398 21-12-2011 00:00:00 4.19792 C 5.66 g/m*3 2.64 C 6.47639 km/h
2399 22-12-2011 00:00:00 6.57917 C 7.14 g/m*3 6.58 C 3.52847 km/h
2400 23-12-2011 00:00:00 8.41806 C 7.71 g/m*3 8.42 C 4.81424 km/h
Sensor: Nr:Datum:Temp:Abs-Feuchte:Windchill:Wind:
Aussen-T/F 2401 24-12-2011 00:00:00 5.63368 C 5.92 g/m*3 3.43 C 9.91007 km/h
2402 25-12-2011 00:00:00 5.68472 C 6.14 g/m*3 3.52 C 9.78507 km/h
2403 26-12-2011 00:00:00 8.12222 C 7.46 g/m*3 6.74 C 8.26389 km/h
2404 27-12-2011 00:00:00 8.25139 C 7.48 g/m*3 8.25 C 2.92604 km/h
2405 28-12-2011 00:00:00 5.71424 C 6.17 g/m*3 4.17 C 7.23854 km/h
2406 29-12-2011 00:00:00 5.51667 C 5.66 g/m*3 2.84 C 12.22257 km/h
2407 30-12-2011 00:00:00 4.24861 C 5.39 g/m*3 1.73 C 10.11736 km/h
2408 31-12-2011 00:00:00 5.15729 C 6.43 g/m*3 5.16 C 3.01632 km/h
2409 01-01-2012 00:00:00 12.02807 C 9.43 g/m*3 12.03 C 8.78386 km/h
2410 02-01-2012 00:00:00 8.87847 C 7.72 g/m*3 7.94 C 6.93264 km/h
2411 03-01-2012 00:00:00 7.43403 C 6.52 g/m*3 5.14 C 12.40729 km/h
2412 04-01-2012 00:00:00 6.56875 C 5.76 g/m*3 4.06 C 12.56285 km/h
2413 05-01-2012 00:00:00 6.88368 C 6.18 g/m*3 3.58 C 18.83542 km/h
2414 06-01-2012 00:00:00 5.40208 C 5.7 g/m*3 2.58 C 12.92361 km/h
2415 07-01-2012 00:00:00 5.54653 C 5.98 g/m*3 2.83 C 12.50278 km/h
2416 08-01-2012 00:00:00 5.96042 C 6.13 g/m*3 4.3 C 7.84514 km/h
2417 09-01-2012 00:00:00 6.11424 C 6.58 g/m*3 4.81 C 6.62743 km/h
2418 10-01-2012 00:00:00 6.93056 C 7.03 g/m*3 6.93 C 3.02882 km/h
2419 11-01-2012 00:00:00 8.11597 C 6.84 g/m*3 7.26 C 6.14826 km/h
2420 12-01-2012 00:00:00 8.18819 C 6.9 g/m*3 6.08 C 12.27049 km/h
2421 13-01-2012 00:00:00 5.12569 C 5.2 g/m*3 2.95 C 9.37569 km/h
2422 14-01-2012 00:00:00 3.95417 C 5 g/m*3 3.95 C 4.25694 km/h
2423 15-01-2012 00:00:00 -0.23715 C 4.52 g/m*3 -0.24 C 1.86111 km/h
2424 16-01-2012 00:00:00 -1.80312 C 4.02 g/m*3 -1.8 C 1.83333 km/h
2425 17-01-2012 00:00:00 -2.78368 C 3.69 g/m*3 -2.78 C 1.10556 km/h
Sensor: Nr:Datum:Temp:Abs-Feuchte:Windchill:Wind:
Aussen-T/F 2426 18-01-2012 00:00:00 -0.12708 C 4.32 g/m*3 -2.76 C 7.60694 km/h
2427 19-01-2012 00:00:00 6.67639 C 6.84 g/m*3 3.88 C 14.53819 km/h
2428 20-01-2012 00:00:00 4.025 C 5.54 g/m*3 1.91 C 8.28333 km/h
2429 21-01-2012 00:00:00 5.73681 C 6.39 g/m*3 3.58 C 9.81354 km/h
2430 22-01-2012 00:00:00 6.85764 C 5.84 g/m*3 4.26 C 13.54236 km/h
2431 23-01-2012 00:00:00 5.22708 C 5.7 g/m*3 3.41 C 7.97396 km/h
2432 24-01-2012 00:00:00 3.1191 C 5.44 g/m*3 3.12 C 3.95903 km/h
2433 25-01-2012 00:00:00 0.47708 C 4.75 g/m*3 0.48 C 1.85 km/h
2434 26-01-2012 00:00:00 1.84132 C 4.64 g/m*3 1.84 C 3.40451 km/h
2435 27-01-2012 00:00:00 2.58437 C 5.32 g/m*3 2.58 C 1.90104 km/h
2436 28-01-2012 00:00:00 2.69896 C 5.12 g/m*3 2.7 C 1.55729 km/h
2437 29-01-2012 00:00:00 0.84583 C 4.18 g/m*3 0.85 C 4.61007 km/h
2438 30-01-2012 00:00:00 -0.00208 C 3.89 g/m*3 0 C 2.62326 km/h
2439 31-01-2012 00:00:00 -1.90972 C 2.97 g/m*3 -4 C 5.50486 km/h
2440 01-02-2012 00:00:00 -5.28403 C 2.04 g/m*3 -8.99 C 8.11736 km/h
2441 02-02-2012 00:00:00 -7.12396 C 1.51 g/m*3 -10.34 C 6.25729 km/h
2442 03-02-2012 00:00:00 -8.52361 C 1.79 g/m*3 -8.52 C 2.86215 km/h
2443 04-02-2012 00:00:00 -8.31389 C 2.08 g/m*3 -8.31 C 2.1 km/h
2444 05-02-2012 00:00:00 -9.04861 C 1.83 g/m*3 -9.05 C 2.36215 km/h
2445 06-02-2012 00:00:00 -9.67674 C 1.68 g/m*3 -9.68 C 2.38958 km/h
2446 07-02-2012 00:00:00 -9.19832 C 1.73 g/m*3 -12.43 C 5.69706 km/h
2447 08-02-2012 00:00:00 -5.57083 C 2.37 g/m*3 -8.79 C 6.79792 km/h
2448 09-02-2012 00:00:00 -7.39479 C 2.48 g/m*3 -7.39 C 2.61215 km/h
2449 10-02-2012 00:00:00 -6.11875 C 2.37 g/m*3 -6.12 C 4.48194 km/h
2450 11-02-2012 00:00:00 -8.24931 C 1.89 g/m*3 -8.25 C 4.42743 km/h
Sensor: Nr:Datum:Temp:Abs-Feuchte:Windchill:Wind:
Aussen-T/F 2451 12-02-2012 00:00:00 -6.58063 C 2.2 g/m*3 -6.58 C 2.04269 km/h
2452 13-02-2012 00:00:00 -0.88993 C 3.76 g/m*3 -0.89 C 2.37813 km/h
2453 14-02-2012 00:00:00 1.59931 C 5.05 g/m*3 1.6 C 4.2559 km/h
2454 15-02-2012 00:00:00 3.97674 C 5.46 g/m*3 1 C 12.0816 km/h
2455 16-02-2012 00:00:00 3.54896 C 5.63 g/m*3 2.4 C 5.08507 km/h
2456 17-02-2012 00:00:00 5.57917 C 6.2 g/m*3 3.56 C 9.06771 km/h
2457 18-02-2012 00:00:00 6.37083 C 6.55 g/m*3 5.3 C 6.00278 km/h
2458 19-02-2012 00:00:00 2.99271 C 5.23 g/m*3 1.26 C 6.44375 km/h
2459 20-02-2012 00:00:00 1.18333 C 4.47 g/m*3 1.18 C 2.83542 km/h
2460 21-02-2012 00:00:00 1.84583 C 4.31 g/m*3 0.32 C 5.43472 km/h
2461 22-02-2012 00:00:00 3.17951 C 4.88 g/m*3 3.18 C 4.49236 km/h
2462 23-02-2012 00:00:00 6.17352 C 6 g/m*3 3.54 C 12.77909 km/h
2463 24-02-2012 00:00:00 9.38101 C 7.83 g/m*3 7.78 C 10.64767 km/h
2464 25-02-2012 00:00:00 8.6186 C 6.96 g/m*3 7.94 C 5.80281 km/h
2465 26-02-2012 00:00:00 5.29167 C 6.13 g/m*3 5.29 C 3.88611 km/h
2466 27-02-2012 00:00:00 5.83671 C 5.98 g/m*3 5.84 C 3.63392 km/h
2467 28-02-2012 00:00:00 8.57639 C 7.33 g/m*3 7.89 C 5.80451 km/h
2468 29-02-2012 00:00:00 9.50385 C 8.41 g/m*3 9.5 C 1.76783 km/h
2469 01-03-2012 00:00:00 9.01563 C 8.27 g/m*3 9.02 C 1.62292 km/h
2470 02-03-2012 00:00:00 8.57986 C 7.95 g/m*3 8.58 C 2.37986 km/h
2471 03-03-2012 00:00:00 7.91597 C 7.43 g/m*3 7.92 C 1.94653 km/h
2472 04-03-2012 00:00:00 8.65625 C 7.04 g/m*3 8.66 C 2.75069 km/h
2473 05-03-2012 00:00:00 5.81597 C 5.57 g/m*3 4.08 C 8.05174 km/h
2474 06-03-2012 00:00:00 5.43924 C 5.12 g/m*3 5.44 C 4.19063 km/h
2475 07-03-2012 00:00:00 2.93962 C 4.81 g/m*3 1.24 C 6.32906 km/h
Sensor: Nr:Datum:Temp:Abs-Feuchte:Windchill:Wind:
Aussen-T/F 2476 08-03-2012 00:00:00 5.35833 C 5.6 g/m*3 3.45 C 8.425 km/h
2477 09-03-2012 00:00:00 4.88437 C 5.29 g/m*3 4.88 C 3.76771 km/h
2478 10-03-2012 00:00:00 8.58541 C 6.77 g/m*3 8.59 C 4.07082 km/h
2479 11-03-2012 00:00:00 9.26775 C 7.44 g/m*3 9.27 C 4.08261 km/h
2480 12-03-2012 00:00:00 8.0632 C 7.18 g/m*3 8.06 C 4.78216 km/h
2481 13-03-2012 00:00:00 7.68299 C 6.78 g/m*3 7.68 C 2.73958 km/h
2482 14-03-2012 00:00:00 6.93542 C 6.09 g/m*3 6.94 C 2.55694 km/h
2483 15-03-2012 00:00:00 7.07812 C 6.17 g/m*3 7.08 C 2.43472 km/h
2484 16-03-2012 00:00:00 10.01696 C 6.56 g/m*3 10.02 C 2.57739 km/h
2485 17-03-2012 00:00:00 9.42917 C 6.8 g/m*3 8.99 C 5.38056 km/h
2486 18-03-2012 00:00:00 8.64931 C 7.23 g/m*3 8.65 C 4.38299 km/h
2487 19-03-2012 00:00:00 7.37083 C 5.72 g/m*3 7.37 C 4.39375 km/h
2488 20-03-2012 00:00:00 6.81088 C 5.19 g/m*3 6.81 C 2.84728 km/h
2489 21-03-2012 00:00:00 7.73902 C 5.64 g/m*3 7.74 C 2.80592 km/h
2490 22-03-2012 00:00:00 10.07666 C 6.73 g/m*3 10.08 C 3.77387 km/h
2491 23-03-2012 00:00:00 11.69132 C 7.52 g/m*3 11.69 C 2.95729 km/h
2492 24-03-2012 00:00:00 11.62674 C 7.38 g/m*3 11.63 C 2.56215 km/h
2493 25-03-2012 00:00:00 12.80873 C 7.04 g/m*3 12.81 C 3.29964 km/h
2494 26-03-2012 00:00:00 11.16806 C 5.93 g/m*3 11.17 C 3.51563 km/h
2495 27-03-2012 00:00:00 11.10694 C 6.65 g/m*3 11.11 C 4.18021 km/h
2496 28-03-2012 00:00:00 11.74201 C 7.1 g/m*3 11.74 C 3.72708 km/h
2497 29-03-2012 00:00:00 9.58194 C 6.51 g/m*3 8.4 C 8.56007 km/h
2498 30-03-2012 00:00:00 9.39062 C 7.16 g/m*3 8 C 9.48438 km/h
2499 31-03-2012 00:00:00 7.98706 C 6.3 g/m*3 6.73 C 7.63427 km/h
2500 01-04-2012 00:00:00 4.77396 C 4.26 g/m*3 4.77 C 4.45451 km/h
Sensor: Nr:Datum:Temp:Abs-Feuchte:Windchill:Wind:
Aussen-T/F 2501 02-04-2012 00:00:00 6.64685 C 5.4 g/m*3 6.65 C 3.51643 km/h
2502 03-04-2012 00:00:00 11.08125 C 6.34 g/m*3 11.08 C 3.84514 km/h
2503 04-04-2012 00:00:00 9.89722 C 7.68 g/m*3 9.9 C 4.97083 km/h
2504 05-04-2012 00:00:00 7.74514 C 6.58 g/m*3 7.75 C 4.3691 km/h
2505 06-04-2012 00:00:00 7.88679 C 5.55 g/m*3 7.89 C 3.89321 km/h
2506 07-04-2012 00:00:00 5.61389 C 5.15 g/m*3 4.49 C 5.80486 km/h
2507 08-04-2012 00:00:00 5.19194 C 3.73 g/m*3 5.19 C 4.34725 km/h
2508 09-04-2012 00:00:00 7.24583 C 6.56 g/m*3 7.25 C 4.80278 km/h
2509 10-04-2012 00:00:00 11.25451 C 7.92 g/m*3 11.25 C 5.78993 km/h
2510 11-04-2012 00:00:00 9.71215 C 6.72 g/m*3 9.19 C 5.81146 km/h
2511 12-04-2012 00:00:00 6.41736 C 6.3 g/m*3 6.42 C 3.28576 km/h
2512 13-04-2012 00:00:00 6.76632 C 6.2 g/m*3 6.77 C 3.36146 km/h
2513 14-04-2012 00:00:00 7.83021 C 5.85 g/m*3 7.83 C 3.32292 km/h
2514 15-04-2012 00:00:00 8.52361 C 6.33 g/m*3 7.06 C 9.00625 km/h
2515 16-04-2012 00:00:00 5.92438 C 4.62 g/m*3 3.99 C 8.9624 km/h
2516 17-04-2012 00:00:00 5.90382 C 4.31 g/m*3 5.03 C 5.20451 km/h
2517 18-04-2012 00:00:00 8.72674 C 6.28 g/m*3 7.96 C 6.1816 km/h
2518 19-04-2012 00:00:00 8.47422 C 6.89 g/m*3 8.47 C 4.56829 km/h
2519 20-04-2012 00:00:00 7.07115 C 6.66 g/m*3 7.07 C 3.15337 km/h
2520 21-04-2012 00:00:00 8.16701 C 6.8 g/m*3 7.41 C 5.84132 km/h
2521 22-04-2012 00:00:00 7.84306 C 6.56 g/m*3 6.44 C 8.12708 km/h
2522 23-04-2012 00:00:00 8.39097 C 6.75 g/m*3 7.92 C 5.03333 km/h
2523 24-04-2012 00:00:00 8.89757 C 7.41 g/m*3 8.28 C 5.73542 km/h
2524 25-04-2012 00:00:00 10.14167 C 7.42 g/m*3 9.44 C 6.77951 km/h
2525 26-04-2012 00:00:00 11.47083 C 8.24 g/m*3 11.47 C 6.83507 km/h
Sensor: Nr:Datum:Temp:Abs-Feuchte:Windchill:Wind:
Aussen-T/F 2526 27-04-2012 00:00:00 12.5625 C 9.11 g/m*3 12.56 C 2.90104 km/h
2527 28-04-2012 00:00:00 18.10903 C 11.21 g/m*3 18.11 C 3.17847 km/h
2528 29-04-2012 00:00:00 16.89826 C 10.53 g/m*3 16.9 C 4.97257 km/h
2529 30-04-2012 00:00:00 17.93194 C 9.73 g/m*3 17.93 C 5.83958 km/h
2530 01-05-2012 00:00:00 17.12465 C 10.46 g/m*3 17.12 C 5.35833 km/h
2531 02-05-2012 00:00:00 15.24479 C 11.32 g/m*3 15.24 C 4.1625 km/h
2532 03-05-2012 00:00:00 13.43472 C 9.03 g/m*3 13.43 C 4.52049 km/h
2533 04-05-2012 00:00:00 14.57083 C 9.2 g/m*3 14.57 C 4.31979 km/h
2534 05-05-2012 00:00:00 11.45069 C 9.57 g/m*3 11.45 C 2.0691 km/h
2535 06-05-2012 00:00:00 10.57674 C 9.04 g/m*3 10.58 C 2.72743 km/h
2536 07-05-2012 00:00:00 10.38681 C 8.05 g/m*3 10.39 C 2.83542 km/h
2537 08-05-2012 00:00:00 13.89063 C 8.76 g/m*3 13.89 C 4.06285 km/h
2538 09-05-2012 00:00:00 16.78229 C 11.72 g/m*3 16.78 C 4.3441 km/h
2539 10-05-2012 00:00:00 19.11111 C 12.91 g/m*3 19.11 C 3.2934 km/h
2540 11-05-2012 00:00:00 19.125 C 13.25 g/m*3 19.13 C 4.69688 km/h
2541 12-05-2012 00:00:00 11.31289 C 7.13 g/m*3 11.31 C 6.93972 km/h
2542 13-05-2012 00:00:00 9.38646 C 6.01 g/m*3 9.39 C 3.54444 km/h
2543 14-05-2012 00:00:00 11.40799 C 6.45 g/m*3 11.41 C 3.29792 km/h
2544 15-05-2012 00:00:00 9.5625 C 6.83 g/m*3 9.16 C 5.31528 km/h
2545 16-05-2012 00:00:00 8.66597 C 6.56 g/m*3 7.74 C 6.74236 km/h
2546 17-05-2012 00:00:00 9.38889 C 6.11 g/m*3 9.39 C 3.74201 km/h
2547 18-05-2012 00:00:00 12.68299 C 8.58 g/m*3 12.68 C 3.73611 km/h
2548 19-05-2012 00:00:00 15.71389 C 11.07 g/m*3 15.71 C 3.01667 km/h
2549 20-05-2012 00:00:00 17.6684 C 11.84 g/m*3 17.67 C 2.85521 km/h
2550 21-05-2012 00:00:00 18.51324 C 12.9 g/m*3 18.51 C 3.62056 km/h
Sensor: Nr:Datum:Temp:Abs-Feuchte:Windchill:Wind:
Aussen-T/F 2551 22-05-2012 00:00:00 21.31944 C 13.69 g/m*3 21.32 C 4.20417 km/h
2552 23-05-2012 00:00:00 18.79965 C 14.38 g/m*3 18.8 C 2.22951 km/h
2553 24-05-2012 00:00:00 20.67596 C 13.27 g/m*3 20.68 C 3.73554 km/h
2554 25-05-2012 00:00:00 19.43659 C 8.08 g/m*3 19.44 C 7.67038 km/h
2555 26-05-2012 00:00:00 18.11007 C 8.4 g/m*3 18.11 C 5.16944 km/h
2556 27-05-2012 00:00:00 18.05868 C 9.6 g/m*3 18.06 C 2.91215 km/h
2557 28-05-2012 00:00:00 18.89167 C 10.37 g/m*3 18.89 C 3.94348 km/h
2558 29-05-2012 00:00:00 18.3861 C 10.26 g/m*3 18.39 C 4.0695 km/h
2559 30-05-2012 00:00:00 17.68438 C 11.87 g/m*3 17.68 C 3.49167 km/h
2560 31-05-2012 00:00:00 16.03021 C 11.52 g/m*3 16.03 C 4.43785 km/h
2561 01-06-2012 00:00:00 15.75909 C 10.21 g/m*3 15.76 C 6.05315 km/h
2562 02-06-2012 00:00:00 15.19271 C 9.16 g/m*3 15.19 C 3.1559 km/h
2563 03-06-2012 00:00:00 12.59011 C 9.82 g/m*3 12.59 C 2.24762 km/h
2564 04-06-2012 00:00:00 13.31389 C 9.93 g/m*3 13.31 C 5.88403 km/h
2565 05-06-2012 00:00:00 12.15312 C 7.43 g/m*3 12.15 C 4.47674 km/h
2566 06-06-2012 00:00:00 13.09444 C 9.9 g/m*3 13.09 C 3.34722 km/h
2567 07-06-2012 00:00:00 16.45799 C 12.45 g/m*3 16.46 C 1.94236 km/h
2568 08-06-2012 00:00:00 17.34097 C 10.69 g/m*3 17.34 C 7.78056 km/h
2569 09-06-2012 00:00:00 14.79028 C 8.37 g/m*3 14.79 C 6.97674 km/h
2570 10-06-2012 00:00:00 15.29514 C 8.7 g/m*3 15.3 C 3.03576 km/h
2571 11-06-2012 00:00:00 14.57014 C 10.58 g/m*3 14.57 C 2.15208 km/h
2572 12-06-2012 00:00:00 14.40729 C 10.65 g/m*3 14.41 C 3.45451 km/h
2573 13-06-2012 00:00:00 12.57122 C 10.25 g/m*3 12.57 C 3.38081 km/h
2574 14-06-2012 00:00:00 14.15694 C 9.93 g/m*3 14.16 C 1.8191 km/h
2575 15-06-2012 00:00:00 16.11806 C 11.68 g/m*3 16.12 C 2.80417 km/h
Sensor: Nr:Datum:Temp:Abs-Feuchte:Windchill:Wind:
Aussen-T/F 2576 16-06-2012 00:00:00 15.40799 C 12.19 g/m*3 15.41 C 2.89306 km/h
2577 17-06-2012 00:00:00 17.28021 C 10.37 g/m*3 17.28 C 5.15313 km/h
2578 18-06-2012 00:00:00 18.57292 C 11.77 g/m*3 18.57 C 4.89653 km/h
2579 19-06-2012 00:00:00 17.44028 C 12.26 g/m*3 17.44 C 1.76389 km/h
2580 20-06-2012 00:00:00 16.35833 C 13.49 g/m*3 16.36 C 1.52674 km/h
2581 21-06-2012 00:00:00 18.41354 C 14.08 g/m*3 18.41 C 2.59965 km/h
2582 22-06-2012 00:00:00 16.36181 C 10.54 g/m*3 16.36 C 7.0059 km/h
2583 23-06-2012 00:00:00 16.63472 C 10.11 g/m*3 16.63 C 5.14444 km/h
2584 24-06-2012 00:00:00 14.73507 C 10.4 g/m*3 14.74 C 6.91354 km/h
2585 25-06-2012 00:00:00 15.09028 C 10.16 g/m*3 15.09 C 8.34479 km/h
2586 26-06-2012 00:00:00 16.43125 C 10.29 g/m*3 16.43 C 3.31285 km/h
2587 27-06-2012 00:00:00 18.07569 C 13.09 g/m*3 18.08 C 3.76944 km/h
2588 28-06-2012 00:00:00 21.87465 C 15.47 g/m*3 21.87 C 2.8309 km/h
2589 29-06-2012 00:00:00 20.49063 C 16.02 g/m*3 20.49 C 2.96215 km/h
2590 30-06-2012 00:00:00 20.14965 C 13.71 g/m*3 20.15 C 2.2625 km/h
2591 01-07-2012 00:00:00 17.98889 C 12.48 g/m*3 17.99 C 3.47257 km/h
2592 02-07-2012 00:00:00 15.24444 C 11.26 g/m*3 15.24 C 0.73889 km/h
2593 03-07-2012 00:00:00 18.02153 C 11.83 g/m*3 18.02 C 2.55382 km/h
2594 04-07-2012 00:00:00 19.87465 C 13.12 g/m*3 19.87 C 2.27778 km/h
2595 05-07-2012 00:00:00 19.09722 C 15.03 g/m*3 19.1 C 0.74479 km/h
2596 06-07-2012 00:00:00 19.21042 C 13.57 g/m*3 19.21 C 3.32431 km/h
2597 07-07-2012 00:00:00 19.57743 C 12.21 g/m*3 19.58 C 3.63854 km/h
2598 08-07-2012 00:00:00 17.84097 C 12.38 g/m*3 17.84 C 5.58993 km/h
2599 09-07-2012 00:00:00 18.63611 C 11.51 g/m*3 18.64 C 6.85972 km/h
2600 10-07-2012 00:00:00 19.1441 C 12.62 g/m*3 19.14 C 4.02951 km/h
Sensor: Nr:Datum:Temp:Abs-Feuchte:Windchill:Wind:
Aussen-T/F 2601 11-07-2012 00:00:00 16.03553 C 10.88 g/m*3 16.04 C 5.68791 km/h
2602 12-07-2012 00:00:00 14.8191 C 9.88 g/m*3 14.82 C 8.20799 km/h
2603 13-07-2012 00:00:00 15.50417 C 11.84 g/m*3 15.5 C 4.44132 km/h
2604 14-07-2012 00:00:00 15.27708 C 11.45 g/m*3 15.28 C 6.33438 km/h
2605 15-07-2012 00:00:00 14.52014 C 10.82 g/m*3 14.52 C 5.16597 km/h
2606 16-07-2012 00:00:00 15.02292 C 10.17 g/m*3 15.02 C 7.63264 km/h
2607 17-07-2012 00:00:00 17.55296 C 11.48 g/m*3 17.55 C 9.27003 km/h
2608 18-07-2012 00:00:00 19.90563 C 12.45 g/m*3 19.91 C 5.63345 km/h
2609 19-07-2012 00:00:00 18.1593 C 10.92 g/m*3 18.16 C 6.90807 km/h
2610 20-07-2012 00:00:00 14.84982 C 10.88 g/m*3 14.85 C 2.54767 km/h
2611 21-07-2012 00:00:00 15.04167 C 10.37 g/m*3 15.04 C 3.48403 km/h
2612 22-07-2012 00:00:00 14.62049 C 9.34 g/m*3 14.62 C 2.64549 km/h
2613 23-07-2012 00:00:00 17.15069 C 9.94 g/m*3 17.15 C 3.31076 km/h
2614 24-07-2012 00:00:00 19.81701 C 12.05 g/m*3 19.82 C 3.02049 km/h
2615 25-07-2012 00:00:00 22.08445 C 14.21 g/m*3 22.08 C 2.1053 km/h
2616 26-07-2012 00:00:00 23.10764 C 15.14 g/m*3 23.11 C 1.99514 km/h
2617 27-07-2012 00:00:00 22.26167 C 16.31 g/m*3 22.26 C 2.37143 km/h
2618 28-07-2012 00:00:00 19.03507 C 15.12 g/m*3 19.04 C 2.04826 km/h
2619 29-07-2012 00:00:00 17.61875 C 11.35 g/m*3 17.62 C 4.525 km/h
2620 30-07-2012 00:00:00 16.17396 C 9.66 g/m*3 16.17 C 5.72396 km/h
2621 31-07-2012 00:00:00 16.33993 C 11.03 g/m*3 16.34 C 3.13403 km/h
2622 01-08-2012 00:00:00 20.08194 C 13.03 g/m*3 20.08 C 3.05833 km/h
2623 02-08-2012 00:00:00 20.75938 C 13.57 g/m*3 20.76 C 4.57847 km/h
2624 03-08-2012 00:00:00 19.31771 C 11.89 g/m*3 19.32 C 4.20035 km/h
2625 04-08-2012 00:00:00 19.1 C 11.8 g/m*3 19.1 C 3.13889 km/h
Sensor: Nr:Datum:Temp:Abs-Feuchte:Windchill:Wind:
Aussen-T/F 2626 05-08-2012 00:00:00 19.0875 C 13.66 g/m*3 19.09 C 2.04722 km/h
2627 06-08-2012 00:00:00 18.40312 C 12.35 g/m*3 18.4 C 5.67882 km/h
2628 07-08-2012 00:00:00 17.15556 C 10.69 g/m*3 17.16 C 5.52535 km/h
2629 08-08-2012 00:00:00 16.59132 C 11.2 g/m*3 16.59 C 1.95243 km/h
2630 09-08-2012 00:00:00 18.49479 C 12.19 g/m*3 18.49 C 3.35035 km/h
2631 10-08-2012 00:00:00 17.33299 C 10.54 g/m*3 17.33 C 3.19965 km/h
2632 11-08-2012 00:00:00 16.29444 C 10.16 g/m*3 16.29 C 3.24028 km/h
2633 12-08-2012 00:00:00 17.40486 C 10.17 g/m*3 17.4 C 3.59653 km/h
2634 13-08-2012 00:00:00 18.22326 C 11.39 g/m*3 18.22 C 2.33056 km/h
2635 14-08-2012 00:00:00 19.78993 C 13.49 g/m*3 19.79 C 1.41667 km/h
2636 15-08-2012 00:00:00 22.31354 C 14.02 g/m*3 22.31 C 2.55694 km/h
2637 16-08-2012 00:00:00 21.27535 C 12.53 g/m*3 21.28 C 3.72917 km/h
2638 17-08-2012 00:00:00 20.12986 C 12.21 g/m*3 20.13 C 2.75521 km/h
2639 18-08-2012 00:00:00 23.0066 C 13.86 g/m*3 23.01 C 3.18229 km/h
2640 19-08-2012 00:00:00 24.67083 C 15.81 g/m*3 24.67 C 2.43264 km/h
2641 20-08-2012 00:00:00 23.43229 C 16.92 g/m*3 23.43 C 1.96354 km/h
2642 21-08-2012 00:00:00 22.65105 C 16.48 g/m*3 22.65 C 1.97483 km/h
2643 22-08-2012 00:00:00 20.95729 C 11.81 g/m*3 20.96 C 4.26389 km/h
2644 23-08-2012 00:00:00 17.78194 C 9.87 g/m*3 17.78 C 2.24444 km/h
2645 24-08-2012 00:00:00 18.61514 C 12.97 g/m*3 18.62 C 2.49155 km/h
2646 25-08-2012 00:00:00 18.46493 C 12.42 g/m*3 18.46 C 5.00035 km/h
2647 26-08-2012 00:00:00 16.26829 C 10.84 g/m*3 16.27 C 8.77944 km/h
2648 27-08-2012 00:00:00 16.33728 C 10.98 g/m*3 16.34 C 2.63066 km/h
2649 28-08-2012 00:00:00 18.01812 C 11.48 g/m*3 18.02 C 3.66864 km/h
2650 29-08-2012 00:00:00 20.02396 C 13.42 g/m*3 20.02 C 2.13264 km/h
Sensor: Nr:Datum:Temp:Abs-Feuchte:Windchill:Wind:
Aussen-T/F 2651 30-08-2012 00:00:00 17.48889 C 12.07 g/m*3 17.49 C 3.22465 km/h
2652 31-08-2012 00:00:00 13.93646 C 10.2 g/m*3 13.94 C 6.31146 km/h
2653 01-09-2012 00:00:00 14.49236 C 9.5 g/m*3 14.49 C 4.74896 km/h
2654 02-09-2012 00:00:00 13.96285 C 9.9 g/m*3 13.96 C 1.82257 km/h
2655 03-09-2012 00:00:00 16.22222 C 11.01 g/m*3 16.22 C 2.96493 km/h
2656 04-09-2012 00:00:00 16.86259 C 11.77 g/m*3 16.86 C 1.64021 km/h
2657 05-09-2012 00:00:00 16.4125 C 11.14 g/m*3 16.41 C 3.33681 km/h
2658 06-09-2012 00:00:00 14.61525 C 8.89 g/m*3 14.62 C 2.50035 km/h
2659 07-09-2012 00:00:00 14.4309 C 9.14 g/m*3 14.43 C 2.39931 km/h
2660 08-09-2012 00:00:00 16.83403 C 10.04 g/m*3 16.83 C 2.29444 km/h
2661 09-09-2012 00:00:00 18.54722 C 10.81 g/m*3 18.55 C 3.24271 km/h
2662 10-09-2012 00:00:00 19.67847 C 11.4 g/m*3 19.68 C 3.52361 km/h
2663 11-09-2012 00:00:00 17.74028 C 12.66 g/m*3 17.74 C 5.06389 km/h
2664 12-09-2012 00:00:00 11.13646 C 9.43 g/m*3 11.14 C 3.28194 km/h
2665 13-09-2012 00:00:00 10.78611 C 8.92 g/m*3 10.79 C 1.61944 km/h
2666 14-09-2012 00:00:00 13.01424 C 9.51 g/m*3 13.01 C 8.50729 km/h
2667 15-09-2012 00:00:00 13.44514 C 10.31 g/m*3 13.45 C 2.61597 km/h
2668 16-09-2012 00:00:00 13.24236 C 9.85 g/m*3 13.24 C 1.95903 km/h
2669 17-09-2012 00:00:00 15.15729 C 10.75 g/m*3 15.16 C 2.24271 km/h
2670 18-09-2012 00:00:00 14.10868 C 10.23 g/m*3 14.11 C 3.36389 km/h
2671 19-09-2012 00:00:00 11.7684 C 7.38 g/m*3 11.77 C 5.62153 km/h
2672 20-09-2012 00:00:00 9.9566 C 6.83 g/m*3 9.96 C 3.81424 km/h
2673 21-09-2012 00:00:00 10.62118 C 7.77 g/m*3 10.62 C 2.10278 km/h
2674 22-09-2012 00:00:00 11.53611 C 8.31 g/m*3 11.54 C 5.85486 km/h
2675 23-09-2012 00:00:00 11.58819 C 8.16 g/m*3 11.59 C 3.43542 km/h
Sensor: Nr:Datum:Temp:Abs-Feuchte:Windchill:Wind:
Aussen-T/F 2676 24-09-2012 00:00:00 14.89201 C 10.77 g/m*3 14.89 C 6.19201 km/h
2677 25-09-2012 00:00:00 12.86597 C 9.91 g/m*3 12.87 C 3.00486 km/h
2678 26-09-2012 00:00:00 12.27917 C 10.31 g/m*3 12.28 C 0.45625 km/h
2679 27-09-2012 00:00:00 12.68611 C 9.87 g/m*3 12.69 C 4.77465 km/h
2680 28-09-2012 00:00:00 12.56701 C 9.49 g/m*3 12.57 C 5.41771 km/h
2681 29-09-2012 00:00:00 11.68819 C 8.78 g/m*3 11.69 C 4.77674 km/h
2682 30-09-2012 00:00:00 9.30035 C 8.03 g/m*3 9.3 C 1.28924 km/h
2683 01-10-2012 00:00:00 9.46319 C 7.74 g/m*3 9.46 C 3.12986 km/h
2684 02-10-2012 00:00:00 12.25764 C 9.17 g/m*3 12.26 C 3.29653 km/h
2685 03-10-2012 00:00:00 14.55312 C 10.23 g/m*3 14.55 C 6.72014 km/h
2686 04-10-2012 00:00:00 12.89722 C 9.38 g/m*3 12.9 C 9.02361 km/h
2687 05-10-2012 00:00:00 13.57986 C 10.01 g/m*3 13.58 C 12.05486 km/h
2688 06-10-2012 00:00:00 14.99469 C 10.77 g/m*3 14.99 C 9.95714 km/h
2689 07-10-2012 00:00:00 10.63669 C 8.39 g/m*3 10.64 C 3.51583 km/h
2690 08-10-2012 00:00:00 8.1958 C 7.66 g/m*3 8.2 C 0.7395 km/h
2691 09-10-2012 00:00:00 10.60348 C 8.05 g/m*3 10.6 C 4.4204 km/h
2692 10-10-2012 00:00:00 6.21146 C 6.73 g/m*3 6.21 C 1.03958 km/h
2693 11-10-2012 00:00:00 6.67361 C 7 g/m*3 6.67 C 0.92778 km/h
2694 12-10-2012 00:00:00 10.79653 C 8.89 g/m*3 10.8 C 3.08889 km/h
2695 13-10-2012 00:00:00 9.08472 C 7.61 g/m*3 9.08 C 3.02778 km/h
2696 14-10-2012 00:00:00 8.15833 C 7.57 g/m*3 8.16 C 2.57882 km/h
2697 15-10-2012 00:00:00 7.43264 C 7.4 g/m*3 7.43 C 4.62292 km/h
2698 16-10-2012 00:00:00 7.85556 C 7.35 g/m*3 7.86 C 3.77708 km/h
2699 17-10-2012 00:00:00 10.85972 C 8.95 g/m*3 10.86 C 2.29583 km/h
2700 18-10-2012 00:00:00 14.37569 C 10.54 g/m*3 14.38 C 2.51806 km/h
Sensor: Nr:Datum:Temp:Abs-Feuchte:Windchill:Wind:
Aussen-T/F 2701 19-10-2012 00:00:00 14.37187 C 11 g/m*3 14.37 C 0.69618 km/h
2702 20-10-2012 00:00:00 13.74722 C 11.04 g/m*3 13.75 C 0.03889 km/h
2703 21-10-2012 00:00:00 13.32917 C 10.84 g/m*3 13.33 C 0.27222 km/h
2704 22-10-2012 00:00:00 11.79062 C 9.89 g/m*3 11.79 C 0 km/h
2705 23-10-2012 00:00:00 11.38403 C 9.01 g/m*3 11.38 C 1.95799 km/h
2706 24-10-2012 00:00:00 9.71528 C 8.48 g/m*3 9.72 C 0.81181 km/h
2707 25-10-2012 00:00:00 9.9441 C 8.7 g/m*3 9.94 C 1.19514 km/h
2708 26-10-2012 00:00:00 6.73542 C 7.11 g/m*3 6.74 C 3.17743 km/h
2709 27-10-2012 00:00:00 2.98993 C 4.65 g/m*3 0.8 C 7.91354 km/h
2710 28-10-2012 00:00:00 0.51181 C 4.52 g/m*3 0.51 C 1.97847 km/h
2711 29-10-2012 00:00:00 0.69306 C 4.69 g/m*3 0.69 C 2.28194 km/h
2712 30-10-2012 00:00:00 6.0566 C 6.62 g/m*3 4.29 C 8.35451 km/h
2713 31-10-2012 00:00:00 5.97118 C 6.61 g/m*3 5.97 C 1.67535 km/h
2714 01-11-2012 00:00:00 7.64965 C 6.94 g/m*3 7.65 C 4.97917 km/h
2715 02-11-2012 00:00:00 7.75417 C 6.62 g/m*3 6.3 C 8.2934 km/h
2716 03-11-2012 00:00:00 7.38542 C 7.47 g/m*3 7.39 C 3.34514 km/h
2717 04-11-2012 00:00:00 7.74028 C 7.51 g/m*3 7.74 C 2.64236 km/h
2718 05-11-2012 00:00:00 8.00382 C 6.98 g/m*3 7.32 C 5.5125 km/h
2719 06-11-2012 00:00:00 6.03264 C 6.38 g/m*3 5.16 C 5.26076 km/h
2720 07-11-2012 00:00:00 8.52535 C 7.42 g/m*3 6.72 C 10.84757 km/h
2721 08-11-2012 00:00:00 8.82222 C 7.04 g/m*3 7.73 C 7.52292 km/h
2722 09-11-2012 00:00:00 8.19861 C 7.03 g/m*3 8.2 C 3.10694 km/h
2723 10-11-2012 00:00:00 8.89201 C 8.14 g/m*3 8.89 C 0.45625 km/h
2724 11-11-2012 00:00:00 8.24097 C 7.75 g/m*3 8.24 C 0.73924 km/h
2725 12-11-2012 00:00:00 5.70868 C 6.31 g/m*3 5.71 C 3.19549 km/h
Sensor: Nr:Datum:Temp:Abs-Feuchte:Windchill:Wind:
Aussen-T/F 2726 13-11-2012 00:00:00 3.26076 C 5.7 g/m*3 3.26 C 0.92292 km/h
2727 14-11-2012 00:00:00 2.60312 C 5.46 g/m*3 2.6 C 1.14618 km/h
2728 15-11-2012 00:00:00 4.53958 C 5.82 g/m*3 4.54 C 1.51146 km/h
2729 16-11-2012 00:00:00 3.22222 C 5.28 g/m*3 3.22 C 2.14722 km/h
2730 17-11-2012 00:00:00 4.33472 C 6.08 g/m*3 4.33 C 2.10972 km/h
2731 18-11-2012 00:00:00 7.54704 C 7.71 g/m*3 7.55 C 0.36794 km/h
2732 19-11-2012 00:00:00 7.68403 C 7.7 g/m*3 7.68 C 0.77222 km/h
2733 20-11-2012 00:00:00 5.27188 C 6.48 g/m*3 5.27 C 3.14861 km/h
2734 21-11-2012 00:00:00 4.38681 C 5.99 g/m*3 4.39 C 3.3559 km/h
2735 22-11-2012 00:00:00 5.51111 C 6.67 g/m*3 5.51 C 2.11458 km/h
2736 23-11-2012 00:00:00 6.88472 C 7.16 g/m*3 6.88 C 1.10556 km/h
2737 24-11-2012 00:00:00 9.16042 C 7.96 g/m*3 9.16 C 1.59861 km/h
2738 25-11-2012 00:00:00 10.6066 C 7.12 g/m*3 9.06 C 11.94444 km/h
2739 26-11-2012 00:00:00 6.01493 C 6.93 g/m*3 6.01 C 1.30035 km/h
2740 27-11-2012 00:00:00 7.67986 C 7.22 g/m*3 7.68 C 1.75139 km/h
2741 28-11-2012 00:00:00 5.5184 C 6.41 g/m*3 5.52 C 3.27431 km/h
2742 29-11-2012 00:00:00 4.01319 C 5.52 g/m*3 1.9 C 8.29063 km/h
2743 30-11-2012 00:00:00 1.44375 C 5.03 g/m*3 1.44 C 1.75 km/h
2744 01-12-2012 00:00:00 -0.39861 C 4.43 g/m*3 -0.4 C 2.91806 km/h
2745 02-12-2012 00:00:00 2.39375 C 5.11 g/m*3 0.12 C 7.84375 km/h
2746 03-12-2012 00:00:00 2.27222 C 5.07 g/m*3 0.48 C 6.28542 km/h
2747 04-12-2012 00:00:00 3.75312 C 5.6 g/m*3 1.48 C 8.7184 km/h
2748 05-12-2012 00:00:00 2.86667 C 5.34 g/m*3 2.87 C 4.58889 km/h
2749 06-12-2012 00:00:00 0.5625 C 4.27 g/m*3 -1.72 C 6.90451 km/h
2750 07-12-2012 00:00:00 -1.00382 C 4.12 g/m*3 -1 C 2.15174 km/h
Sensor: Nr:Datum:Temp:Abs-Feuchte:Windchill:Wind:
Aussen-T/F 2751 08-12-2012 00:00:00 -4.66111 C 3.26 g/m*3 -4.66 C 0.08333 km/h
2752 09-12-2012 00:00:00 0.22326 C 4.47 g/m*3 -3.85 C 13.50035 km/h
2753 10-12-2012 00:00:00 2.70764 C 5.07 g/m*3 -0.25 C 10.75069 km/h
2754 11-12-2012 00:00:00 -0.72396 C 4.01 g/m*3 -2.87 C 6.02639 km/h
2755 12-12-2012 00:00:00 -3.40937 C 3.25 g/m*3 -3.41 C 4.13333 km/h
2756 13-12-2012 00:00:00 -3.53646 C 3.35 g/m*3 -3.54 C 1.1184 km/h
2757 14-12-2012 00:00:00 2.76076 C 5.42 g/m*3 1.54 C 5.00868 km/h
2758 15-12-2012 00:00:00 6.97153 C 7.13 g/m*3 6.18 C 5.41458 km/h
2759 16-12-2012 00:00:00 6.60868 C 6.88 g/m*3 5.71 C 5.58611 km/h
2760 17-12-2012 00:00:00 6.04792 C 6.82 g/m*3 6.05 C 2.96979 km/h
2761 18-12-2012 00:00:00 5.04583 C 6.35 g/m*3 5.05 C 3.31319 km/h
2762 19-12-2012 00:00:00 3.47361 C 5.91 g/m*3 3.47 C 0.92222 km/h
2763 20-12-2012 00:00:00 1.32396 C 4.98 g/m*3 1.32 C 2.29861 km/h
2764 21-12-2012 00:00:00 3.19236 C 5.89 g/m*3 3.19 C 0.36111 km/h
2765 22-12-2012 00:00:00 6.1691 C 6.99 g/m*3 6.17 C 1.84653 km/h
2766 23-12-2012 00:00:00 11.85 C 9.58 g/m*3 11.85 C 15.18264 km/h
2767 24-12-2012 00:00:00 11.08715 C 8.45 g/m*3 11.09 C 7.6184 km/h
2768 25-12-2012 00:00:00 9.61181 C 7.49 g/m*3 7.77 C 12.47222 km/h
2769 26-12-2012 00:00:00 8.15278 C 7.03 g/m*3 5.84 C 13.57049 km/h
2770 27-12-2012 00:00:00 7.84757 C 7.13 g/m*3 6.47 C 8.02882 km/h
2771 28-12-2012 00:00:00 6.19479 C 6.89 g/m*3 6.19 C 2.91771 km/h
2772 29-12-2012 00:00:00 8.19931 C 7.74 g/m*3 8.2 C 2.85938 km/h
2773 30-12-2012 00:00:00 8.44618 C 6.53 g/m*3 5.55 C 18.77326 km/h
2774 31-12-2012 00:00:00 8.92569 C 6.72 g/m*3 7.16 C 11.08194 km/h
2775 01-01-2013 00:00:00 6.59132 C 6.43 g/m*3 5.32 C 6.8066 km/h
Sensor: Nr:Datum:Temp:Abs-Feuchte:Windchill:Wind:
Aussen-T/F 2776 02-01-2013 00:00:00 4.69861 C 5.74 g/m*3 2.67 C 8.42431 km/h
2777 03-01-2013 00:00:00 7.62951 C 7.31 g/m*3 5.3 C 12.87639 km/h
2778 04-01-2013 00:00:00 9.87292 C 8.57 g/m*3 9.46 C 5.51701 km/h
2779 05-01-2013 00:00:00 7.8816 C 7.44 g/m*3 7.88 C 4.5375 km/h
2780 06-01-2013 00:00:00 8.15069 C 7.46 g/m*3 8.15 C 4.30521 km/h
2781 07-01-2013 00:00:00 7.30764 C 7 g/m*3 7.31 C 2.31007 km/h
2782 08-01-2013 00:00:00 6.15417 C 6.34 g/m*3 4.68 C 7.27049 km/h
2783 09-01-2013 00:00:00 4.72465 C 5.87 g/m*3 3 C 7.30729 km/h
2784 10-01-2013 00:00:00 4.44028 C 5.94 g/m*3 4.44 C 4.41563 km/h
2785 11-01-2013 00:00:00 1.09201 C 4.23 g/m*3 1.09 C 3.67083 km/h
2786 12-01-2013 00:00:00 -2.64514 C 3.5 g/m*3 -2.65 C 1.35035 km/h
2787 13-01-2013 00:00:00 -3.28368 C 3.21 g/m*3 -3.28 C 2.89653 km/h
2788 14-01-2013 00:00:00 -4.44028 C 3.18 g/m*3 -4.44 C 1.45625 km/h
2789 15-01-2013 00:00:00 -2.1941 C 3.71 g/m*3 -2.19 C 1.91424 km/h
2790 16-01-2013 00:00:00 -2.65521 C 3.62 g/m*3 -2.66 C 2.82674 km/h
2791 17-01-2013 00:00:00 -2.48542 C 3.6 g/m*3 -4.86 C 5.93854 km/h
2792 18-01-2013 00:00:00 -1.70729 C 3.7 g/m*3 -1.71 C 2.83785 km/h
2793 19-01-2013 00:00:00 -2.39375 C 3.33 g/m*3 -5.12 C 6.83021 km/h
2794 20-01-2013 00:00:00 -3.06146 C 3.42 g/m*3 -5.32 C 5.52014 km/h
2795 21-01-2013 00:00:00 -0.75938 C 4.25 g/m*3 -0.76 C 0.61111 km/h
2796 22-01-2013 00:00:00 -1.20382 C 4.09 g/m*3 -1.2 C 1.26667 km/h
2797 23-01-2013 00:00:00 -1.0566 C 4.13 g/m*3 -1.06 C 0.42222 km/h
2798 24-01-2013 00:00:00 -2.40833 C 3.53 g/m*3 -2.41 C 2.43021 km/h
2799 25-01-2013 00:00:00 -2.18368 C 3.5 g/m*3 -2.18 C 2.03056 km/h
2800 26-01-2013 00:00:00 -1.99549 C 3.56 g/m*3 -2 C 4.54028 km/h
Sensor: Nr:Datum:Temp:Abs-Feuchte:Windchill:Wind:
Aussen-T/F 2801 27-01-2013 00:00:00 2.22882 C 4.98 g/m*3 -0.2 C 8.26007 km/h
2802 28-01-2013 00:00:00 3.96389 C 5.56 g/m*3 1.79 C 8.49444 km/h
2803 29-01-2013 00:00:00 9.00868 C 7.7 g/m*3 6.03 C 20.92743 km/h
2804 30-01-2013 00:00:00 11.32361 C 8.43 g/m*3 11.32 C 18.11458 km/h
2805 31-01-2013 00:00:00 7.765 C 6.15 g/m*3 4.97 C 16.45909 km/h
2806 01-02-2013 00:00:00 6.26378 C 6.79 g/m*3 4.91 C 6.90236 km/h
2807 02-02-2013 00:00:00 3.24097 C 5.3 g/m*3 1.07 C 7.99201 km/h
2808 03-02-2013 00:00:00 3.41458 C 5.15 g/m*3 0.11 C 13.16319 km/h
2809 04-02-2013 00:00:00 5.84792 C 6.43 g/m*3 3.09 C 13.14201 km/h
2810 05-02-2013 00:00:00 4.44583 C 5.17 g/m*3 1.42 C 12.87951 km/h
2811 06-02-2013 00:00:00 1.58819 C 4.94 g/m*3 1.59 C 3.79479 km/h
2812 07-02-2013 00:00:00 1.88576 C 4.99 g/m*3 0.5 C 5.12014 km/h
2813 08-02-2013 00:00:00 0.56424 C 4.61 g/m*3 0.56 C 3.95035 km/h
2814 09-02-2013 00:00:00 -0.7941 C 4.06 g/m*3 -0.79 C 1.88576 km/h
2815 10-02-2013 00:00:00 -1.98681 C 3.49 g/m*3 -1.99 C 3.66701 km/h
2816 11-02-2013 00:00:00 -0.9316 C 3.22 g/m*3 -3.01 C 5.80868 km/h
2817 12-02-2013 00:00:00 -0.84618 C 3.3 g/m*3 -2.75 C 5.42778 km/h
2818 13-02-2013 00:00:00 -0.98125 C 3.33 g/m*3 -0.98 C 1.83924 km/h
2819 14-02-2013 00:00:00 -2.40382 C 3.43 g/m*3 -2.4 C 1.51736 km/h
2820 15-02-2013 00:00:00 0.91806 C 4.82 g/m*3 0.92 C 1.25625 km/h
2821 16-02-2013 00:00:00 2.92847 C 5.66 g/m*3 2.93 C 2.14479 km/h
2822 17-02-2013 00:00:00 2.97465 C 5.51 g/m*3 2.97 C 1.93715 km/h
2823 18-02-2013 00:00:00 0.52847 C 4.51 g/m*3 0.53 C 1.4066 km/h
2824 19-02-2013 00:00:00 0.79306 C 4.7 g/m*3 0.79 C 2.49583 km/h
2825 20-02-2013 00:00:00 0.4316 C 3.97 g/m*3 0.43 C 4.04931 km/h
Sensor: Nr:Datum:Temp:Abs-Feuchte:Windchill:Wind:
Aussen-T/F 2826 21-02-2013 00:00:00 -1.21979 C 3.42 g/m*3 -3.12 C 5.30104 km/h
2827 22-02-2013 00:00:00 -2.3066 C 3.01 g/m*3 -5.81 C 9.10521 km/h
2828 23-02-2013 00:00:00 -2.80139 C 3.42 g/m*3 -5.68 C 7.05833 km/h
2829 24-02-2013 00:00:00 -0.43958 C 4.27 g/m*3 -0.44 C 1.54444 km/h
2830 25-02-2013 00:00:00 0.88785 C 4.94 g/m*3 0.89 C 0.58333 km/h
2831 26-02-2013 00:00:00 2.31215 C 5.36 g/m*3 2.31 C 2.66389 km/h
2832 27-02-2013 00:00:00 1.69271 C 4.88 g/m*3 0.12 C 5.50451 km/h
2833 28-02-2013 00:00:00 2.41771 C 5.05 g/m*3 2.42 C 1.77847 km/h
2834 01-03-2013 00:00:00 2.75278 C 4.84 g/m*3 1.23 C 5.76181 km/h
2835 02-03-2013 00:00:00 2.60208 C 4.36 g/m*3 2.6 C 3.85451 km/h
2836 03-03-2013 00:00:00 1.90104 C 4.65 g/m*3 1.9 C 2.56319 km/h
2837 04-03-2013 00:00:00 1.8934 C 4.55 g/m*3 1.89 C 2.53299 km/h
2838 05-03-2013 00:00:00 2.56979 C 4.84 g/m*3 2.57 C 1.66806 km/h
2839 06-03-2013 00:00:00 5.45035 C 5.46 g/m*3 5.45 C 1.99132 km/h
2840 07-03-2013 00:00:00 8.96146 C 6.98 g/m*3 8.96 C 1.86111 km/h
2841 08-03-2013 00:00:00 10.92049 C 8.36 g/m*3 10.92 C 2.84097 km/h
2842 09-03-2013 00:00:00 10.42118 C 8.16 g/m*3 9.66 C 7.26875 km/h
2843 10-03-2013 00:00:00 3.88611 C 5.72 g/m*3 1.99 C 7.40486 km/h
2844 11-03-2013 00:00:00 -0.5191 C 4.16 g/m*3 -3.22 C 7.61493 km/h
2845 12-03-2013 00:00:00 -2.72153 C 3.62 g/m*3 -6.29 C 9.08611 km/h
2846 13-03-2013 00:00:00 -2.95907 C 3.2 g/m*3 -2.96 C 3.44164 km/h
2847 14-03-2013 00:00:00 -1.88944 C 3.66 g/m*3 -1.89 C 4.83803 km/h
2848 15-03-2013 00:00:00 -2.50139 C 3.23 g/m*3 -2.5 C 3.97569 km/h
2849 16-03-2013 00:00:00 2.40938 C 3.77 g/m*3 1.08 C 5.14097 km/h
2850 17-03-2013 00:00:00 3.22014 C 5.2 g/m*3 1.79 C 5.6934 km/h
Sensor: Nr:Datum:Temp:Abs-Feuchte:Windchill:Wind:
Aussen-T/F 2851 18-03-2013 00:00:00 4.14479 C 5.29 g/m*3 4.14 C 2.925 km/h
2852 19-03-2013 00:00:00 4.10313 C 5.3 g/m*3 2.37 C 6.99549 km/h
2853 20-03-2013 00:00:00 3.59201 C 5.62 g/m*3 2.05 C 6.15208 km/h
2854 21-03-2013 00:00:00 1.33993 C 4.61 g/m*3 1.34 C 3.61701 km/h
2855 22-03-2013 00:00:00 1.7441 C 4.27 g/m*3 -0.36 C 6.95208 km/h
2856 23-03-2013 00:00:00 1.46875 C 3.61 g/m*3 -1.64 C 10.31771 km/h
2857 24-03-2013 00:00:00 0.48854 C 2.55 g/m*3 -3.16 C 11.78299 km/h
2858 25-03-2013 00:00:00 0.18681 C 2.77 g/m*3 -3.31 C 10.87153 km/h
2859 26-03-2013 00:00:00 0.3309 C 2.72 g/m*3 -2.84 C 9.68924 km/h
2860 27-03-2013 00:00:00 1.19896 C 3.02 g/m*3 -0.78 C 6.36007 km/h
2861 28-03-2013 00:00:00 2.07639 C 3.83 g/m*3 2.08 C 4.95278 km/h
2862 29-03-2013 00:00:00 0.53715 C 4.37 g/m*3 0.54 C 2.69028 km/h
2863 30-03-2013 00:00:00 1.50903 C 4.04 g/m*3 0.09 C 5.07465 km/h
2864 31-03-2013 00:00:00 1.17246 C 4.09 g/m*3 1.17 C 3.63333 km/h
2865 01-04-2013 00:00:00 1.44201 C 3.69 g/m*3 -0.59 C 6.61632 km/h
2866 02-04-2013 00:00:00 2.12708 C 3.49 g/m*3 -0.4 C 8.57292 km/h
2867 03-04-2013 00:00:00 1.88194 C 3.86 g/m*3 -0.19 C 6.91979 km/h
2868 04-04-2013 00:00:00 3.97465 C 4.17 g/m*3 1.28 C 10.69167 km/h
2869 05-04-2013 00:00:00 2.45382 C 4.32 g/m*3 0.51 C 6.82708 km/h
2870 06-04-2013 00:00:00 3.55104 C 5.15 g/m*3 3.55 C 3.75382 km/h
2871 07-04-2013 00:00:00 3.40382 C 4.38 g/m*3 3.4 C 3.99861 km/h
2872 08-04-2013 00:00:00 4.46979 C 4.7 g/m*3 4.47 C 4.01528 km/h
2873 09-04-2013 00:00:00 5.89479 C 6.41 g/m*3 5.89 C 2.88368 km/h
2874 10-04-2013 00:00:00 8.34653 C 7.31 g/m*3 7.21 C 7.39444 km/h
2875 11-04-2013 00:00:00 12.25972 C 8.26 g/m*3 12.26 C 8.69375 km/h
Sensor: Nr:Datum:Temp:Abs-Feuchte:Windchill:Wind:
Aussen-T/F 2876 12-04-2013 00:00:00 10.42708 C 8.11 g/m*3 9.5 C 8.04653 km/h
2877 13-04-2013 00:00:00 11.30243 C 7.19 g/m*3 11.3 C 13.14965 km/h
2878 14-04-2013 00:00:00 15.49271 C 9.19 g/m*3 15.49 C 5.00903 km/h
2879 15-04-2013 00:00:00 15.52118 C 9.73 g/m*3 15.52 C 3.96319 km/h
2880 16-04-2013 00:00:00 16.01215 C 10.01 g/m*3 16.01 C 6.64722 km/h
2881 17-04-2013 00:00:00 17.14167 C 9.47 g/m*3 17.14 C 4.36944 km/h
2882 18-04-2013 00:00:00 15.57153 C 8.25 g/m*3 15.57 C 8.59063 km/h
2883 19-04-2013 00:00:00 11.46389 C 5.86 g/m*3 11.46 C 7.37882 km/h
2884 20-04-2013 00:00:00 10.16944 C 5.86 g/m*3 9.12 C 8.41042 km/h
2885 21-04-2013 00:00:00 10.71389 C 5.87 g/m*3 10.71 C 3.64271 km/h
2886 22-04-2013 00:00:00 12.26562 C 6.5 g/m*3 12.27 C 4.57917 km/h
2887 23-04-2013 00:00:00 12.48924 C 6.91 g/m*3 12.49 C 7.44097 km/h
2888 24-04-2013 00:00:00 14.60278 C 8.68 g/m*3 14.6 C 5.08125 km/h
2889 25-04-2013 00:00:00 17.28958 C 9.5 g/m*3 17.29 C 3.36458 km/h
2890 26-04-2013 00:00:00 12.59896 C 9.36 g/m*3 12.6 C 4.20139 km/h
2891 27-04-2013 00:00:00 6.70972 C 6.74 g/m*3 5.37 C 7.12465 km/h
2892 28-04-2013 00:00:00 7.57118 C 6.7 g/m*3 7.57 C 3.89444 km/h
2893 29-04-2013 00:00:00 11.20139 C 6.8 g/m*3 11.2 C 7.63854 km/h
2894 30-04-2013 00:00:00 9.40104 C 7.1 g/m*3 9.4 C 3.25451 km/h
2895 01-05-2013 00:00:00 12.25 C 8.67 g/m*3 12.25 C 4.65035 km/h
2896 02-05-2013 00:00:00 15.26458 C 9.35 g/m*3 15.26 C 4.47986 km/h
2897 03-05-2013 00:00:00 14.28056 C 9.43 g/m*3 14.28 C 2.45799 km/h
2898 04-05-2013 00:00:00 15.30521 C 8.94 g/m*3 15.31 C 3.60069 km/h
2899 05-05-2013 00:00:00 14.71458 C 8.45 g/m*3 14.71 C 3.03507 km/h
2900 06-05-2013 00:00:00 15.4691 C 9.25 g/m*3 15.47 C 2.82361 km/h
Sensor: Nr:Datum:Temp:Abs-Feuchte:Windchill:Wind:
Aussen-T/F 2901 07-05-2013 00:00:00 14.47708 C 10.71 g/m*3 14.48 C 2.22049 km/h
2902 08-05-2013 00:00:00 15.69062 C 10.79 g/m*3 15.69 C 3.63333 km/h
2903 09-05-2013 00:00:00 16.1566 C 10.9 g/m*3 16.16 C 5.21563 km/h
2904 10-05-2013 00:00:00 13.28785 C 8.13 g/m*3 13.29 C 6.80694 km/h
2905 11-05-2013 00:00:00 12.72431 C 8.91 g/m*3 12.72 C 5.17951 km/h
2906 12-05-2013 00:00:00 9.44583 C 7.91 g/m*3 9.45 C 4.46875 km/h
2907 13-05-2013 00:00:00 11.19688 C 8.85 g/m*3 11.2 C 7.28785 km/h
2908 14-05-2013 00:00:00 12.63125 C 9.02 g/m*3 12.63 C 4.77813 km/h
2909 15-05-2013 00:00:00 13.05694 C 9.61 g/m*3 13.06 C 4.07951 km/h
2910 16-05-2013 00:00:00 13.25521 C 10.72 g/m*3 13.26 C 0.89444 km/h
2911 17-05-2013 00:00:00 10.33125 C 9.02 g/m*3 10.33 C 4.30556 km/h
2912 18-05-2013 00:00:00 13.12118 C 9.52 g/m*3 13.12 C 3.43924 km/h
2913 19-05-2013 00:00:00 13.29792 C 9.73 g/m*3 13.3 C 5.52708 km/h
2914 20-05-2013 00:00:00 10.92014 C 9.13 g/m*3 10.56 C 5.88333 km/h
2915 21-05-2013 00:00:00 12.35104 C 9.37 g/m*3 12.35 C 3.74375 km/h
2916 22-05-2013 00:00:00 9.34444 C 7.87 g/m*3 8.02 C 9.05382 km/h
2917 23-05-2013 00:00:00 7.90764 C 7.05 g/m*3 7.25 C 5.40729 km/h
2918 24-05-2013 00:00:00 7.60521 C 6.36 g/m*3 7.61 C 3.47014 km/h
2919 25-05-2013 00:00:00 8.39687 C 6.76 g/m*3 7.79 C 5.44514 km/h
2920 26-05-2013 00:00:00 8.03611 C 7.76 g/m*3 8.04 C 3.64861 km/h
2921 27-05-2013 00:00:00 12.39201 C 8.39 g/m*3 12.39 C 3.55069 km/h
2922 28-05-2013 00:00:00 13.87465 C 8.99 g/m*3 13.87 C 3.74063 km/h
2923 29-05-2013 00:00:00 10.21285 C 8.83 g/m*3 10.21 C 3.26944 km/h
2924 30-05-2013 00:00:00 11.70208 C 8.42 g/m*3 11.7 C 3.37917 km/h
2925 31-05-2013 00:00:00 13.19792 C 10.37 g/m*3 13.2 C 7.0059 km/h
Sensor: Nr:Datum:Temp:Abs-Feuchte:Windchill:Wind:
Aussen-T/F 2926 01-06-2013 00:00:00 12.09549 C 9.43 g/m*3 12.1 C 10.35764 km/h
2927 02-06-2013 00:00:00 13.08125 C 7.56 g/m*3 13.08 C 12.00382 km/h
2928 03-06-2013 00:00:00 12.7375 C 7.18 g/m*3 12.74 C 8.43194 km/h
2929 04-06-2013 00:00:00 13.85833 C 8.65 g/m*3 13.86 C 5.10764 km/h
2930 05-06-2013 00:00:00 16.28889 C 10.86 g/m*3 16.29 C 2.27986 km/h
2931 06-06-2013 00:00:00 18.00868 C 10.5 g/m*3 18.01 C 2.87396 km/h
2932 07-06-2013 00:00:00 18.14826 C 11.07 g/m*3 18.15 C 1.74549 km/h
2933 08-06-2013 00:00:00 18.53125 C 12.53 g/m*3 18.53 C 1.57326 km/h
2934 09-06-2013 00:00:00 15.18819 C 11.62 g/m*3 15.19 C 2.2816 km/h
2935 10-06-2013 00:00:00 12.77396 C 10.58 g/m*3 12.77 C 4.17083 km/h
2936 11-06-2013 00:00:00 15.40451 C 11.14 g/m*3 15.4 C 2.71146 km/h
2937 12-06-2013 00:00:00 17.48576 C 12.43 g/m*3 17.49 C 2.83299 km/h
2938 13-06-2013 00:00:00 18.45313 C 13.42 g/m*3 18.45 C 3.90278 km/h
2939 14-06-2013 00:00:00 14.47917 C 9.72 g/m*3 14.48 C 6.08194 km/h
2940 15-06-2013 00:00:00 15.22674 C 10.14 g/m*3 15.23 C 5.81354 km/h
2941 16-06-2013 00:00:00 16.60104 C 10.02 g/m*3 16.6 C 5.39375 km/h
2942 17-06-2013 00:00:00 20.99236 C 13.54 g/m*3 20.99 C 3.2 km/h
2943 18-06-2013 00:00:00 23.88576 C 16.97 g/m*3 23.89 C 1.68507 km/h
2944 19-06-2013 00:00:00 24.9691 C 18.47 g/m*3 24.97 C 2.67118 km/h
2945 20-06-2013 00:00:00 21.63299 C 15.9 g/m*3 21.63 C 5.68993 km/h
2946 21-06-2013 00:00:00 17.72778 C 12.04 g/m*3 17.73 C 8.48299 km/h
2947 22-06-2013 00:00:00 18.08576 C 11.57 g/m*3 18.09 C 8.33889 km/h
2948 23-06-2013 00:00:00 16.03403 C 10.59 g/m*3 16.03 C 10.375 km/h
2949 24-06-2013 00:00:00 14.4184 C 9.99 g/m*3 14.42 C 5.46979 km/h
2950 25-06-2013 00:00:00 13.24861 C 9.35 g/m*3 13.25 C 6.19236 km/h
Sensor: Nr:Datum:Temp:Abs-Feuchte:Windchill:Wind:
Aussen-T/F 2951 26-06-2013 00:00:00 12.21597 C 8.52 g/m*3 12.22 C 3.56667 km/h
2952 27-06-2013 00:00:00 12.77257 C 9.57 g/m*3 12.77 C 2.62292 km/h
2953 28-06-2013 00:00:00 12.51979 C 9.86 g/m*3 12.52 C 1.45417 km/h
2954 29-06-2013 00:00:00 15.31319 C 10.91 g/m*3 15.31 C 7.98785 km/h
2955 30-06-2013 00:00:00 14.36458 C 9.62 g/m*3 14.36 C 3.13125 km/h
2956 01-07-2013 00:00:00 18.46319 C 11.82 g/m*3 18.46 C 6.21563 km/h
2957 02-07-2013 00:00:00 18.88542 C 12.37 g/m*3 18.89 C 4.67674 km/h
2958 03-07-2013 00:00:00 17.18993 C 13.62 g/m*3 17.19 C 2.34757 km/h
2959 04-07-2013 00:00:00 18.03542 C 13.46 g/m*3 18.04 C 2.06667 km/h
2960 05-07-2013 00:00:00 19.17361 C 13.32 g/m*3 19.17 C 3.22257 km/h
2961 06-07-2013 00:00:00 19.30833 C 13.5 g/m*3 19.31 C 2.03646 km/h
2962 07-07-2013 00:00:00 20.55243 C 13.3 g/m*3 20.55 C 2.6066 km/h
2963 08-07-2013 00:00:00 20.53924 C 12.83 g/m*3 20.54 C 3.18889 km/h
2964 09-07-2013 00:00:00 20.80694 C 13.34 g/m*3 20.81 C 2.50417 km/h
2965 10-07-2013 00:00:00 20.12292 C 12.59 g/m*3 20.12 C 6.32708 km/h
2966 11-07-2013 00:00:00 17.10417 C 10.11 g/m*3 17.1 C 7.77361 km/h
2967 12-07-2013 00:00:00 16.90868 C 10.6 g/m*3 16.91 C 4.06806 km/h
2968 13-07-2013 00:00:00 17.26424 C 10.92 g/m*3 17.26 C 4.13056 km/h
2969 14-07-2013 00:00:00 18.30139 C 11.62 g/m*3 18.3 C 4.51667 km/h
2970 15-07-2013 00:00:00 18.85486 C 12.17 g/m*3 18.85 C 2.14375 km/h
2971 16-07-2013 00:00:00 20.18438 C 12.59 g/m*3 20.18 C 2.36528 km/h
2972 17-07-2013 00:00:00 20.29896 C 13.11 g/m*3 20.3 C 1.67361 km/h
2973 18-07-2013 00:00:00 21.84757 C 13.41 g/m*3 21.85 C 3.04896 km/h
2974 19-07-2013 00:00:00 22.12674 C 13.12 g/m*3 22.13 C 4.28438 km/h
2975 20-07-2013 00:00:00 21.31076 C 12.97 g/m*3 21.31 C 3.21632 km/h
Sensor: Nr:Datum:Temp:Abs-Feuchte:Windchill:Wind:
Aussen-T/F 2976 21-07-2013 00:00:00 22.30521 C 13.63 g/m*3 22.31 C 2.53507 km/h
2977 22-07-2013 00:00:00 22.41562 C 13.99 g/m*3 22.42 C 1.1625 km/h
2978 23-07-2013 00:00:00 21.37396 C 16.19 g/m*3 21.37 C 1.17778 km/h
2979 24-07-2013 00:00:00 21.35972 C 14.98 g/m*3 21.36 C 2.76215 km/h
2980 25-07-2013 00:00:00 20.88542 C 15.71 g/m*3 20.89 C 2.75972 km/h
2981 26-07-2013 00:00:00 21.25729 C 17.68 g/m*3 21.26 C 0.35069 km/h
2982 27-07-2013 00:00:00 23.54236 C 17.99 g/m*3 23.54 C 1.32257 km/h
2983 28-07-2013 00:00:00 21.69965 C 15.72 g/m*3 21.7 C 2.70243 km/h
2984 29-07-2013 00:00:00 19.41007 C 14.76 g/m*3 19.41 C 2.68819 km/h
2985 30-07-2013 00:00:00 18.99028 C 12.87 g/m*3 18.99 C 7.63472 km/h
2986 31-07-2013 00:00:00 20.83715 C 13.69 g/m*3 20.84 C 6.94861 km/h
2987 01-08-2013 00:00:00 21.89653 C 14.48 g/m*3 21.9 C 2.16528 km/h
2988 02-08-2013 00:00:00 23.37049 C 15.2 g/m*3 23.37 C 1.39965 km/h
2989 03-08-2013 00:00:00 21.1934 C 15.86 g/m*3 21.19 C 2.96806 km/h
2990 04-08-2013 00:00:00 19.79549 C 13.33 g/m*3 19.8 C 1.96215 km/h
2991 05-08-2013 00:00:00 20.42639 C 13.99 g/m*3 20.43 C 1.52743 km/h
2992 06-08-2013 00:00:00 19.98646 C 15.18 g/m*3 19.99 C 1.09167 km/h
2993 07-08-2013 00:00:00 18.91562 C 14.85 g/m*3 18.92 C 1.53299 km/h
2994 08-08-2013 00:00:00 16.92118 C 12.43 g/m*3 16.92 C 3.85278 km/h
2995 09-08-2013 00:00:00 16.41597 C 12.03 g/m*3 16.42 C 1.0059 km/h
2996 10-08-2013 00:00:00 18.10764 C 11.49 g/m*3 18.11 C 5.9184 km/h
2997 11-08-2013 00:00:00 16.80278 C 9.89 g/m*3 16.8 C 1.95069 km/h
2998 12-08-2013 00:00:00 15.88229 C 11.31 g/m*3 15.88 C 2.28889 km/h
2999 13-08-2013 00:00:00 15.61319 C 10.88 g/m*3 15.61 C 3.40556 km/h
3000 14-08-2013 00:00:00 14.4559 C 10.12 g/m*3 14.46 C 1.75868 km/h
Sensor: Nr:Datum:Temp:Abs-Feuchte:Windchill:Wind:
Aussen-T/F 3001 15-08-2013 00:00:00 16.30035 C 10.81 g/m*3 16.3 C 2.31493 km/h
3002 16-08-2013 00:00:00 17.96319 C 11.55 g/m*3 17.96 C 1.35556 km/h
3003 17-08-2013 00:00:00 20.47965 C 12.53 g/m*3 20.48 C 4.24526 km/h
3004 18-08-2013 00:00:00 19.29614 C 13.67 g/m*3 19.3 C 3.05719 km/h
3005 19-08-2013 00:00:00 17.75764 C 12.15 g/m*3 17.76 C 5.06181 km/h
3006 20-08-2013 00:00:00 14.96458 C 10.19 g/m*3 14.96 C 2.29271 km/h
3007 21-08-2013 00:00:00 15.16285 C 10.59 g/m*3 15.16 C 1.31319 km/h
3008 22-08-2013 00:00:00 16.33576 C 11.62 g/m*3 16.34 C 0.65174 km/h
3009 23-08-2013 00:00:00 18.61667 C 12.23 g/m*3 18.62 C 1.88576 km/h
3010 24-08-2013 00:00:00 16.10208 C 12.3 g/m*3 16.1 C 0.76215 km/h
3011 25-08-2013 00:00:00 16.06806 C 13.03 g/m*3 16.07 C 1.65278 km/h
3012 26-08-2013 00:00:00 15.16806 C 12.51 g/m*3 15.17 C 0.49653 km/h
3013 27-08-2013 00:00:00 15.88472 C 12.17 g/m*3 15.88 C 0.52326 km/h
3014 28-08-2013 00:00:00 15.65312 C 11.67 g/m*3 15.65 C 0.80104 km/h
3015 29-08-2013 00:00:00 14.74062 C 11.39 g/m*3 14.74 C 0.5566 km/h
3016 30-08-2013 00:00:00 15.73924 C 11.78 g/m*3 15.74 C 0.6184 km/h
3017 31-08-2013 00:00:00 16.33229 C 12 g/m*3 16.33 C 2.64583 km/h
3018 01-09-2013 00:00:00 14.50938 C 9.15 g/m*3 14.51 C 3.89063 km/h
3019 02-09-2013 00:00:00 17.48924 C 10.42 g/m*3 17.49 C 5.84549 km/h
3020 03-09-2013 00:00:00 18.08299 C 12.45 g/m*3 18.08 C 2.6309 km/h
3021 04-09-2013 00:00:00 17.74583 C 12.89 g/m*3 17.75 C 1.16979 km/h
3022 05-09-2013 00:00:00 18.47349 C 13.35 g/m*3 18.47 C 2.29116 km/h
3023 06-09-2013 00:00:00 22.68615 C 15 g/m*3 22.69 C 1.85333 km/h
3024 07-09-2013 00:00:00 18.36354 C 14.36 g/m*3 18.36 C 1.44931 km/h
3025 08-09-2013 00:00:00 14.78542 C 11.89 g/m*3 14.79 C 3.23819 km/h
Sensor: Nr:Datum:Temp:Abs-Feuchte:Windchill:Wind:
Aussen-T/F 3026 09-09-2013 00:00:00 14.16944 C 10.6 g/m*3 14.17 C 3.4941 km/h
3027 10-09-2013 00:00:00 13.35073 C 9.56 g/m*3 13.35 C 7.72226 km/h
3028 11-09-2013 00:00:00 13.00912 C 9.96 g/m*3 13.01 C 7.57591 km/h
3029 12-09-2013 00:00:00 13.53472 C 10.87 g/m*3 13.53 C 2.41944 km/h
3030 13-09-2013 00:00:00 14.67363 C 11.11 g/m*3 14.67 C 3.42674 km/h
3031 14-09-2013 00:00:00 15.8191 C 12.55 g/m*3 15.82 C 2.43368 km/h
3032 15-09-2013 00:00:00 14.41667 C 10.8 g/m*3 14.42 C 2.04618 km/h
3033 16-09-2013 00:00:00 13.23333 C 9.36 g/m*3 13.23 C 8.13646 km/h
3034 17-09-2013 00:00:00 10.58958 C 8.06 g/m*3 9.56 C 8.7316 km/h
3035 18-09-2013 00:00:00 12.57951 C 10.26 g/m*3 12.58 C 3.60243 km/h
3036 19-09-2013 00:00:00 11.89444 C 9.17 g/m*3 11.89 C 4.18056 km/h
3037 20-09-2013 00:00:00 13.91806 C 10.29 g/m*3 13.92 C 6.2375 km/h
3038 21-09-2013 00:00:00 12.20868 C 9.83 g/m*3 12.21 C 2.10417 km/h
3039 22-09-2013 00:00:00 13.16156 C 10.46 g/m*3 13.16 C 0.93941 km/h
3040 23-09-2013 00:00:00 15.46493 C 11.75 g/m*3 15.46 C 1.45104 km/h
3041 24-09-2013 00:00:00 12.34792 C 10.31 g/m*3 12.35 C 0.75 km/h
3042 25-09-2013 00:00:00 14.08646 C 11.46 g/m*3 14.09 C 0.52847 km/h
3043 26-09-2013 00:00:00 14.58924 C 11.4 g/m*3 14.59 C 2.53715 km/h
3044 27-09-2013 00:00:00 11.25312 C 9.06 g/m*3 11.25 C 1.41875 km/h
3045 28-09-2013 00:00:00 10.575 C 8.62 g/m*3 10.58 C 1.40857 km/h
3046 29-09-2013 00:00:00 11.89028 C 9.01 g/m*3 11.89 C 2.28715 km/h
3047 30-09-2013 00:00:00 9.80833 C 8.09 g/m*3 9.81 C 1.37847 km/h
3048 01-10-2013 00:00:00 11.38264 C 8.26 g/m*3 11.38 C 3.07465 km/h
3049 02-10-2013 00:00:00 9.01493 C 7.25 g/m*3 9.01 C 1.96285 km/h
3050 03-10-2013 00:00:00 8.84479 C 7.07 g/m*3 8.84 C 1.59028 km/h
Sensor: Nr:Datum:Temp:Abs-Feuchte:Windchill:Wind:
Aussen-T/F 3051 04-10-2013 00:00:00 11.33993 C 9.37 g/m*3 11.34 C 0.21111 km/h
3052 05-10-2013 00:00:00 12.69583 C 10.86 g/m*3 12.7 C 0.31181 km/h
3053 06-10-2013 00:00:00 13.60313 C 10.91 g/m*3 13.6 C 2.27882 km/h
3054 07-10-2013 00:00:00 13.21667 C 10.88 g/m*3 13.22 C 0.26667 km/h
3055 08-10-2013 00:00:00 12.77764 C 10.78 g/m*3 12.78 C 0 km/h
3056 09-10-2013 00:00:00 13.86667 C 10.96 g/m*3 13.87 C 2.74792 km/h
3057 10-10-2013 00:00:00 8.4625 C 8.06 g/m*3 8.46 C 2.30625 km/h
3058 11-10-2013 00:00:00 6.82419 C 7.44 g/m*3 6.82 C 0.21949 km/h
3059 12-10-2013 00:00:00 6.31215 C 7.05 g/m*3 6.31 C 0.87882 km/h
3060 13-10-2013 00:00:00 7.69167 C 7.3 g/m*3 7.69 C 1.92431 km/h
3061 14-10-2013 00:00:00 9.89091 C 8.61 g/m*3 9.89 C 1.40873 km/h
3062 15-10-2013 00:00:00 10.43275 C 9.1 g/m*3 10.43 C 2.93873 km/h
3063 16-10-2013 00:00:00 10.04523 C 9.04 g/m*3 10.05 C 0.72403 km/h
3064 17-10-2013 00:00:00 12.70972 C 9.88 g/m*3 12.71 C 9.25174 km/h
3065 18-10-2013 00:00:00 11.80868 C 10.08 g/m*3 11.81 C 0.51215 km/h
3066 19-10-2013 00:00:00 11.72702 C 10 g/m*3 11.73 C 0.73649 km/h
3067 20-10-2013 00:00:00 15.28507 C 12.24 g/m*3 15.29 C 1.55521 km/h
3068 21-10-2013 00:00:00 15.075 C 11.59 g/m*3 15.08 C 2.91146 km/h
3069 22-10-2013 00:00:00 15.7614 C 12.32 g/m*3 15.76 C 1.24526 km/h
3070 23-10-2013 00:00:00 15.81476 C 12.49 g/m*3 15.81 C 2.65055 km/h
3071 24-10-2013 00:00:00 13.67431 C 11.29 g/m*3 13.67 C 0.99618 km/h
3072 25-10-2013 00:00:00 13.01701 C 11 g/m*3 13.02 C 0.45 km/h
3073 26-10-2013 00:00:00 16.40963 C 13.29 g/m*3 16.41 C 1.84704 km/h
3074 27-10-2013 00:00:00 14.94896 C 10.73 g/m*3 14.95 C 10.93333 km/h
3075 28-10-2013 00:00:00 15.40962 C 10.27 g/m*3 15.41 C 14.48615 km/h
Sensor: Nr:Datum:Temp:Abs-Feuchte:Windchill:Wind:
Aussen-T/F 3076 29-10-2013 00:00:00 11.12569 C 7.82 g/m*3 11.13 C 8.91462 km/h
3077 30-10-2013 00:00:00 7.81825 C 7.08 g/m*3 7.82 C 4.29333 km/h
3078 31-10-2013 00:00:00 5.27708 C 6.53 g/m*3 5.28 C 1.08333 km/h
3079 01-11-2013 00:00:00 9.4316 C 8.11 g/m*3 9.43 C 0.86771 km/h
3080 02-11-2013 00:00:00 12.79889 C 10.13 g/m*3 12.8 C 7.44059 km/h
3081 03-11-2013 00:00:00 9.93611 C 7.83 g/m*3 8.44 C 10.69653 km/h
3082 04-11-2013 00:00:00 9.80526 C 8.08 g/m*3 8.5 C 9.43228 km/h
3083 05-11-2013 00:00:00 6.72153 C 6.66 g/m*3 5.55 C 6.49792 km/h
3084 06-11-2013 00:00:00 10.70504 C 8.72 g/m*3 10.03 C 7.0759 km/h
3085 07-11-2013 00:00:00 15.04132 C 10.87 g/m*3 15.04 C 15.81458 km/h
3086 08-11-2013 00:00:00 11.92093 C 9.87 g/m*3 11.92 C 4.78744 km/h
3087 09-11-2013 00:00:00 9.48785 C 7.37 g/m*3 8.08 C 9.67049 km/h
3088 10-11-2013 00:00:00 6.68715 C 6.91 g/m*3 6.69 C 4.28229 km/h
3089 11-11-2013 00:00:00 4.00764 C 6.13 g/m*3 4.01 C 2.81111 km/h
3090 12-11-2013 00:00:00 4.41146 C 6.13 g/m*3 4.41 C 0.99514 km/h
3091 13-11-2013 00:00:00 6.28491 C 6.92 g/m*3 6.28 C 1.42316 km/h
3092 14-11-2013 00:00:00 3.2816 C 5.76 g/m*3 3.28 C 2.33993 km/h
3093 15-11-2013 00:00:00 4.99201 C 6.15 g/m*3 4.99 C 1.86563 km/h
3094 16-11-2013 00:00:00 3.05 C 5.48 g/m*3 3.05 C 1.77361 km/h
3095 17-11-2013 00:00:00 3.2184 C 5.71 g/m*3 3.22 C 1.06771 km/h
3096 18-11-2013 00:00:00 5.38287 C 6.56 g/m*3 5.38 C 0.56813 km/h
3097 19-11-2013 00:00:00 6.22 C 6.74 g/m*3 6.22 C 1.29471 km/h
3098 20-11-2013 00:00:00 3.96643 C 5.82 g/m*3 3.97 C 3.58671 km/h
3099 21-11-2013 00:00:00 4.05603 C 5.71 g/m*3 4.06 C 2.84009 km/h
3100 22-11-2013 00:00:00 4.42 C 5.66 g/m*3 2.31 C 8.53545 km/h
Sensor: Nr:Datum:Temp:Abs-Feuchte:Windchill:Wind:
Aussen-T/F 3101 23-11-2013 00:00:00 7.03092 C 6.75 g/m*3 5.58 C 7.75921 km/h
3102 24-11-2013 00:00:00 5.71435 C 6.3 g/m*3 4.64 C 5.71696 km/h
3103 25-11-2013 00:00:00 2.65439 C 5.42 g/m*3 2.65 C 3.61404 km/h
3104 26-11-2013 00:00:00 0.53125 C 4.75 g/m*3 0.53 C 1.94514 km/h
3105 27-11-2013 00:00:00 0.63854 C 4.68 g/m*3 0.64 C 2.05833 km/h
3106 28-11-2013 00:00:00 3.45709 C 5.78 g/m*3 3.46 C 2.96716 km/h
3107 29-11-2013 00:00:00 5.6434 C 6.49 g/m*3 4.28 C 6.57743 km/h
3108 30-11-2013 00:00:00 4.32604 C 6.09 g/m*3 4.33 C 2.40104 km/h
3109 01-12-2013 00:00:00 5.01254 C 6.44 g/m*3 5.01 C 1.523 km/h
3110 02-12-2013 00:00:00 4.76458 C 6.22 g/m*3 4.76 C 1.37917 km/h
3111 03-12-2013 00:00:00 -0.45729 C 4.56 g/m*3 -0.46 C 0.1 km/h
3112 04-12-2013 00:00:00 3.27917 C 5.57 g/m*3 0.98 C 8.47882 km/h
3113 05-12-2013 00:00:00 3.93475 C 5.57 g/m*3 0.58 C 14.12518 km/h
3114 06-12-2013 00:00:00 3.76181 C 4.69 g/m*3 0.48 C 13.48472 km/h
3115 07-12-2013 00:00:00 4.38715 C 5.6 g/m*3 2.16 C 9.01424 km/h
3116 08-12-2013 00:00:00 6.92188 C 6.74 g/m*3 4.84 C 10.57882 km/h
3117 09-12-2013 00:00:00 6.42222 C 6.28 g/m*3 4.68 C 8.52708 km/h
3118 10-12-2013 00:00:00 3.24896 C 5.8 g/m*3 3.25 C 1.09479 km/h
3119 11-12-2013 00:00:00 3.72465 C 6.03 g/m*3 3.72 C 2.77604 km/h
3120 12-12-2013 00:00:00 4.08993 C 5.9 g/m*3 4.09 C 2.24549 km/h
3121 13-12-2013 00:00:00 2.65694 C 5.26 g/m*3 1.37 C 5.13403 km/h
3122 14-12-2013 00:00:00 3.58986 C 5.73 g/m*3 1.76 C 7.02797 km/h
3123 15-12-2013 00:00:00 4.99688 C 5.84 g/m*3 3.97 C 5.28368 km/h
3124 16-12-2013 00:00:00 1.49676 C 5.08 g/m*3 1.5 C 0.97266 km/h
3125 17-12-2013 00:00:00 1.25451 C 5.04 g/m*3 1.25 C 0.84444 km/h
Sensor: Nr:Datum:Temp:Abs-Feuchte:Windchill:Wind:
Aussen-T/F 3126 18-12-2013 00:00:00 4.19965 C 6.07 g/m*3 4.2 C 2.15417 km/h
3127 19-12-2013 00:00:00 8.13715 C 7.36 g/m*3 7.35 C 5.92014 km/h
3128 20-12-2013 00:00:00 4.38403 C 6.02 g/m*3 4.38 C 3.57188 km/h
3129 21-12-2013 00:00:00 4.81354 C 5.49 g/m*3 4.81 C 3.15104 km/h
3130 22-12-2013 00:00:00 8.81493 C 7.21 g/m*3 6.93 C 11.70313 km/h
3131 23-12-2013 00:00:00 8.42341 C 7.27 g/m*3 7.4 C 6.9496 km/h
3132 24-12-2013 00:00:00 11.57579 C 7.64 g/m*3 11.58 C 8.18772 km/h
3133 25-12-2013 00:00:00 8.41944 C 7.85 g/m*3 8.42 C 4.39444 km/h
3134 26-12-2013 00:00:00 6.06579 C 6.91 g/m*3 6.07 C 1.59699 km/h
3135 27-12-2013 00:00:00 6.6549 C 6.45 g/m*3 5.63 C 5.98392 km/h
3136 28-12-2013 00:00:00 9.14444 C 8.02 g/m*3 9.14 C 4.03472 km/h
3137 29-12-2013 00:00:00 4.76463 C 6.29 g/m*3 4.76 C 4.79268 km/h
3138 30-12-2013 00:00:00 4.17107 C 5.77 g/m*3 4.17 C 2.72893 km/h
3139 31-12-2013 00:00:00 2.91045 C 5.29 g/m*3 2.91 C 3.21418 km/h
3140 01-01-2014 00:00:00 6.46912 C 6.47 g/m*3 6.47 C 3.35754 km/h
3141 02-01-2014 00:00:00 8.31947 C 7.47 g/m*3 7.64 C 5.65573 km/h
3142 03-01-2014 00:00:00 8.74861 C 7.51 g/m*3 7.72 C 7.20556 km/h
3143 04-01-2014 00:00:00 7.47049 C 7.08 g/m*3 7.47 C 3.99826 km/h
3144 05-01-2014 00:00:00 6.12632 C 6.69 g/m*3 6.13 C 4.07456 km/h
3145 06-01-2014 00:00:00 8.33819 C 7.53 g/m*3 8.34 C 3.18299 km/h
3146 07-01-2014 00:00:00 10.72882 C 8.44 g/m*3 10.36 C 5.81111 km/h
3147 08-01-2014 00:00:00 10.3965 C 8.37 g/m*3 9.96 C 5.86887 km/h
3148 09-01-2014 00:00:00 9.27876 C 7.72 g/m*3 7.97 C 8.92394 km/h
3149 10-01-2014 00:00:00 5.59896 C 6.15 g/m*3 4.44 C 5.90833 km/h
3150 11-01-2014 00:00:00 3.80382 C 5.85 g/m*3 3.8 C 3.58785 km/h
Sensor: Nr:Datum:Temp:Abs-Feuchte:Windchill:Wind:
Aussen-T/F 3151 12-01-2014 00:00:00 0.34545 C 4.82 g/m*3 0.35 C 3.49273 km/h
3152 13-01-2014 00:00:00 3.73194 C 5.99 g/m*3 3.73 C 1.58333 km/h
3153 14-01-2014 00:00:00 5.06036 C 6.44 g/m*3 5.06 C 2.20786 km/h
3154 15-01-2014 00:00:00 4.1934 C 5.92 g/m*3 4.19 C 2.33889 km/h
3155 16-01-2014 00:00:00 6.5375 C 7.02 g/m*3 6.54 C 1.6691 km/h
3156 17-01-2014 00:00:00 6.75 C 7.07 g/m*3 6.75 C 2.30069 km/h
3157 18-01-2014 00:00:00 4.5321 C 5.96 g/m*3 4.53 C 2.73542 km/h
3158 19-01-2014 00:00:00 4.621 C 6.1 g/m*3 4.62 C 1.49075 km/h
3159 20-01-2014 00:00:00 4.32836 C 6.15 g/m*3 4.33 C 0.99142 km/h
3160 21-01-2014 00:00:00 3.49792 C 5.76 g/m*3 3.5 C 2.23125 km/h
3161 22-01-2014 00:00:00 3.18571 C 5.74 g/m*3 3.19 C 1.40879 km/h
3162 23-01-2014 00:00:00 3.72927 C 5.76 g/m*3 3.73 C 3.97378 km/h
3163 24-01-2014 00:00:00 3.90268 C 5.91 g/m*3 3.9 C 3.03973 km/h
3164 25-01-2014 00:00:00 2.8165 C 5.57 g/m*3 2.82 C 2.214 km/h
3165 26-01-2014 00:00:00 5.11851 C 5.71 g/m*3 2.72 C 10.35303 km/h
3166 27-01-2014 00:00:00 4.4199 C 5.7 g/m*3 3 C 6.15707 km/h
3167 28-01-2014 00:00:00 2.3686